[[{"header":{"parameterUnit":"m.s-1","parameterCategory":1,"la1":31.0,"la2":29.5877,"lo1":-88.7671,"lo2":-86.6584,"dy":0.0162,"dx":0.0185,"nx":115,"ny":88,"refTime":"2023-04-18T18:00:00:Z","depth":0,"parameterNumber":2,"parameterNumberName":"U-component_of_WINDS"},"data":[0.0,0.0,0.0,0.0,0.0,0.0,0.0,0.0,0.0,0.0,0.0,0.0,0.0,0.0,0.0,0.0,0.0,0.0,0.0,0.0,0.0,0.0,0.0,0.0,0.0,0.0,0.0,0.0,0.0,0.0,0.0,0.0,0.0,0.0,0.0,0.0,0.0,0.0,0.0,0.0,0.0,0.0,0.0,0.0,0.0,0.0,0.0,0.0,0.0,0.0,0.0,0.0,0.0,0.0,0.0,0.0,0.0,0.0,0.0,0.0,0.0,0.0,0.0,0.0,0.0,0.0,0.0,0.0,0.0,0.0,0.0,0.0,0.0,0.0,0.0,0.0,0.0,0.0,0.0,0.0,0.0,0.0,0.0,0.0,0.0,0.0,0.0,0.0,0.0,0.0,0.0,0.0,0.0,0.0,0.0,0.0,0.0,0.0,0.0,0.0,0.0,0.0,0.0,0.0,0.0,0.0,0.0,0.0,0.0,0.0,0.0,0.0,0.0,0.0,0.0,0.0,0.0,0.0,0.0,0.0,0.0,0.0,0.0,0.0,0.0,0.0,0.0,0.0,0.0,0.0,0.0,0.0,0.0,0.0,0.0,0.0,0.0,0.0,0.0,0.0,0.0,0.0,0.0,0.0,0.0,0.0,0.0,0.0,0.0,0.0,0.0,0.0,0.0,0.0,0.0,0.0,0.0,0.0,0.0,0.0,0.0,0.0,0.0,0.0,0.0,0.0,0.0,0.0,0.0,0.0,0.0,0.0,0.0,0.0,0.0,0.0,0.0,0.0,0.0,0.0,0.0,0.0,0.0,0.0,0.0,0.0,0.0,0.0,0.0,0.0,0.0,0.0,0.0,0.0,0.0,0.0,0.0,0.0,0.0,0.0,0.0,0.0,0.0,0.0,0.0,0.0,0.0,0.0,0.0,0.0,0.0,0.0,0.0,0.0,0.0,0.0,0.0,0.0,0.0,0.0,0.0,0.0,0.0,0.0,0.0,0.0,0.0,0.0,0.0,0.0,0.0,0.0,0.0,0.0,0.0,0.0,0.0,0.0,0.0,0.0,0.0,0.0,0.0,0.0,0.0,0.0,0.0,0.0,0.0,0.0,0.0,0.0,0.0,0.0,0.0,0.0,0.0,0.0,0.0,0.0,0.0,0.0,0.0,0.0,0.0,0.0,0.0,0.0,0.0,0.0,0.0,0.0,0.0,0.0,0.0,0.0,0.0,0.0,0.0,0.0,0.0,0.0,0.0,0.0,0.0,0.0,0.0,0.0,0.0,0.0,0.0,0.0,0.0,0.0,0.0,0.0,0.0,0.0,0.0,0.0,0.0,0.0,0.0,0.0,0.0,0.0,0.0,0.0,0.0,0.0,0.0,0.0,0.0,0.0,0.0,0.0,0.0,0.0,0.0,0.0,0.0,0.0,0.0,0.0,0.0,0.0,0.0,0.0,0.0,0.0,0.0,0.0,0.0,0.0,0.0,0.0,0.0,0.0,0.0,0.0,0.0,0.0,0.0,0.0,0.0,0.0,0.0,0.0,0.0,0.0,0.0,0.0,0.0,0.0,0.0,0.0,0.0,0.0,0.0,0.0,0.0,0.0,0.0,0.0,0.0,0.0,0.0,0.0,0.0,0.0,0.0,0.0,0.0,0.0,0.0,0.0,0.0,0.0,0.0,0.0,0.0,0.0,0.0,0.0,0.0,0.0,0.0,0.0,0.0,0.0,0.0,0.0,0.0,0.0,0.0,0.0,0.0,0.0,0.0,0.0,0.0,0.0,0.0,0.0,0.0,0.0,0.0,0.0,0.0,0.0,0.0,0.0,0.0,0.0,0.0,0.0,0.0,0.0,0.0,0.0,0.0,0.0,0.0,0.0,0.0,0.0,0.0,0.0,0.0,0.0,0.0,0.0,0.0,0.0,0.0,0.0,0.0,0.0,0.0,0.0,0.0,0.0,0.0,0.0,0.0,0.0,0.0,0.0,0.0,0.0,0.0,0.0,0.0,0.0,0.0,0.0,0.0,0.0,0.0,0.0,0.0,0.0,0.0,0.0,0.0,0.0,0.0,0.0,0.0,0.0,0.0,0.0,0.0,0.0,0.0,0.0,0.0,0.0,0.0,0.0,0.0,0.0,0.0,0.0,0.0,0.0,0.0,0.0,0.0,0.0,0.0,0.0,0.0,0.0,0.0,0.0,0.0,0.0,0.0,0.0,0.0,0.0,0.0,0.0,0.0,0.0,0.0,0.0,0.0,0.0,0.0,0.0,0.0,0.0,0.0,0.0,0.0,0.0,0.0,0.0,0.0,0.0,0.0,0.0,0.0,0.0,0.0,0.0,0.0,0.0,0.0,0.0,0.0,0.0,0.0,0.0,0.0,0.0,0.0,0.0,0.0,0.0,0.0,0.0,0.0,0.0,0.0,0.0,0.0,0.0,0.0,0.0,0.0,0.0,0.0,0.0,0.0,0.0,0.0,0.0,0.0,0.0,0.0,0.0,0.0,0.0,0.0,0.0,0.0,0.0,0.0,0.0,0.0,0.0,0.0,0.0,0.0,0.0,0.0,0.0,0.0,0.0,0.0,0.0,0.0,0.0,0.0,0.0,0.0,0.0,0.0,0.0,0.0,0.0,0.0,0.0,0.0,0.0,0.0,0.0,0.0,0.0,0.0,0.0,0.0,0.0,0.0,0.0,0.0,0.0,0.0,0.0,0.0,0.0,0.0,0.0,0.0,0.0,0.0,0.0,0.0,0.0,0.0,0.0,0.0,0.0,0.0,0.0,0.0,0.0,0.0,0.0,0.0,0.0,0.0,0.0,0.0,0.0,0.0,0.0,0.0,0.0,0.0,0.0,0.0,0.0,0.0,0.0,0.0,0.0,0.0,0.0,0.0,0.0,0.0,0.0,0.0,0.0,0.0,0.0,0.0,0.0,0.0,0.0,0.0,0.0,0.0,0.0,0.0,0.0,0.0,0.0,0.0,0.0,0.0,0.0,0.0,0.0,0.0,0.0,0.0,0.0,0.0,0.0,0.0,0.0,0.0,0.0,0.0,0.0,0.0,0.0,0.0,0.0,0.0,0.0,0.0,0.0,0.0,0.0,0.0,0.0,0.0,0.0,0.0,0.0,0.0,0.0,0.0,0.0,0.0,0.0,0.0,0.0,0.0,0.0,0.0,0.0,0.0,0.0,0.0,0.0,0.0,0.0,0.0,0.0,0.0,0.0,0.0,0.0,0.0,0.0,0.0,0.0,0.0,0.0,0.0,0.0,0.0,0.0,0.0,0.0,0.0,0.0,0.0,0.0,0.0,0.0,0.0,0.0,0.0,0.0,0.0,0.0,0.0,0.0,0.0,0.0,0.0,0.0,0.0,0.0,0.0,0.0,0.0,0.0,0.0,0.0,0.0,0.0,0.0,0.0,0.0,0.0,0.0,0.0,0.0,0.0,0.0,0.0,0.0,0.0,0.0,0.0,0.0,0.0,0.0,0.0,0.0,0.0,0.0,0.0,0.0,0.0,0.0,0.0,0.0,0.0,0.0,0.0,0.0,0.0,0.0,0.0,0.0,0.0,0.0,0.0,0.0,0.0,0.0,0.0,0.0,0.0,0.0,0.0,0.0,0.0,0.0,0.0,0.0,0.0,0.0,0.0,0.0,0.0,0.0,0.0,0.0,0.0,0.0,0.0,0.0,0.0,0.0,0.0,0.0,0.0,0.0,0.0,0.0,0.0,0.0,0.0,0.0,0.0,0.0,0.0,0.0,0.0,0.0,0.0,0.0,0.0,0.0,0.0,0.0,0.0,0.0,0.0,0.0,0.0,0.0,0.0,0.0,0.0,0.0,0.0,0.0,0.0,0.0,0.0,0.0,0.0,0.0,0.0,0.0,0.0,0.0,0.0,0.0,0.0,0.0,0.0,0.0,0.0,0.0,0.0,0.0,0.0,0.0,0.0,0.0,0.0,0.0,0.0,0.0,0.0,0.0,0.0,0.0,0.0,0.0,0.0,0.0,0.0,0.0,0.0,0.0,0.0,0.0,0.0,0.0,0.0,0.0,0.0,0.0,0.0,0.0,0.0,0.0,0.0,0.0,0.0,0.0,0.0,0.0,0.0,0.0,0.0,0.0,0.0,0.0,0.0,0.0,0.0,0.0,0.0,0.0,0.0,0.0,0.0,0.0,0.0,0.0,0.0,0.0,0.0,0.0,0.0,0.0,0.0,0.0,0.0,0.0,0.0,0.0,0.0,0.0,0.0,0.0,0.0,0.0,0.0,0.0,0.0,3.8348,0.0,0.0,0.0,0.0,0.0,0.0,0.0,0.0,0.0,0.0,0.0,0.0,0.0,0.0,0.0,0.0,0.0,0.0,0.0,0.0,0.0,0.0,0.0,0.0,0.0,0.0,0.0,0.0,0.0,0.0,0.0,0.0,0.0,0.0,0.0,0.0,0.0,0.0,0.0,0.0,0.0,0.0,0.0,0.0,0.0,0.0,0.0,0.0,0.0,0.0,0.0,0.0,0.0,0.0,0.0,0.0,0.0,0.0,0.0,0.0,0.0,0.0,0.0,0.0,0.0,0.0,0.0,0.0,0.0,0.0,0.0,0.0,0.0,0.0,0.0,0.0,0.0,0.0,0.0,0.0,0.0,0.0,0.0,0.0,0.0,0.0,0.0,0.0,0.0,0.0,0.0,0.0,0.0,0.0,0.0,0.0,0.0,0.0,0.0,0.0,0.0,0.0,0.0,0.0,0.0,0.0,0.0,0.0,0.0,0.0,4.1345,4.0364,3.9262,3.8323,3.7607,0.0,0.0,0.0,0.0,0.0,0.0,0.0,0.0,0.0,0.0,0.0,0.0,0.0,0.0,0.0,0.0,0.0,0.0,0.0,0.0,0.0,0.0,0.0,0.0,0.0,0.0,0.0,0.0,0.0,0.0,0.0,0.0,0.0,0.0,0.0,0.0,0.0,0.0,0.0,0.0,0.0,0.0,0.0,0.0,0.0,0.0,0.0,0.0,0.0,0.0,0.0,0.0,0.0,0.0,0.0,0.0,0.0,0.0,0.0,0.0,0.0,0.0,0.0,0.0,0.0,0.0,0.0,0.0,0.0,0.0,0.0,0.0,0.0,0.0,0.0,0.0,0.0,0.0,0.0,0.0,0.0,0.0,0.0,0.0,0.0,0.0,0.0,0.0,0.0,0.0,0.0,0.0,0.0,0.0,0.0,0.0,0.0,0.0,0.0,0.0,0.0,0.0,0.0,0.0,0.0,0.0,0.0,0.0,0.0,0.0,0.0,0.0,3.8161,3.7073,3.6317,0.0,0.0,0.0,0.0,0.0,0.0,0.0,0.0,0.0,0.0,0.0,0.0,0.0,0.0,0.0,0.0,0.0,0.0,0.0,0.0,0.0,0.0,0.0,0.0,0.0,0.0,0.0,0.0,0.0,0.0,0.0,0.0,0.0,0.0,0.0,0.0,0.0,0.0,0.0,0.0,0.0,0.0,0.0,0.0,0.0,0.0,0.0,0.0,0.0,0.0,0.0,0.0,0.0,0.0,0.0,0.0,0.0,0.0,0.0,0.0,0.0,0.0,0.0,0.0,0.0,0.0,0.0,0.0,0.0,0.0,0.0,0.0,0.0,0.0,0.0,0.0,0.0,0.0,0.0,0.0,0.0,0.0,0.0,0.0,0.0,0.0,0.0,0.0,0.0,0.0,0.0,0.0,0.0,0.0,0.0,0.0,0.0,0.0,0.0,0.0,0.0,0.0,0.0,0.0,0.0,0.0,0.0,0.0,0.0,0.0,3.9362,3.9258,3.7203,0.0,3.2913,0.0,0.0,0.0,0.0,0.0,0.0,0.0,0.0,0.0,0.0,0.0,0.0,0.0,0.0,0.0,0.0,0.0,0.0,0.0,0.0,0.0,0.0,0.0,0.0,0.0,0.0,0.0,0.0,0.0,0.0,0.0,0.0,0.0,0.0,0.0,0.0,0.0,0.0,0.0,0.0,0.0,0.0,0.0,0.0,0.0,0.0,0.0,0.0,0.0,0.0,0.0,0.0,0.0,0.0,0.0,0.0,0.0,0.0,0.0,0.0,0.0,0.0,0.0,0.0,0.0,0.0,0.0,0.0,0.0,0.0,0.0,0.0,0.0,0.0,0.0,0.0,0.0,0.0,0.0,0.0,0.0,0.0,0.0,0.0,0.0,0.0,0.0,0.0,0.0,0.0,0.0,0.0,0.0,0.0,0.0,0.0,0.0,0.0,0.0,0.0,0.0,0.0,0.0,0.0,0.0,0.0,0.0,0.0,0.0,0.0,3.9282,3.8965,3.626,3.3663,0.0,0.0,0.0,0.0,0.0,0.0,0.0,0.0,0.0,0.0,0.0,0.0,0.0,0.0,0.0,0.0,0.0,0.0,0.0,0.0,0.0,0.0,0.0,0.0,0.0,0.0,0.0,0.0,0.0,0.0,0.0,0.0,0.0,0.0,0.0,0.0,0.0,0.0,0.0,0.0,0.0,0.0,0.0,0.0,0.0,0.0,0.0,0.0,0.0,0.0,0.0,0.0,0.0,0.0,0.0,0.0,0.0,0.0,0.0,0.0,0.0,0.0,0.0,0.0,0.0,0.0,0.0,0.0,0.0,0.0,0.0,0.0,0.0,0.0,0.0,0.0,0.0,0.0,0.0,0.0,0.0,0.0,0.0,0.0,0.0,0.0,0.0,0.0,0.0,0.0,0.0,0.0,0.0,0.0,0.0,0.0,0.0,0.0,0.0,0.0,0.0,0.0,0.0,0.0,0.0,0.0,0.0,0.0,0.0,0.0,3.9623,3.8524,3.7595,3.5354,3.3152,3.0936,0.0,0.0,0.0,0.0,0.0,0.0,0.0,0.0,0.0,0.0,0.0,0.0,0.0,0.0,0.0,0.0,0.0,0.0,0.0,0.0,0.0,0.0,0.0,0.0,0.0,0.0,0.0,0.0,0.0,0.0,0.0,0.0,0.0,0.0,0.0,0.0,0.0,0.0,0.0,0.0,0.0,0.0,0.0,0.0,0.0,0.0,0.0,0.0,0.0,0.0,0.0,0.0,0.0,0.0,0.0,0.0,0.0,0.0,0.0,0.0,0.0,0.0,0.0,0.0,0.0,0.0,0.0,0.0,0.0,0.0,0.0,0.0,0.0,0.0,0.0,0.0,0.0,0.0,0.0,0.0,0.0,0.0,0.0,0.0,0.0,0.0,0.0,0.0,0.0,0.0,0.0,0.0,0.0,0.0,0.0,0.0,0.0,0.0,0.0,0.0,0.0,0.0,0.0,0.0,0.0,0.0,0.0,0.0,3.9205,3.8512,3.6996,3.4795,3.4602,3.3534,0.0,0.0,0.0,0.0,0.0,0.0,0.0,0.0,0.0,0.0,0.0,0.0,0.0,0.0,0.0,0.0,0.0,0.0,0.0,0.0,0.0,0.0,0.0,0.0,0.0,0.0,0.0,0.0,0.0,0.0,0.0,0.0,0.0,0.0,0.0,0.0,0.0,0.0,0.0,0.0,0.0,0.0,0.0,0.0,0.0,0.0,0.0,0.0,0.0,0.0,0.0,0.0,0.0,0.0,0.0,0.0,0.0,0.0,0.0,0.0,0.0,0.0,0.0,0.0,0.0,0.0,0.0,0.0,0.0,0.0,0.0,0.0,0.0,0.0,0.0,0.0,0.0,0.0,0.0,0.0,0.0,0.0,0.0,0.0,0.0,0.0,0.0,0.0,0.0,0.0,0.0,0.0,0.0,0.0,0.0,0.0,0.0,0.0,0.0,0.0,0.0,0.0,0.0,0.0,0.0,0.0,0.0,0.0,0.0,4.0272,3.7997,3.5972,3.4124,3.3457,3.2211,0.0,0.0,0.0,0.0,0.0,0.0,0.0,0.0,0.0,0.0,0.0,0.0,0.0,0.0,0.0,0.0,0.0,0.0,0.0,0.0,0.0,0.0,0.0,0.0,0.0,0.0,0.0,0.0,0.0,0.0,0.0,0.0,0.0,0.0,0.0,0.0,0.0,0.0,0.0,0.0,0.0,0.0,0.0,0.0,0.0,0.0,0.0,0.0,0.0,0.0,0.0,0.0,0.0,0.0,0.0,0.0,0.0,0.0,0.0,0.0,0.0,0.0,0.0,0.0,0.0,0.0,0.0,0.0,0.0,0.0,0.0,0.0,0.0,0.0,0.0,0.0,0.0,0.0,0.0,0.0,0.0,0.0,0.0,0.0,0.0,0.0,0.0,0.0,0.0,0.0,0.0,0.0,0.0,0.0,0.0,0.0,0.0,0.0,0.0,0.0,0.0,0.0,0.0,0.0,0.0,0.0,0.0,0.0,0.0,3.9405,0.0,3.4819,3.3733,3.3001,3.1818,0.0,0.0,0.0,0.0,0.0,0.0,0.0,0.0,0.0,0.0,0.0,0.0,0.0,0.0,0.0,0.0,0.0,0.0,0.0,0.0,0.0,0.0,0.0,0.0,0.0,0.0,0.0,0.0,0.0,0.0,0.0,0.0,0.0,0.0,0.0,0.0,0.0,0.0,0.0,0.0,0.0,0.0,0.0,0.0,0.0,0.0,0.0,0.0,0.0,0.0,0.0,0.0,0.0,0.0,0.0,0.0,0.0,0.0,0.0,0.0,0.0,0.0,0.0,0.0,0.0,0.0,0.0,0.0,0.0,0.0,0.0,0.0,0.0,0.0,0.0,0.0,0.0,0.0,0.0,0.0,0.0,0.0,0.0,0.0,0.0,0.0,0.0,0.0,0.0,0.0,0.0,0.0,0.0,0.0,0.0,0.0,0.0,0.0,0.0,0.0,0.0,0.0,0.0,0.0,0.0,0.0,0.0,0.0,3.8957,3.5992,3.4652,3.3757,3.3418,3.3339,3.2335,0.0,0.0,0.0,0.0,0.0,0.0,0.0,0.0,0.0,0.0,0.0,0.0,0.0,0.0,0.0,0.0,0.0,0.0,0.0,0.0,0.0,0.0,0.0,0.0,0.0,0.0,0.0,0.0,0.0,0.0,0.0,0.0,0.0,0.0,0.0,0.0,0.0,0.0,0.0,0.0,0.0,0.0,0.0,0.0,0.0,0.0,0.0,0.0,0.0,0.0,0.0,0.0,0.0,0.0,0.0,0.0,0.0,0.0,0.0,0.0,0.0,0.0,0.0,0.0,0.0,0.0,0.0,0.0,0.0,0.0,0.0,0.0,0.0,0.0,0.0,0.0,0.0,0.0,0.0,0.0,0.0,0.0,0.0,0.0,0.0,0.0,0.0,0.0,0.0,0.0,0.0,0.0,0.0,0.0,0.0,0.0,0.0,0.0,0.0,0.0,0.0,0.0,0.0,0.0,0.0,0.0,0.0,0.0,0.0,3.4901,3.3524,3.2765,3.2384,3.2169,3.1135,0.0,0.0,0.0,0.0,0.0,0.0,0.0,0.0,0.0,0.0,0.0,0.0,0.0,0.0,0.0,0.0,0.0,0.0,0.0,0.0,0.0,0.0,0.0,0.0,0.0,0.0,0.0,0.0,0.0,0.0,0.0,0.0,0.0,0.0,0.0,0.0,0.0,0.0,0.0,0.0,0.0,0.0,0.0,0.0,0.0,0.0,0.0,0.0,0.0,0.0,0.0,0.0,0.0,0.0,0.0,0.0,0.0,0.0,0.0,0.0,0.0,0.0,0.0,0.0,0.0,0.0,0.0,0.0,0.0,0.0,0.0,0.0,0.0,0.0,0.0,0.0,0.0,0.0,0.0,0.0,0.0,0.0,0.0,0.0,0.0,0.0,0.0,0.0,0.0,0.0,0.0,0.0,0.0,0.0,0.0,0.0,0.0,0.0,0.0,0.0,0.0,0.0,0.0,0.0,0.0,0.0,0.0,0.0,0.0,3.4652,3.3046,3.2204,3.2096,3.1172,2.9909,2.8625,0.0,0.0,0.0,0.0,0.0,0.0,0.0,0.0,0.0,0.0,0.0,0.0,0.0,0.0,0.0,0.0,0.0,0.0,0.0,0.0,0.0,0.0,0.0,0.0,0.0,0.0,0.0,0.0,0.0,0.0,0.0,0.0,0.0,0.0,0.0,0.0,0.0,0.0,0.0,0.0,0.0,0.0,0.0,0.0,0.0,0.0,0.0,0.0,0.0,0.0,0.0,0.0,0.0,0.0,0.0,0.0,0.0,0.0,0.0,0.0,0.0,0.0,0.0,0.0,0.0,0.0,0.0,0.0,0.0,0.0,0.0,0.0,0.0,0.0,0.0,0.0,0.0,0.0,0.0,0.0,0.0,0.0,0.0,0.0,0.0,0.0,0.0,0.0,0.0,0.0,0.0,0.0,0.0,0.0,0.0,0.0,0.0,0.0,0.0,0.0,0.0,0.0,0.0,0.0,0.0,0.0,0.0,0.0,3.5159,3.2876,3.1986,3.232,3.0329,2.8824,0.0,0.0,0.0,0.0,0.0,0.0,0.0,0.0,0.0,0.0,0.0,0.0,0.0,0.0,0.0,0.0,0.0,0.0,0.0,0.0,0.0,0.0,0.0,0.0,0.0,0.0,0.0,0.0,0.0,0.0,0.0,0.0,0.0,0.0,0.0,0.0,0.0,0.0,0.0,0.0,0.0,0.0,0.0,0.0,0.0,0.0,0.0,0.0,0.0,0.0,0.0,0.0,0.0,0.0,0.0,0.0,0.0,0.0,0.0,0.0,0.0,0.0,0.0,0.0,0.0,0.0,0.0,0.0,0.0,0.0,0.0,0.0,0.0,0.0,0.0,0.0,0.0,0.0,0.0,0.0,0.0,0.0,0.0,0.0,0.0,0.0,0.0,0.0,0.0,0.0,0.0,0.0,0.0,0.0,0.0,0.0,0.0,0.0,0.0,0.0,0.0,0.0,0.0,0.0,0.0,0.0,0.0,0.0,0.0,3.4486,3.1566,3.042,3.1289,2.8975,2.76,0.0,0.0,0.0,0.0,0.0,0.0,0.0,0.0,0.0,0.0,0.0,0.0,0.0,0.0,0.0,0.0,0.0,0.0,0.0,0.0,0.0,0.0,0.0,0.0,0.0,0.0,0.0,0.0,0.0,0.0,0.0,0.0,0.0,0.0,0.0,0.0,0.0,0.0,0.0,0.0,0.0,0.0,0.0,0.0,0.0,0.0,0.0,0.0,0.0,0.0,0.0,0.0,0.0,0.0,0.0,0.0,0.0,0.0,0.0,0.0,0.0,0.0,0.0,0.0,0.0,0.0,0.0,0.0,0.0,0.0,0.0,0.0,0.0,0.0,0.0,0.0,0.0,0.0,0.0,0.0,0.0,0.0,0.0,0.0,0.0,0.0,0.0,0.0,0.0,0.0,0.0,0.0,0.0,0.0,0.0,0.0,0.0,0.0,0.0,0.0,0.0,0.0,0.0,0.0,0.0,0.0,0.0,0.0,3.383,3.402,3.0926,2.9572,3.0309,2.8212,2.6951,0.0,0.0,0.0,0.0,0.0,0.0,0.0,0.0,0.0,0.0,0.0,0.0,0.0,0.0,0.0,0.0,0.0,0.0,0.0,0.0,0.0,0.0,0.0,0.0,0.0,0.0,0.0,0.0,0.0,0.0,0.0,0.0,0.0,0.0,0.0,0.0,0.0,0.0,0.0,0.0,0.0,0.0,0.0,0.0,0.0,0.0,0.0,0.0,0.0,0.0,0.0,0.0,0.0,0.0,0.0,0.0,0.0,0.0,0.0,0.0,0.0,0.0,0.0,0.0,0.0,0.0,0.0,0.0,0.0,0.0,0.0,0.0,0.0,0.0,0.0,0.0,0.0,0.0,0.0,0.0,0.0,0.0,0.0,0.0,0.0,0.0,0.0,0.0,0.0,0.0,0.0,0.0,0.0,0.0,0.0,0.0,0.0,0.0,0.0,0.0,0.0,0.0,0.0,0.0,0.0,0.0,0.0,0.0,3.3733,3.3557,3.0831,2.926,2.9212,2.7881,2.6998,0.0,0.0,0.0,0.0,0.0,0.0,0.0,0.0,0.0,0.0,0.0,0.0,0.0,0.0,0.0,0.0,0.0,0.0,0.0,0.0,0.0,0.0,0.0,0.0,0.0,0.0,0.0,0.0,0.0,0.0,0.0,0.0,0.0,0.0,0.0,0.0,0.0,0.0,0.0,0.0,0.0,0.0,0.0,0.0,0.0,0.0,0.0,0.0,0.0,0.0,0.0,0.0,0.0,0.0,0.0,0.0,0.0,0.0,0.0,0.0,0.0,0.0,0.0,0.0,0.0,0.0,0.0,0.0,0.0,0.0,0.0,0.0,0.0,0.0,0.0,0.0,0.0,0.0,0.0,0.0,0.0,0.0,0.0,0.0,0.0,0.0,0.0,0.0,0.0,0.0,0.0,0.0,0.0,0.0,0.0,0.0,0.0,0.0,0.0,0.0,0.0,0.0,0.0,0.0,0.0,0.0,0.0,0.0,3.3268,3.1987,3.0179,2.8863,2.831,2.7584,2.6998,0.0,0.0,0.0,0.0,0.0,0.0,0.0,0.0,0.0,0.0,0.0,0.0,0.0,0.0,0.0,0.0,0.0,0.0,0.0,0.0,0.0,0.0,0.0,0.0,0.0,0.0,0.0,0.0,0.0,0.0,0.0,0.0,0.0,0.0,0.0,0.0,0.0,0.0,0.0,0.0,0.0,0.0,0.0,0.0,0.0,0.0,0.0,0.0,-0.9549,0.0,0.0,0.0,0.0,0.0,0.0,0.0,0.0,0.0,0.0,0.0,0.0,0.0,0.0,0.0,0.0,0.0,0.0,0.0,0.0,0.0,0.0,0.0,0.0,0.0,0.0,0.0,0.0,0.0,0.0,0.0,0.0,0.0,0.0,0.0,0.0,0.0,0.0,0.0,0.0,0.0,0.0,0.0,0.0,0.0,0.0,0.0,0.0,0.0,0.0,0.0,0.0,0.0,0.0,0.0,0.0,0.0,0.0,0.0,3.2091,3.1185,2.975,2.8638,2.8014,2.7685,2.7212,0.0,0.0,0.0,0.0,0.0,0.0,0.0,0.0,0.0,0.0,0.0,0.0,0.0,0.0,0.0,0.0,0.0,0.0,0.0,0.0,0.0,0.0,0.0,0.0,0.0,0.0,0.0,0.0,0.0,0.0,0.0,0.0,0.0,0.0,0.0,0.0,0.0,0.0,0.0,0.0,0.0,0.0,0.0,0.0,0.0,0.0,0.0,0.0,0.0,0.0,0.0,0.0,0.0,0.0,0.0,0.0,0.0,0.0,0.0,0.0,0.0,0.0,0.0,0.0,0.0,0.0,0.0,0.0,0.0,0.0,0.0,0.0,0.0,0.0,0.0,0.0,0.0,0.0,0.0,0.0,0.0,0.0,0.0,0.0,0.0,0.0,0.0,0.0,0.0,0.0,0.0,0.0,0.0,0.0,0.0,0.0,0.0,0.0,0.0,0.0,0.0,0.0,0.0,0.0,0.0,0.0,0.0,3.2601,3.117,3.0659,2.9348,2.8446,2.7949,2.7949,2.77,2.7159,0.0,0.0,0.0,0.0,0.0,0.0,0.0,0.0,0.0,0.0,0.0,0.0,0.0,0.0,0.0,0.0,0.0,0.0,0.0,0.0,0.0,0.0,0.0,0.0,0.0,0.0,0.0,0.0,0.0,0.0,0.0,0.0,0.0,0.0,0.0,0.0,0.0,0.0,-0.3781,-0.5318,0.0,0.0,0.0,0.0,0.0,0.0,0.0,0.0,-1.0265,0.0,0.0,0.0,0.0,0.0,0.0,0.0,0.0,0.0,0.0,0.0,0.0,0.0,0.0,0.0,0.0,0.0,0.0,0.0,0.0,0.0,0.0,0.0,0.0,0.0,0.0,0.0,0.0,0.0,0.0,0.0,0.0,0.0,0.0,0.0,0.0,0.0,0.0,0.0,0.0,0.0,0.0,0.0,0.0,0.0,0.0,0.0,0.0,0.0,0.0,0.0,0.0,0.0,0.0,0.0,0.0,3.4466,3.4066,3.2626,3.0322,2.9701,2.9109,2.8401,2.8386,2.8192,2.7803,0.0,0.0,0.0,0.0,0.0,0.0,0.0,0.0,0.0,0.0,0.0,0.0,0.0,0.0,0.0,0.0,0.0,0.0,0.0,0.0,0.0,0.0,0.0,0.0,0.0,0.0,0.0,0.0,0.0,0.0,0.0,0.0,0.0,0.0,0.0,0.0,0.0,0.0,0.0,-0.4482,-0.5321,0.0,0.0,0.0,0.0,0.0,0.0,0.0,0.0,-1.0138,0.0,0.0,0.0,0.0,0.0,0.0,0.0,0.0,0.0,0.0,0.0,0.0,0.0,0.0,0.0,0.0,0.0,0.0,0.0,0.0,0.0,0.0,0.0,0.0,0.0,0.0,0.0,0.0,0.0,0.0,0.0,0.0,0.0,0.0,0.0,0.0,0.0,0.0,0.0,0.0,0.0,0.0,0.0,0.0,0.0,0.0,0.0,0.0,0.0,0.0,0.0,0.0,0.0,0.0,0.0,3.4056,3.2793,3.1381,2.99,2.9592,2.9194,2.8739,2.8739,2.8585,0.0,0.0,0.0,0.0,0.0,0.0,0.0,0.0,0.0,0.0,0.0,0.0,0.0,0.0,0.0,0.0,0.0,0.0,0.0,0.0,0.0,0.0,0.0,0.0,0.0,0.0,0.0,0.0,0.0,0.0,0.0,0.0,0.0,0.0,0.0,0.0,0.0,0.0,0.0,0.0,-0.403,-0.4768,-0.6069,0.0,0.0,0.0,0.0,0.0,0.0,-1.0411,-1.0688,0.0,0.0,0.0,0.0,0.0,0.0,0.0,0.0,0.0,0.0,0.0,0.0,0.0,0.0,0.0,0.0,0.0,0.0,0.0,0.0,0.0,0.0,0.0,0.0,0.0,0.0,0.0,0.0,0.0,0.0,0.0,0.0,0.0,0.0,0.0,0.0,0.0,0.0,0.0,0.0,0.0,0.0,0.0,0.0,0.0,0.0,0.0,0.0,0.0,0.0,0.0,0.0,0.0,0.0,0.0,3.3883,3.169,3.0176,2.9664,2.9523,2.9212,2.8886,2.8886,2.8886,0.0,0.0,0.0,0.0,0.0,0.0,0.0,0.0,0.0,0.0,0.0,0.0,0.0,0.0,0.0,0.0,0.0,0.0,0.0,0.0,0.0,0.0,0.0,0.0,0.0,0.0,0.0,0.0,0.0,0.0,0.0,0.0,0.0,0.0,0.0,0.0,0.0,0.0,0.0,0.0,0.0,-0.4758,-0.5515,-0.6853,0.0,0.0,0.0,0.0,-1.0721,-1.0571,0.0,0.0,0.0,0.0,0.0,0.0,0.0,0.0,0.0,0.0,0.0,0.0,0.0,0.0,0.0,0.0,0.0,0.0,0.0,0.0,0.0,0.0,0.0,0.0,0.0,0.0,0.0,0.0,0.0,0.0,0.0,0.0,0.0,0.0,0.0,0.0,0.0,0.0,0.0,0.0,0.0,0.0,0.0,0.0,0.0,0.0,0.0,0.0,0.0,0.0,0.0,0.0,0.0,0.0,0.0,0.0,3.4751,3.2792,3.1146,3.0129,2.9353,2.8886,2.8886,2.8886,2.8886,0.0,0.0,0.0,0.0,0.0,0.0,0.0,0.0,0.0,0.0,0.0,0.0,0.0,0.0,0.0,0.0,0.0,0.0,0.0,0.0,0.0,0.0,0.0,0.0,0.0,0.0,0.0,0.0,0.0,0.0,0.0,0.0,0.0,0.0,0.0,0.0,0.0,0.0,0.0,0.0,0.0,-0.5518,-0.4979,-0.6187,-0.739,0.0,0.0,-0.8629,-0.8888,-0.8824,0.0,0.0,0.0,0.0,0.0,0.0,0.0,0.0,0.0,0.0,0.0,0.0,0.0,0.0,0.0,0.0,0.0,0.0,0.0,0.0,0.0,0.0,0.0,0.0,0.0,0.0,0.0,0.0,0.0,0.0,0.0,0.0,0.0,0.0,0.0,0.0,0.0,0.0,0.0,0.0,0.0,0.0,0.0,0.0,0.0,0.0,0.0,0.0,0.0,0.0,0.0,0.0,0.0,0.0,0.0,3.501,3.4654,3.2097,3.0438,2.9834,2.9197,2.8886,2.8886,2.8744,2.8588,0.0,0.0,0.0,0.0,0.0,0.0,0.0,0.0,0.0,0.0,0.0,0.0,0.0,0.0,0.0,0.0,0.0,0.0,0.0,0.0,0.0,0.0,0.0,0.0,0.0,0.0,0.0,0.0,0.0,0.0,0.0,0.0,0.0,0.0,0.0,0.0,0.0,0.0,0.0,0.0,0.0,0.0,-0.5504,-0.6267,0.0,0.0,0.0,-0.8501,-0.9156,0.0,0.0,0.0,0.0,0.0,0.0,0.0,0.0,0.0,0.0,0.0,0.0,0.0,0.0,0.0,0.0,0.0,0.0,0.0,0.0,0.0,0.0,0.0,0.0,0.0,0.0,0.0,0.0,0.0,0.0,0.0,0.0,0.0,0.0,0.0,0.0,0.0,0.0,0.0,0.0,0.0,0.0,0.0,0.0,0.0,0.0,0.0,0.0,0.0,0.0,0.0,0.0,0.0,0.0,0.0,0.0,0.0,3.4521,3.1638,2.9974,2.9679,2.9212,2.8886,2.8886,2.8588,0.0,0.0,0.0,0.0,0.0,0.0,0.0,0.0,0.0,0.0,0.0,0.0,0.0,0.0,0.0,0.0,0.0,0.0,0.0,0.0,0.0,0.0,0.0,0.0,0.0,0.0,0.0,0.6941,0.0,0.0,0.0,0.0,0.0,0.0,0.0,0.0,0.0,0.0,0.0,0.0,0.0,0.0,-0.5402,-0.5726,-0.6193,-0.6674,0.0,0.0,-0.8181,-0.8925,-0.8786,-0.9201,0.0,0.0,0.0,0.0,0.0,0.0,0.0,0.0,0.0,0.0,0.0,0.0,0.0,0.0,0.0,0.0,0.0,0.0,0.0,0.0,0.0,0.0,0.0,0.0,0.0,0.0,0.0,0.0,0.0,0.0,0.0,0.0,0.0,0.0,0.0,0.0,0.0,0.0,0.0,0.0,0.0,0.0,0.0,0.0,0.0,0.0,0.0,0.0,0.0,0.0,0.0,0.0,0.0,0.0,3.4581,3.4839,3.1807,3.0144,2.9974,2.9353,2.8886,2.8886,2.8886,2.89,0.0,0.0,0.0,0.0,0.0,0.0,0.0,0.0,0.0,0.0,0.0,0.0,0.0,0.0,0.0,0.0,0.0,0.0,0.0,0.0,0.0,0.0,0.0,0.0,0.0,0.0,0.0,0.0,0.0,0.0,0.0,0.0,0.0,0.0,0.0,0.0,0.0,0.0,0.0,0.0,0.0,-0.5723,-0.5162,-0.5486,-0.5802,0.0,-0.6497,-0.6994,-0.6598,-0.7361,-0.8536,-1.037,0.0,0.0,0.0,0.0,0.0,0.0,0.0,0.0,0.0,0.0,0.0,0.0,0.0,0.0,0.0,0.0,0.0,0.0,0.0,0.0,0.0,0.0,0.0,0.0,0.0,0.0,0.0,0.0,0.0,0.0,0.0,0.0,0.0,0.0,0.0,0.0,0.0,0.0,0.0,0.0,0.0,0.0,0.0,0.0,0.0,0.0,0.0,0.0,0.0,0.0,0.0,0.0,0.0,3.4961,3.4689,3.2187,3.0762,3.0465,3.0348,3.0136,2.9819,2.9453,2.9035,0.0,0.0,0.0,0.0,0.0,0.0,0.0,0.0,0.0,0.0,0.0,0.0,0.0,0.0,0.0,0.0,0.0,0.0,0.0,0.0,0.0,0.0,0.0,0.0,0.0,0.0,0.0,0.0,0.4304,0.3999,0.3383,0.0,0.0,0.0,0.0,0.0,0.0,0.0,0.0,0.0,0.0,-0.5477,-0.5859,-0.6026,0.0,0.0,-0.7095,-0.7617,-0.7944,-0.8563,-0.9435,-1.0628,-1.11,0.0,0.0,0.0,0.0,0.0,0.0,0.0,0.0,0.0,0.0,0.0,0.0,0.0,0.0,0.0,0.0,0.0,0.0,0.0,0.0,0.0,0.0,0.0,0.0,0.0,0.0,0.0,0.0,0.0,0.0,0.0,0.0,0.0,0.0,0.0,0.0,0.0,0.0,0.0,0.0,0.0,0.0,0.0,0.0,0.0,0.0,0.0,0.0,0.0,0.0,0.0,0.0,3.5246,3.4854,3.2569,3.1166,3.0959,3.1189,3.1007,3.0686,3.0286,2.9689,0.0,0.0,0.0,0.0,0.0,0.0,0.0,0.0,0.0,0.0,0.0,0.0,0.0,0.0,0.0,0.0,0.0,0.0,0.0,0.0,0.0,0.0,0.0,0.0,0.0,0.0,0.0,0.0,0.3925,0.3613,0.2983,0.0,0.0,0.0,0.0,0.0,0.0,0.0,0.0,0.0,0.0,-0.5701,-0.6571,-0.6759,-0.7087,-0.7385,-0.8015,-0.8725,-0.9162,-0.9962,-1.0683,-1.1555,0.0,0.0,0.0,0.0,0.0,0.0,0.0,0.0,0.0,0.0,0.0,0.0,0.0,0.0,0.0,0.0,0.0,0.0,0.0,0.0,0.0,0.0,0.0,0.0,0.0,0.0,0.0,0.0,0.0,0.0,5.7557,0.0,0.0,0.0,0.0,0.0,0.0,0.0,0.0,0.0,0.0,0.0,0.0,0.0,0.0,0.0,0.0,0.0,0.0,0.0,0.0,0.0,0.0,3.5362,3.6089,3.2986,3.1448,3.176,3.1487,3.1182,3.1182,3.1152,3.0991,3.051,0.0,0.0,0.0,0.0,0.0,0.0,0.0,0.0,0.0,0.0,0.0,0.0,0.0,0.0,0.0,0.0,0.0,0.0,0.0,0.0,0.0,0.0,0.0,0.0,0.0,0.0,0.4397,0.3299,0.2517,0.0,0.0,0.0,0.0,0.0,0.0,0.0,0.0,0.0,0.0,-0.6387,-0.6574,-0.7136,-0.7701,-0.8057,-0.845,-0.9259,-0.9978,-0.9915,-1.1055,-1.2453,0.0,0.0,0.0,0.0,0.0,0.0,0.0,0.0,0.0,0.0,0.0,0.0,0.0,0.0,0.0,0.0,0.0,0.0,0.0,0.0,0.0,0.0,0.0,0.0,0.0,0.0,0.0,6.2414,6.1203,0.0,0.0,0.0,0.0,0.0,0.0,0.0,0.0,0.0,0.0,0.0,5.0383,5.0254,0.0,0.0,0.0,0.0,0.0,0.0,0.0,0.0,0.0,0.0,0.0,0.0,3.5616,3.5309,3.3346,3.233,3.2133,3.2529,3.2655,3.2313,3.1772,3.1073,3.0042,0.0,0.0,0.0,0.0,0.0,0.0,0.0,0.0,0.0,0.0,0.0,0.0,0.0,0.0,0.0,0.0,0.0,0.0,0.0,0.0,0.0,0.0,0.0,0.0,0.0,0.5305,0.0,0.0,0.0,0.0,0.0,0.0,0.0,0.0,0.0,0.0,0.0,-0.6364,-0.6931,-0.6941,-0.6973,-0.7383,-0.7921,-0.8265,0.0,0.0,0.0,0.0,0.0,0.0,0.0,0.0,0.0,0.0,0.0,0.0,0.0,0.0,-1.5015,-1.3733,-1.3845,-1.412,-1.4064,0.0,0.0,0.0,0.0,0.0,0.0,0.0,0.0,0.0,0.0,0.0,0.0,0.0,0.0,6.2932,0.0,6.2122,0.0,0.0,0.0,0.0,0.0,0.0,0.0,0.0,5.1739,5.0995,5.0428,5.0806,5.0751,0.0,4.7916,4.6467,0.0,0.0,0.0,0.0,0.0,0.0,0.0,0.0,3.6022,3.5712,3.3881,3.2854,3.2817,3.3201,3.3328,3.2983,3.2289,3.1523,3.0528,2.8058,2.7197,0.0,0.0,0.0,0.0,0.0,0.0,0.0,0.0,0.0,0.0,0.0,0.0,0.0,0.0,0.0,0.0,0.0,0.0,0.0,0.0,0.0,0.0,0.0,0.5204,0.0,0.0,0.0,0.0,0.0,0.0,0.0,0.0,0.0,-0.6543,-0.6584,-0.6984,-0.7592,-0.7608,-0.7808,-0.8402,0.0,0.0,0.0,0.0,0.0,0.0,0.0,-1.4477,-1.6245,-1.6366,-1.6187,-1.5796,-1.5522,-1.5257,-1.552,0.0,0.0,-1.4384,-1.4326,-1.4603,-1.4687,-1.4985,-1.5117,-1.4893,-1.5163,-1.5328,0.0,0.0,0.0,0.0,0.0,0.0,0.0,0.0,6.3238,6.2439,0.0,6.2445,0.0,0.0,0.0,0.0,0.0,5.8263,0.0,0.0,5.1946,5.0857,4.9841,5.0845,5.0913,4.9909,4.7813,4.663,4.5997,4.3718,0.0,0.0,0.0,0.0,0.0,0.0,3.6567,3.7046,3.4548,3.3305,3.346,3.3476,3.3492,3.3492,3.267,3.2022,3.1538,2.8703,2.6913,2.6639,2.4661,0.0,0.0,0.0,0.0,0.0,0.0,0.0,0.0,0.0,0.0,0.0,0.0,0.0,0.0,0.0,0.0,0.0,0.0,0.0,0.0,0.6022,0.0,0.0,0.0,0.0,0.0,0.0,0.0,0.0,0.0,0.0,-0.6977,-0.6801,-0.7183,-0.8187,0.0,0.0,0.0,0.0,-1.1412,-1.1652,-1.2594,-1.3326,-1.3707,-1.4543,-1.5227,-1.5732,0.0,0.0,-1.4996,-1.3944,-1.3043,-1.2919,-1.4876,-1.6401,-1.6181,-1.5599,-1.5225,-1.5371,-1.5337,-1.5411,-1.5554,-1.5685,-1.5869,7.51,0.0,0.0,0.0,0.0,7.0825,6.9219,6.6933,6.5464,6.4224,6.3109,6.3659,0.0,0.0,0.0,0.0,0.0,0.0,5.5717,5.3598,5.3657,5.296,5.1423,5.1854,5.1743,5.0925,4.7865,4.6371,4.6065,4.3226,4.1542,4.1142,0.0,0.0,0.0,0.0,3.7922,3.6904,3.5468,3.4343,3.3476,3.3492,3.3312,3.2999,3.2505,3.1963,3.1512,2.8827,2.7278,2.72,2.5361,0.0,0.0,0.0,0.0,0.0,0.0,0.0,0.0,0.0,0.0,0.0,0.0,0.0,0.0,0.0,0.0,0.0,0.0,0.0,0.6303,0.4403,0.2537,0.0,0.0,0.0,0.0,0.0,0.0,0.0,0.0,0.0,-0.8999,-0.8658,-0.868,0.0,0.0,-0.9907,-1.0465,-1.0848,-1.1036,-1.1533,-1.1914,0.0,-1.3813,-1.4331,-1.5031,-1.6427,-1.6152,-1.5848,-1.6018,-1.5379,-1.5074,-1.5742,-1.6212,-1.6478,-1.6993,-1.6805,-1.6543,-1.6172,-1.6212,-1.6259,-1.6054,-1.6179,-1.633,7.6792,7.5879,7.4904,7.3721,7.2414,7.1754,7.0144,6.7837,6.6213,6.5085,6.4468,6.4597,6.4183,6.3438,6.3083,0.0,0.0,0.0,5.5456,5.3531,5.3824,5.3173,5.1875,5.2167,5.1778,5.0523,4.7981,4.6622,4.61,4.3784,4.2858,4.3022,0.0,0.0,4.0715,3.9467,3.8471,3.7436,3.5882,3.4701,3.3889,3.3762,3.3368,3.269,3.2416,3.2024,3.1482,2.8978,2.763,2.7435,2.558,2.4578,0.0,0.0,0.0,0.0,0.0,0.0,0.0,0.0,0.0,0.0,0.0,1.3036,1.303,0.0,0.0,0.0,0.8498,0.6596,0.4518,0.3457,0.0,0.0,0.0,0.0,0.0,0.0,0.0,-0.6989,-0.8383,-0.9463,-1.0097,-0.9935,-0.9935,-1.0112,-1.0342,-1.058,-1.1341,0.0,-1.1542,-1.213,-1.2315,-1.2849,-1.3925,-1.4283,-1.4798,-1.5801,-1.6064,-1.6117,-1.6474,-1.6347,-1.673,-1.7397,-1.7767,-1.7955,-1.8082,-1.8522,-1.8284,-1.6966,-1.6667,-1.6742,-1.6441,-1.6578,-1.6733,7.8145,7.7976,7.5556,7.3838,7.247,7.1026,6.9435,6.7915,6.6101,6.5551,6.594,6.5381,6.4814,6.4009,6.3148,0.0,5.9121,5.7696,5.5755,5.3305,5.3164,5.2477,5.1599,5.2167,5.137,4.9462,4.8338,4.7203,4.616,4.4957,4.4567,4.4803,4.2913,4.1736,4.1308,3.959,3.8647,3.8483,3.5991,3.4678,3.4493,3.4207,3.3531,3.2663,3.2751,3.2251,3.1526,2.9523,2.8008,2.7448,2.575,2.4578,2.4235,0.0,0.0,0.0,0.0,0.0,0.0,0.0,0.0,0.0,0.0,0.0,0.0,0.0,0.0,0.0,0.5917,0.0,0.2963,0.2788,0.0,0.0,0.0,-0.3136,-0.2963,-0.6268,-0.7864,-0.6706,0.0,0.0,-1.0728,-1.0743,-1.0921,-1.0921,-1.0931,-1.1152,-1.2339,-1.2548,-1.2595,-1.3242,-1.3638,-1.401,-1.4003,-1.4564,-1.4881,-1.4764,-1.5427,-1.6247,-1.644,-1.7279,-1.7912,-1.837,-1.94,-2.0007,-1.9475,-2.0236,-2.0149,-1.7636,-1.7154,-1.696,-1.6924,-1.7074,-1.7065,7.9567,7.9264,7.7884,7.6776,7.5803,7.3534,7.1529,6.9934,6.9054,6.7722,6.6072,6.6432,6.604,6.5141,6.4156,6.2174,5.9416,5.8595,5.6849,5.4432,5.4174,5.3772,5.3387,5.3211,5.2379,5.091,4.9239,4.7875,4.7094,4.5284,4.4249,4.4015,4.35,4.3241,4.308,4.1019,3.9468,3.8483,3.6826,3.5504,3.4493,3.443,3.4045,3.3522,3.3228,3.2723,3.1855,3.0869,2.9215,2.7448,2.6431,2.5251,2.4235,2.4407,0.0,0.0,0.0,0.0,0.0,0.0,0.0,0.0,0.0,1.3146,1.2792,0.0,1.1084,0.0,0.5692,0.3741,0.3563,0.3185,0.0,0.0,-0.2653,-0.4769,-0.4451,-0.676,-0.8365,-0.8029,-0.9988,-1.1422,-1.181,-1.181,-1.1988,-1.2343,-1.2073,-1.2321,-1.3251,-1.3169,-1.3236,-1.3638,-1.4016,-1.4048,-1.4336,-1.5455,-1.5993,-1.5046,-1.6757,-1.7861,-1.6789,-1.7646,-1.8769,-1.914,-1.9571,-1.9836,-2.0358,-2.0584,-2.0523,-1.9824,-1.9105,-1.8389,-1.792,-1.7743,-1.7743,7.9801,7.9562,7.8816,7.8103,7.7252,7.5386,7.3323,7.1154,7.0024,6.885,6.7788,6.7211,6.6216,6.508,6.436,6.2571,5.993,5.9256,5.7571,5.5227,5.4784,5.4401,5.3992,5.3587,5.2381,5.0569,4.9201,4.7969,4.6663,4.5449,4.4918,4.4623,4.4381,4.3874,4.2969,4.0987,3.9331,3.8177,3.6675,3.5654,3.4798,3.4656,3.4406,3.3707,3.3384,3.2707,3.1675,3.0241,2.8703,2.7132,2.6105,2.5199,2.4247,2.4511,2.4523,0.0,0.0,0.0,0.0,0.0,0.0,0.0,0.0,0.0,0.0,0.0,1.0308,0.7513,0.4841,0.3231,0.2693,0.25,0.1784,0.0897,-0.2678,-0.5352,-0.5923,-0.7531,-0.8599,-0.8952,-1.0382,-1.1654,-1.1883,-1.1894,-1.209,-1.2687,-1.2624,-1.2865,-1.3362,-1.3594,-1.3682,-1.4164,-1.4382,-1.4593,-1.4679,-1.5617,-1.596,-1.5348,-1.6544,-1.7507,-1.679,-1.7649,-1.8653,-1.9156,-1.9737,-2.0211,-2.0865,-2.1484,-2.1573,-2.1248,-2.0813,-2.0116,-1.9316,-1.9248,-1.9248,7.9455,7.9418,7.8969,7.8263,7.7356,7.6459,7.4614,7.1883,7.0129,6.9574,6.991,6.8114,6.6395,6.4781,6.4656,6.3053,6.0552,5.9869,5.8321,5.6021,5.5344,5.4804,5.429,5.3566,5.1915,4.9405,4.8799,4.7639,4.5927,4.583,4.5715,4.5698,4.533,4.4139,4.2178,4.0536,3.8854,3.7291,3.6269,3.5399,3.505,3.5083,3.4768,3.3889,3.3582,3.2714,3.1138,2.9082,2.756,2.6722,2.5832,2.5043,2.435,2.4673,2.4523,0.0,2.2026,0.0,0.0,0.0,0.0,0.0,0.0,0.0,0.0,1.1266,0.8943,0.5912,0.3947,0.2515,0.1617,0.1436,0.0898,-0.0,-0.2512,-0.5204,-0.7366,-0.825,-0.8778,-0.9313,-1.0575,-1.152,-1.1612,-1.165,-1.1881,-1.2512,-1.2788,-1.3014,-1.3327,-1.3694,-1.398,-1.4397,-1.4805,-1.5153,-1.5355,-1.5341,-1.548,-1.5204,-1.6265,-1.675,-1.6962,-1.7664,-1.8544,-1.9186,-2.0102,-2.095,-2.1334,-2.2267,-2.2791,-2.2231,-2.1984,-2.1635,-2.0864,-2.0554,-2.0635,7.9618,7.9768,7.899,7.7829,7.6427,7.5515,7.4139,7.2688,7.1783,7.091,7.0037,6.9257,6.8012,6.6635,6.6726,6.4798,6.1591,6.0809,5.9435,5.7687,5.5619,5.4977,5.5435,5.3394,5.1836,5.0403,4.8894,4.7697,4.6727,4.6433,4.5984,4.5739,4.5604,4.4058,4.1378,0.0,0.0,0.0,3.5748,3.5573,3.5399,3.551,3.5304,3.4766,3.4894,0.0,3.1453,2.8645,2.7279,2.7334,2.6624,0.0,0.0,0.0,0.0,0.0,0.0,0.0,0.0,0.0,0.0,0.0,1.4115,1.3053,1.1799,0.8587,0.6448,0.5733,0.3949,0.2874,0.2694,0.1257,0.018,-0.0,-0.2511,-0.5383,-0.8086,-0.879,-0.9139,-0.9317,-1.0286,-1.1246,-1.1459,-1.2079,-1.2512,-1.2919,-1.348,-1.3713,-1.3431,-1.3709,-1.4177,-1.4798,-1.5181,-1.5368,-1.5751,-1.6204,-1.6175,-1.5839,-1.725,-1.8267,-1.7676,-1.8209,-1.9545,-2.0553,-2.094,-2.1107,-2.2236,-2.2898,-2.2866,-2.2813,-2.2802,-2.2426,-2.0945,-2.0635,-2.0635,8.0127,8.0318,7.9627,7.8434,0.0,7.5805,7.4539,7.3416,7.2238,7.1147,6.9991,6.9546,6.8753,6.7481,6.7419,6.5716,6.2673,6.2069,6.0695,5.8584,5.7156,5.6325,5.6221,5.4399,5.2727,5.1131,4.9541,4.8294,4.7358,4.7072,4.6741,4.6061,4.546,4.3802,4.0619,3.8907,3.7111,3.5573,3.5573,3.5573,3.5573,3.5573,3.5399,3.4875,3.4972,0.0,0.0,0.0,0.0,0.0,0.0,0.0,0.0,2.4994,0.0,2.3753,2.1126,1.9587,1.9505,1.658,1.4907,1.4999,1.304,1.1444,1.0377,0.752,0.5557,0.5022,0.3769,0.2874,0.2874,0.1976,0.1077,-0.0,-0.1256,-0.3766,-0.7721,-0.8794,-0.9143,-0.9683,-1.0301,-1.1113,-1.1352,-1.1824,-1.2287,-1.272,-1.2917,-1.3121,-1.3186,-1.3952,-1.4538,-1.5167,-1.5181,-1.5368,-1.5556,-1.5874,-1.6011,-1.5528,-1.642,-1.6926,-1.6547,-1.6918,-1.7596,-1.8317,-1.9059,-1.9848,-2.1025,-2.2056,-2.2839,-2.292,-2.3149,-2.2845,-2.1947,-2.165,-2.164,8.0763,8.0752,8.0419,7.9382,7.77,7.6673,7.5149,7.3466,0.0,0.0,0.0,6.9654,6.882,6.8001,6.7568,6.605,6.375,6.3023,6.1513,5.9327,5.8552,5.775,5.6633,5.5076,5.3283,5.1555,4.9958,4.8709,4.7817,4.765,4.7147,4.6494,4.5346,4.3251,4.026,3.7309,3.5939,3.5748,3.5637,3.5573,3.5573,3.5573,3.5415,3.505,3.4731,3.3293,3.0753,2.9389,2.8029,2.6701,2.6486,2.6021,2.4966,2.4924,2.4576,2.3358,2.0942,1.959,1.9258,1.672,1.504,1.4907,1.1861,0.989,0.9156,0.6825,0.5219,0.433,0.343,0.289,0.271,0.2885,0.2162,-0.0,-0.0,-0.1972,-0.6637,-0.8254,-0.8786,-0.9509,-1.0325,-1.0972,-1.1059,-1.1748,-1.2053,-1.214,-1.2339,-1.255,-1.3104,-1.3971,-1.4699,-1.4785,-1.4805,-1.4993,-1.5181,-1.5181,-1.5181,-1.5181,-1.5181,-1.5181,-1.5368,-1.5181,-1.5362,-1.6212,-1.7102,-1.844,-1.9616,-2.1292,-2.2569,-2.2909,-2.3016,-2.3026,-2.2642,-2.2514,-2.2481,8.0951,8.1176,8.095,7.9523,7.7436,7.7765,7.5651,7.1978,7.1586,7.1288,7.108,6.9854,6.9001,6.8284,6.7437,6.6116,6.4217,6.2624,6.1311,6.0429,5.8303,5.7343,5.7123,5.3989,5.2195,5.1394,4.9139,4.79,4.7766,4.7277,4.7107,4.6826,4.559,4.3236,4.0186,3.8052,3.682,3.6447,3.5875,3.5573,3.5573,3.5573,3.5573,3.5399,3.4859,3.3601,3.1287,3.0315,2.868,2.6411,2.603,2.5635,2.4889,2.4744,2.3998,2.2678,2.0683,1.9305,1.8741,1.6234,1.4699,1.4679,1.193,0.9885,0.8722,0.6181,0.4566,0.442,0.3498,0.2581,0.1843,0.2378,0.2002,-0.0,-0.0,-0.0,-0.2692,-0.6105,-0.8445,-0.8433,-0.9476,-1.0687,-1.1095,-1.1631,-1.214,-1.2167,-1.2361,-1.2928,-1.3305,-1.367,-1.3852,-1.4052,-1.4241,-1.4617,-1.4993,-1.5181,-1.5181,-1.5181,-1.5181,-1.5368,-1.5563,-1.5368,-1.5702,-1.705,-1.7612,-1.8759,-2.0393,-2.164,-2.2226,-2.2505,-2.2536,-2.2298,-2.1874,-2.1822,-2.2168,8.3053,8.2971,8.2387,8.1206,7.957,7.8435,7.5924,7.286,7.2505,7.1659,7.0578,6.9454,6.8894,6.8527,6.781,6.6426,6.4745,6.37,6.2228,6.0505,5.9123,5.8253,5.7242,5.4394,5.2827,5.2176,4.9741,4.8516,4.8413,4.8108,4.7882,4.7539,4.4819,4.2013,3.9368,3.7696,3.6786,3.659,3.6288,3.613,3.613,3.613,3.5952,3.5775,3.5404,3.4052,3.1374,3.0807,2.9299,2.6482,2.6194,2.5808,2.4807,2.4718,2.3978,2.2606,2.0955,1.963,1.8425,1.6236,1.4644,1.4016,1.1614,0.9784,0.8508,0.5897,0.4422,0.4442,0.3518,0.2776,0.2222,0.166,0.1288,0.1656,0.0732,-0.0546,-0.2174,-0.5091,-0.7282,-0.7978,-0.9198,-1.024,-1.0796,-1.1314,-1.1983,-1.2172,-1.2361,-1.255,-1.2928,-1.2928,-1.3116,-1.3682,-1.4059,-1.4422,-1.4805,-1.4993,-1.5181,-1.5181,-1.5181,-1.5368,-1.5563,-1.5375,-1.5528,-1.6197,-1.6796,-1.7928,-1.9644,-2.0619,-2.154,-2.2357,-2.2431,-2.2039,-2.1894,-2.1649,-2.1822,8.4837,8.4334,8.3812,8.2895,8.1697,7.8791,7.6318,7.4315,7.3593,7.2099,7.0162,6.9196,6.8924,6.8904,6.7683,6.6452,6.5244,6.4209,6.2527,6.0549,5.9815,5.896,5.7363,5.4812,5.3318,5.268,5.0379,4.9024,4.8972,4.8932,4.837,4.7383,4.4046,4.1058,3.8613,3.7366,3.6845,3.6845,3.6845,3.6765,3.6606,3.659,3.6427,3.6052,3.5872,3.4442,3.1429,3.1221,2.9663,2.6576,2.6565,2.6017,2.509,2.509,2.4345,2.2697,2.1161,1.9689,1.7679,1.6068,1.4633,1.3561,1.151,0.9879,0.845,0.5987,0.4473,0.4287,0.3545,0.2984,0.2796,0.1488,0.0929,0.2044,0.0927,-0.0553,-0.2198,-0.4604,-0.6644,-0.7703,-0.8909,-0.9937,-1.0516,-1.1157,-1.16,-1.2178,-1.2172,-1.1983,-1.1983,-1.1983,-1.2361,-1.2928,-1.3676,-1.4046,-1.4234,-1.4429,-1.4617,-1.4993,-1.4811,-1.4811,-1.4811,-1.4993,-1.4993,-1.4966,-1.561,-1.6582,-1.7895,-1.9086,-2.0187,-2.1154,-2.1349,-2.1545,-2.1526,-2.1302,-2.1128,8.4485,8.4194,8.4455,8.395,8.2586,7.9398,7.6941,7.5414,7.4229,7.2658,7.0679,6.9656,6.9436,6.9474,6.6619,6.5389,6.5499,6.3113,6.1634,6.0812,5.974,5.8643,5.7387,5.451,5.3011,5.268,5.04,4.9036,4.9086,4.8607,4.7406,4.5574,4.3524,4.1188,3.8843,3.7911,3.756,3.7575,3.7575,3.7258,3.6638,3.659,3.6606,3.659,3.6083,3.4638,3.1805,3.1402,2.9755,2.7009,2.7021,2.6825,2.6087,2.5891,2.4769,2.234,2.0682,1.8798,1.5962,1.5568,1.5113,1.4222,1.193,1.0045,0.892,0.6651,0.4755,0.3993,0.3423,0.3039,0.3041,0.2264,0.1502,0.0751,0.0186,-0.0,-0.0925,-0.444,-0.722,-0.7207,-0.876,-1.0128,-1.0894,-1.1162,-1.16,-1.1994,-1.1799,-1.1416,-1.1421,-1.1416,-1.1605,-1.1794,-1.2167,-1.2922,-1.3864,-1.3676,-1.3676,-1.4241,-1.4052,-1.4059,-1.4059,-1.4241,-1.4429,-1.4416,-1.4892,-1.5704,-1.6177,-1.6826,-1.8099,-1.9178,-1.9646,-1.9962,-2.0501,-2.0434,-2.0434,8.5648,8.5285,8.4435,8.3224,8.1713,7.9866,7.7802,7.5803,7.5572,7.4102,7.1934,7.0992,7.0334,6.9706,6.7285,6.6083,6.5555,6.3931,6.2143,6.0505,5.9786,5.8434,5.6084,5.402,5.2814,5.2097,5.0291,4.9425,4.9291,4.8932,4.8267,4.7117,4.4435,4.1281,3.8343,3.7823,3.7671,3.7671,3.7671,3.7623,3.7544,3.7337,3.7043,3.6861,3.6876,3.541,3.2351,3.1941,3.0373,2.7283,2.7085,2.6911,2.6352,2.5978,2.4844,2.2397,1.9837,1.7596,1.5863,1.5669,1.5182,1.3804,1.1884,1.0163,0.8439,0.6499,0.4969,0.4418,0.3829,0.3434,0.3051,0.285,0.2465,0.1706,0.0756,-0.0188,-0.0934,-0.3547,-0.5784,-0.6721,-0.805,-0.9219,-1.0206,-1.0819,-1.1227,-1.1421,-1.1232,-1.1037,-1.1037,-1.1227,-1.1605,-1.1794,-1.1794,-1.2361,-1.3493,-1.3493,-1.3487,-1.4052,-1.4059,-1.3682,-1.3682,-1.4059,-1.4241,-1.4052,-1.4558,-1.5224,-1.6059,-1.6651,-1.7583,-1.8032,-1.8644,-1.9088,-1.96,-1.9921,-2.0085,8.6413,8.5766,8.409,8.2717,8.1579,8.0431,7.8478,7.6395,7.664,7.5216,7.2835,7.1998,7.0991,6.9418,6.7717,6.6604,6.5855,6.456,6.27,6.0478,6.0105,5.8271,5.5486,5.4101,5.2946,5.1895,5.0603,4.9814,4.9673,4.9203,4.8973,4.839,4.5151,4.1419,3.8175,3.7702,3.7814,3.783,3.7893,3.8084,3.8259,3.7988,3.7628,3.7241,3.7348,3.582,3.2329,3.2301,3.0903,2.7545,2.7345,2.7169,2.6616,2.585,2.4325,2.1867,1.9134,1.7071,1.6251,1.6048,1.5133,1.3333,1.1766,1.0025,0.7883,0.6314,0.5356,0.4614,0.4213,0.3815,0.3434,0.3243,0.3052,0.2671,0.1336,0.038,-0.0944,-0.2827,-0.4901,-0.698,-0.7928,-0.8504,-0.95,-1.0086,-1.0659,-1.0853,-1.0664,-1.0465,-1.0654,-1.0848,-1.1037,-1.1416,-1.1227,-1.1605,-1.2928,-1.255,-1.2922,-1.3299,-1.3299,-1.2928,-1.3305,-1.3682,-1.3864,-1.3487,-1.3864,-1.4222,-1.4326,-1.5469,-1.678,-1.7238,-1.7828,-1.8717,-1.9066,-1.9397,-1.9388,8.589,8.4951,8.3013,8.2473,8.2898,8.0802,7.9012,7.7224,7.6936,7.5334,7.3211,7.254,7.1404,6.9719,6.7502,6.6601,6.657,6.4165,6.2391,6.1396,6.0507,5.8663,5.6295,5.4953,5.3593,5.2261,5.0889,5.0121,4.9733,4.9203,4.8934,4.8535,4.5132,4.1419,3.8391,3.8143,3.8179,3.8195,3.8433,3.864,3.8624,3.8354,3.8179,3.7992,3.7459,3.5635,3.2915,3.2315,3.0808,2.8186,2.8186,2.7807,2.7249,2.5894,2.3587,2.0333,1.8545,1.7385,1.6672,1.6055,1.4945,1.3158,1.1574,1.0003,0.7855,0.6681,0.5725,0.4774,0.4588,0.4391,0.3815,0.3434,0.2671,0.1907,0.2479,0.1716,0.0191,-0.19,-0.4761,-0.7242,-0.7999,-0.8372,-0.8944,-0.9517,-0.9901,-1.0095,-1.009,-0.9901,-0.9522,-0.9711,-1.009,-1.028,-1.028,-1.0469,-1.1794,-1.1605,-1.1416,-1.1978,-1.2167,-1.1794,-1.2361,-1.2928,-1.2739,-1.2928,-1.3116,-1.311,-1.2727,-1.3222,-1.4593,-1.5906,-1.7632,-1.8505,-1.832,-1.8909,-1.8891,8.536,8.3831,8.2646,8.187,8.1186,8.0322,7.8699,7.6664,7.7061,7.5831,7.3814,7.357,7.2651,7.0699,6.916,6.7733,6.6371,6.4214,6.2684,6.1565,6.0209,5.807,5.5235,5.4364,5.3169,5.1681,5.086,5.0193,4.9529,4.8789,4.803,4.7246,4.5019,4.2104,3.9649,3.9169,3.8906,3.8529,3.864,3.8799,3.8989,3.8688,3.8608,3.8799,3.7881,3.5911,3.2606,3.2592,3.1463,2.8666,2.8475,2.8284,2.7901,2.5753,2.3033,2.0124,1.8616,1.7444,1.6786,1.5309,1.4006,1.2864,1.0647,0.9088,0.7742,0.6725,0.5937,0.5606,0.5211,0.4996,0.4583,0.3815,0.2671,0.2098,0.1907,0.1716,0.0571,-0.1517,-0.3594,-0.4947,-0.6672,-0.8193,-0.8189,-0.8569,-0.8948,-0.8952,-0.8948,-0.8948,-0.9138,-0.9517,-0.9901,-1.028,-1.0469,-1.0469,-1.0469,-1.0469,-1.0469,-1.1037,-1.1416,-1.1416,-1.1605,-1.1983,-1.1983,-1.2172,-1.2361,-1.2356,-1.1972,-1.2881,-1.3902,-1.5935,-1.7657,-1.7973,-1.7478,-1.8034,-1.7983,8.4603,8.3177,8.211,8.1262,8.023,7.987,7.8393,7.6559,7.7093,7.6121,7.4327,7.4286,7.3026,7.0987,6.9791,6.8279,6.6269,6.4463,6.3028,6.1949,6.0456,5.8066,5.5392,5.4662,5.3364,5.1481,5.0821,5.0256,4.9762,4.9062,4.7998,4.6635,4.475,4.2706,4.0469,3.9558,3.9243,3.8878,3.8974,3.9164,3.9323,3.9037,3.8575,3.8286,3.7663,3.5855,3.2924,3.2803,3.1482,2.9139,2.8753,2.8319,2.7067,2.4914,2.2564,2.0029,1.8457,1.7466,1.7048,1.5138,1.343,1.2531,1.0482,0.871,0.7766,0.6911,0.6342,0.6,0.5631,0.5401,0.5183,0.4215,0.3253,0.2481,0.2098,0.1907,0.1716,0.0189,-0.1137,-0.2474,-0.5337,-0.7052,-0.7433,-0.7813,-0.7999,-0.8189,-0.8185,-0.8375,-0.8565,-0.9138,-0.9522,-0.9901,-0.9896,-0.9707,-0.9517,-0.9138,-0.9711,-1.0275,-1.0654,-1.0659,-1.0853,-1.1227,-1.1227,-1.1421,-1.1421,-1.1416,-1.1778,-1.2688,-1.4261,-1.6125,-1.7294,-1.7772,-1.737,-1.729,-1.7242,8.3571,8.3045,8.1734,8.091,8.0322,7.9647,7.8579,7.7356,7.721,7.6085,7.4515,7.4364,7.2833,7.0215,6.9509,6.8235,6.64,6.4587,6.3552,6.2932,6.1014,5.8694,5.621,5.5861,5.4272,5.1821,5.1166,5.0795,5.0238,4.9807,4.8473,4.6108,4.4868,4.2778,4.0043,3.9642,3.9228,3.9275,3.9514,3.9704,3.972,3.9403,3.8457,3.7057,3.6564,3.5485,3.3653,3.2318,3.0971,2.9225,2.8994,2.7307,2.4751,2.3551,2.1995,1.9643,1.8267,1.787,1.7452,1.5532,1.3632,1.2547,1.0868,0.9056,0.7876,0.7071,0.6303,0.5761,0.5599,0.542,0.542,0.5031,0.4241,0.325,0.3055,0.3052,0.3051,0.3051,0.2288,-0.0191,-0.3624,-0.6109,-0.6865,-0.7052,-0.7242,-0.7619,-0.7619,-0.7619,-0.7809,-0.8189,-0.8379,-0.8569,-0.8569,-0.8759,-0.8379,-0.8189,-0.8759,-0.9328,-0.9707,-0.9901,-1.0469,-1.0659,-1.0469,-1.0659,-1.0659,-1.0659,-1.159,-1.25,-1.3765,-1.5306,-1.6521,-1.7365,-1.6946,-1.6522,-1.6461,8.344,8.3045,8.1734,8.0907,8.0619,7.9717,7.8938,7.8065,7.7385,7.6225,7.5116,7.4935,7.3408,7.1251,7.0422,6.9004,6.6636,6.5107,6.4179,6.3375,6.1394,5.9378,5.7689,5.6532,5.4775,5.2518,5.165,5.1276,5.0447,4.9104,4.7327,4.5852,4.4078,4.2307,4.0558,4.0094,3.9965,3.9609,3.9704,3.9768,3.9768,3.9657,3.88,3.7192,3.6123,3.4549,3.2692,3.1986,3.0916,2.9284,2.9103,2.7513,2.4566,2.3355,2.1995,1.9651,1.8663,1.8259,1.784,1.5138,1.3268,1.2607,1.0131,0.8146,0.7759,0.6911,0.6333,0.6008,0.6048,0.6056,0.5861,0.5471,0.4862,0.4241,0.3832,0.3624,0.3434,0.2862,0.1716,0.0191,-0.2288,-0.4194,-0.4956,-0.553,-0.6482,-0.7052,-0.6859,-0.6669,-0.7049,-0.7433,-0.7809,-0.7809,-0.7809,-0.7809,-0.7809,-0.7619,-0.7999,-0.8379,-0.8759,-0.9332,-0.9901,-0.9901,-0.9711,-0.9711,-0.9901,-1.0275,-1.1207,-1.23,-1.356,-1.4659,-1.5881,-1.6022,-1.5625,-1.5737,-1.5818,8.3177,8.2678,8.1739,8.1104,8.0759,7.9761,7.9066,7.8478,7.7353,7.6161,7.5374,7.4914,7.3488,7.1419,7.0445,6.8795,6.6601,6.5196,6.4408,6.3964,6.1922,6.0136,5.812,5.5969,5.4024,5.2454,5.2034,5.1529,5.0561,4.8767,4.7221,4.5676,4.3921,4.2101,4.0546,4.0319,4.0141,3.9768,3.9768,3.9768,3.9768,3.9768,3.876,3.6765,3.5564,3.3878,3.1726,3.1163,3.0627,2.9526,2.8694,2.6856,2.4268,2.3209,2.1603,1.9849,1.8853,1.8457,1.7848,1.4934,1.3066,1.2607,0.9937,0.7931,0.7752,0.6911,0.6755,0.6229,0.6286,0.6313,0.6114,0.5896,0.548,0.4671,0.442,0.42,0.4006,0.3432,0.267,0.1716,0.0381,-0.1143,-0.2477,-0.4004,-0.5339,-0.6101,-0.6288,-0.6098,-0.6482,-0.6862,-0.7052,-0.7239,-0.7239,-0.7239,-0.7239,-0.7239,-0.7049,-0.7429,-0.7809,-0.8573,-0.9146,-0.8763,-0.8569,-0.8759,-0.8759,-0.9138,-0.9883,-1.1898,-1.3343,-1.4274,-1.4984,-1.5668,-1.5773,-1.535,-1.5476,8.2842,8.213,8.1709,8.1309,8.088,7.9746,7.9041,7.8566,7.7024,7.5981,7.5221,7.4268,7.2885,7.0988,6.9756,6.8086,6.6162,6.5298,6.4552,6.3808,6.2305,6.0523,5.7804,5.5065,5.332,5.2343,5.2208,5.1586,5.0628,4.9125,4.7831,4.5754,4.3803,4.2177,4.0692,3.9979,3.9768,3.9768,3.9768,3.9768,3.9768,3.9768,3.8369,3.5366,3.4983,3.3574,3.0962,3.0331,3.0033,2.9591,2.7935,2.6099,2.4264,2.2482,2.0852,1.9462,1.8853,1.8259,1.7232,1.5138,1.3251,1.2374,1.0311,0.8868,0.7876,0.7327,0.6966,0.6426,0.6308,0.6164,0.5955,0.5919,0.5688,0.5082,0.481,0.477,0.4958,0.4385,0.4004,0.4004,0.3623,0.2479,0.0191,-0.1524,-0.3239,-0.4567,-0.533,-0.5335,-0.5707,-0.6087,-0.6288,-0.6482,-0.6288,-0.6479,-0.6479,-0.6479,-0.6479,-0.6859,-0.7239,-0.7809,-0.8383,-0.8003,-0.7999,-0.7999,-0.8171,-0.8364,-0.9286,-1.1283,-1.254,-1.3061,-1.4139,-1.5392,-1.5715,-1.5287,-1.5287,8.3534,8.2815,8.2385,8.1979,8.1456,7.9839,7.9338,7.8947,7.6898,7.5678,7.5067,7.3957,7.2601,7.1363,6.9899,6.8211,6.649,6.5618,6.4543,6.3546,6.2398,5.9861,5.7001,5.5052,5.3896,5.3603,5.2902,5.262,5.2003,4.8982,4.7002,4.5895,4.3051,4.1342,4.033,4.009,3.9768,3.9768,3.9768,3.9768,3.9768,3.9768,3.8173,3.5366,3.4969,3.3387,3.0607,2.9796,2.9474,2.9025,2.7124,2.5471,2.373,2.2029,2.0561,1.947,1.9058,1.8457,1.7034,1.5144,1.347,1.2046,0.9751,0.8139,0.7786,0.6975,0.6626,0.6297,0.636,0.6373,0.6164,0.6316,0.6056,0.5774,0.5354,0.4958,0.4958,0.4958,0.4768,0.4196,0.4006,0.3242,0.2288,0.0762,-0.1141,-0.3029,-0.3981,-0.4367,-0.5107,-0.5505,-0.5897,-0.5335,-0.5147,-0.5337,-0.553,-0.553,-0.5718,-0.6098,-0.6476,-0.6856,-0.7236,-0.7429,-0.7809,-0.7999,-0.8134,-0.8312,-0.9394,-1.1006,-1.1526,-1.223,-1.3789,-1.5181,-1.5412,-1.5209,-1.5035,8.3713,8.2806,8.2663,8.2504,8.183,8.0139,7.9515,7.9094,7.6985,7.5526,7.4914,7.3488,7.2202,7.1221,6.9564,6.7724,6.5992,6.5468,6.4495,6.3217,6.1265,5.9064,5.6724,5.5283,5.4354,5.376,5.3185,5.2607,5.1561,4.8386,4.6628,4.523,4.2692,4.0976,4.0276,4.0102,3.9895,3.98,3.9768,3.9768,3.9768,3.9167,3.7568,3.538,3.4372,3.2786,3.0404,2.9593,2.9307,2.856,2.6616,2.4578,2.3659,2.1532,2.0033,1.9281,1.9264,1.8663,1.7048,1.5381,1.3708,1.1839,0.976,0.8354,0.7762,0.7178,0.6857,0.6313,0.6373,0.6403,0.6193,0.5937,0.6035,0.5937,0.5908,0.553,0.5337,0.5527,0.5337,0.4768,0.4387,0.4196,0.3624,0.2098,0.019,-0.1698,-0.3018,-0.395,-0.487,-0.5282,-0.5311,-0.4934,-0.4757,-0.5144,-0.5337,-0.5339,-0.5522,-0.59,-0.6071,-0.6453,-0.6835,-0.7027,-0.7399,-0.7953,-0.8098,-0.8431,-0.9507,-1.0567,-1.1436,-1.2466,-1.3983,-1.4675,-1.4917,-1.4944,-1.4951,8.3564,8.2602,8.2869,8.2703,8.2048,8.0437,7.951,7.9153,7.6834,7.5374,7.4577,7.283,7.1637,7.0638,6.8669,6.6884,6.5788,6.5194,6.3996,6.2184,5.9885,5.7643,5.6933,5.5198,5.4095,5.3519,5.3073,5.2379,5.1015,4.8322,4.6282,4.5093,4.277,4.1192,4.0562,4.034,4.0117,3.9895,3.98,3.9768,3.9557,3.8369,3.6765,3.5167,3.2986,3.1794,3.0404,2.9796,2.9377,2.9377,2.6103,2.4253,2.3423,2.1012,1.9651,1.9305,1.9256,1.8449,1.6828,1.4985,1.3505,1.1563,0.9958,0.8939,0.7893,0.7559,0.7049,0.6308,0.6393,0.6219,0.5999,0.5732,0.5828,0.5926,0.6096,0.6098,0.6098,0.6098,0.5908,0.5339,0.4768,0.4577,0.3815,0.2478,0.057,-0.0565,-0.1881,-0.3185,-0.4291,-0.5045,-0.5071,-0.471,-0.4732,-0.4947,-0.5144,-0.5149,-0.533,-0.551,-0.5855,-0.6224,-0.6795,-0.7171,-0.7353,-0.7521,-0.8039,-0.8381,-0.9103,-1.0151,-1.1346,-1.2373,-1.372,-1.4263,-1.4654,-1.4647,-1.4654,8.3998,8.2489,8.3386,8.3096,8.2108,8.0437,7.9539,7.927,7.653,7.4885,7.3929,7.2354,7.1199,7.0429,6.8494,6.7066,6.6182,6.5184,6.3552,6.0725,5.8001,5.6707,5.6184,5.5046,5.425,5.3883,5.3321,5.2915,5.1812,4.876,4.6764,4.6285,4.317,4.1246,4.1039,4.0546,4.0276,4.0133,3.9911,3.9768,3.9557,3.8173,3.637,3.4784,3.2196,3.0809,3.0214,2.9593,2.9389,2.8552,2.6434,2.4187,2.3068,2.1151,1.9766,1.9337,1.9256,1.8008,1.5513,1.4434,1.2926,1.0298,0.9265,0.8446,0.7718,0.7349,0.704,0.6522,0.6376,0.6371,0.6124,0.6016,0.5953,0.5919,0.6098,0.6098,0.6098,0.6098,0.5718,0.4956,0.4575,0.4385,0.3624,0.3243,0.1709,0.0565,-0.0937,-0.2241,-0.3534,-0.4817,-0.4832,-0.4852,-0.4518,-0.473,-0.473,-0.4921,-0.5101,-0.5463,-0.581,-0.6159,-0.6727,-0.7296,-0.7466,-0.7635,-0.7977,-0.8508,-0.922,-1.0207,-1.1547,-1.2592,-1.3483,-1.4037,-1.4414,-1.4387,-1.4387,8.388,8.2802,8.3179,8.2796,8.1661,8.0286,7.9392,7.8499,7.6262,7.4732,7.3617,7.2222,7.1114,7.0219,6.8176,6.694,6.6182,6.4805,6.2873,6.0113,5.7431,5.6021,5.5724,5.4931,5.4268,5.3932,5.3486,5.3331,5.2064,4.9292,4.703,4.6988,4.3417,4.1687,4.1277,4.0785,4.0467,4.0245,3.9959,3.9768,3.9557,3.7371,3.4983,3.32,3.1012,3.0214,3.0214,3.0011,2.9593,2.8767,2.6487,2.445,2.3298,2.1194,1.9807,1.9337,1.9256,1.778,1.5466,1.4201,1.2926,0.9863,0.9036,0.8446,0.7886,0.7327,0.7009,0.6496,0.6322,0.6303,0.5856,0.581,0.5753,0.5723,0.5718,0.5908,0.6098,0.6098,0.5718,0.4956,0.4575,0.4006,0.3434,0.3243,0.1512,-0.0374,-0.0745,-0.2041,-0.4393,-0.5477,-0.5327,-0.5175,-0.4485,-0.4322,-0.4318,-0.4502,-0.5052,-0.559,-0.6111,-0.627,-0.6626,-0.719,-0.7569,-0.7915,-0.8079,-0.8978,-0.9667,-1.0809,-1.1654,-1.2431,-1.317,-1.4031,-1.436,-1.4346,-1.4346,8.3458,8.2814,8.285,8.22,8.1209,8.0103,7.9182,7.7992,7.6176,7.4634,7.3488,7.2117,7.0917,6.9761,6.7775,6.6492,6.541,6.4005,6.1874,6.0158,5.727,5.6086,5.5724,5.4993,5.4215,5.3797,5.341,5.3231,5.1696,4.9093,4.7006,4.6363,4.3632,4.1895,4.1373,4.1055,4.0769,4.0546,4.0133,3.9895,3.9456,3.6824,3.3787,3.1214,3.0416,3.0214,3.0214,3.0011,2.9808,2.8971,2.667,2.4992,2.3317,2.137,1.963,1.9297,1.9264,1.775,1.5433,1.4397,1.2942,1.0239,0.9449,0.8645,0.7844,0.7486,0.7163,0.6626,0.6262,0.6053,0.5425,0.5399,0.5378,0.5351,0.5339,0.553,0.5908,0.6098,0.5527,0.4956,0.4575,0.4194,0.3624,0.3051,0.0753,-0.1118,-0.1298,-0.2025,-0.4179,-0.5596,-0.5455,-0.5305,-0.4803,-0.4657,-0.4659,-0.4116,-0.4664,-0.5354,-0.6052,-0.6212,-0.6549,-0.6913,-0.7289,-0.8012,-0.8359,-0.9079,-0.9969,-1.0794,-1.1682,-1.2292,-1.3176,-1.4175,-1.4319,-1.4122,-1.4312,8.3038,8.2062,8.2529,8.2408,8.1803,8.0365,7.9384,7.8547,7.6406,7.4564,7.2913,7.1908,7.0629,6.9154,6.7265,6.5492,6.4263,6.2636,6.1242,5.9954,5.7196,5.5778,5.5703,5.4973,5.4329,5.4083,5.3607,5.2781,5.0973,4.8668,4.6909,4.5158,4.3035,4.1974,4.1643,4.1404,4.115,4.0944,4.0499,4.0213,3.9101,3.6501,3.3387,3.0607,3.0214,3.0214,3.0214,3.0214,2.9593,2.7918,2.6103,2.4253,2.2645,2.0781,1.979,1.9354,1.9256,1.7939,1.5146,1.4304,1.2428,1.0167,0.9175,0.879,0.801,0.7633,0.7109,0.6571,0.6207,0.6008,0.5418,0.5382,0.5356,0.5342,0.5339,0.553,0.5908,0.5718,0.553,0.5149,0.4766,0.4385,0.3623,0.2854,0.1319,-0.0373,-0.111,-0.1836,-0.3631,-0.4875,-0.5419,-0.5266,-0.5113,-0.4967,-0.4995,-0.4467,-0.4283,-0.5322,-0.5826,-0.5988,-0.6143,-0.6479,-0.6835,-0.7394,-0.8132,-0.8865,-0.9734,-1.0758,-1.1833,-1.2764,-1.3445,-1.4299,-1.4122,-1.3945,-1.4299,8.2596,8.2042,8.1899,8.1421,8.0698,7.9623,7.8523,7.7181,7.5535,7.3857,7.2436,7.123,7.0189,6.8982,6.7689,6.5892,6.4062,6.2208,6.0882,5.9567,5.7077,5.5426,5.5535,5.48,5.4431,5.3985,5.3325,5.2348,5.0847,4.9071,4.681,4.4954,4.3444,4.2668,4.2179,4.1874,4.1746,4.1585,4.1016,4.0039,3.8875,3.5536,3.2611,3.1214,3.0416,3.0214,3.0214,3.0214,2.9389,2.768,2.6061,2.4213,2.2434,2.0863,1.9532,1.9313,1.9256,1.772,1.4906,1.4061,1.2604,0.9746,0.9146,0.8763,0.8189,0.7626,0.7252,0.6516,0.6566,0.6177,0.538,0.5351,0.5344,0.5339,0.5337,0.5525,0.5905,0.5715,0.5715,0.5525,0.4768,0.4004,0.3429,0.2655,0.1695,0.056,-0.0739,-0.2013,-0.3262,-0.4154,-0.5039,-0.5053,-0.4896,-0.5101,-0.5129,-0.4786,-0.4434,-0.5108,-0.5612,-0.5771,-0.576,-0.6105,-0.6279,-0.6287,-0.7197,-0.8113,-0.9348,-1.056,-1.1804,-1.2875,-1.3413,-1.3945,-1.3768,-1.3768,-1.4122,8.245,8.2138,8.1212,8.0377,7.9657,7.8821,7.766,7.6081,7.4211,7.3044,7.2202,7.093,6.9826,6.911,6.7767,6.6341,6.4627,6.2194,6.0817,5.9611,5.7045,5.5553,5.524,5.4689,5.4376,5.4163,5.3565,5.2088,5.0253,4.8628,4.6863,4.4903,4.3566,4.3263,4.2791,4.2206,4.2247,4.1915,4.1256,3.989,3.728,3.435,3.1995,3.1012,3.0416,3.0214,3.0214,3.0214,2.8971,2.724,2.5612,2.3962,2.1985,2.0376,1.9402,1.9289,1.9264,1.7478,1.5126,1.4067,1.2797,0.9543,0.9146,0.8763,0.8372,0.7788,0.7207,0.6456,0.6473,0.6487,0.5495,0.5304,0.5301,0.5301,0.5299,0.5493,0.5866,0.5868,0.569,0.5316,0.4569,0.4191,0.3805,0.3217,0.2441,0.1116,-0.0184,-0.1822,-0.3071,-0.3782,-0.4671,-0.4852,-0.4866,-0.4882,-0.5079,-0.5084,-0.491,-0.5424,-0.5583,-0.5752,-0.5747,-0.5741,-0.5741,-0.5918,-0.6279,-0.7187,-0.8599,-1.0199,-1.1449,-1.252,-1.323,-1.3768,-1.3945,-1.3945,-1.4299,8.2404,8.1721,8.0909,8.0271,7.9693,7.8831,7.8079,7.6932,7.3488,7.2574,7.3213,7.1323,7.0036,6.9326,6.7516,6.5802,6.3912,6.1796,6.0387,5.9676,5.7185,5.5555,5.5156,5.4615,5.439,5.4063,5.3886,5.1859,4.9828,4.7819,4.5939,4.4023,4.3174,4.2447,4.3247,4.2555,4.2195,4.2318,4.1607,3.9473,3.612,3.3748,3.1819,3.0809,3.0214,3.0214,3.0214,3.0011,2.8767,2.6014,2.5063,2.325,2.0738,1.9667,1.9321,1.9264,1.9026,1.7916,1.4906,1.4067,1.2802,0.9945,0.9146,0.8763,0.8357,0.7931,0.7323,0.6684,0.6703,0.6346,0.5598,0.5208,0.5203,0.5211,0.5409,0.559,0.5773,0.5818,0.5644,0.5654,0.5094,0.493,0.4938,0.4149,0.3371,0.1853,0.0183,-0.1451,-0.2882,-0.3593,-0.3949,-0.413,-0.4493,-0.4508,-0.469,-0.4873,-0.5046,-0.5565,-0.5383,-0.5562,-0.5562,-0.5562,-0.5562,-0.5741,-0.6099,-0.6991,-0.8773,-1.0199,-1.1444,-1.2514,-1.3407,-1.3945,-1.4122,-1.4299,-1.4299,8.2919,8.1806,8.1024,8.0389,7.981,7.8494,7.7597,7.6322,7.4083,7.2801,7.2503,7.1026,6.9791,6.8903,6.7132,6.5893,6.4428,6.1755,6.0159,5.9284,5.7271,5.5682,5.5029,5.4595,5.4443,5.4003,5.2656,5.1276,4.9368,4.846,4.6951,4.3973,4.3853,4.3853,4.3703,4.306,4.2856,4.1863,4.0076,3.7607,3.5655,3.3264,3.0999,3.0619,3.0416,3.0214,3.0214,3.0214,2.8483,2.5889,2.475,2.3145,2.061,1.941,1.9264,1.9264,1.9264,1.7697,1.4893,1.4273,1.2192,1.0149,0.9138,0.8932,0.8323,0.809,0.7476,0.6666,0.666,0.6285,0.5731,0.5552,0.5552,0.5549,0.5534,0.5723,0.591,0.575,0.5776,0.56,0.5608,0.5628,0.5265,0.3925,0.3155,0.2392,0.0365,-0.1445,-0.2698,-0.3412,-0.3588,-0.3409,-0.3773,-0.4142,-0.4318,-0.4497,-0.4677,-0.5025,-0.4845,-0.4845,-0.5386,-0.5565,-0.5383,-0.5739,-0.6454,-0.7524,-0.8952,-1.0021,-1.0911,-1.2337,-1.3591,-1.3945,-1.4122,-1.4299,-1.4299,8.3011,8.1917,8.0989,8.0235,7.9685,7.8427,7.7132,7.5981,7.4269,7.3186,7.2138,7.0874,6.9557,6.8143,6.7052,6.5958,6.4837,6.2081,6.0318,5.8773,5.7279,5.5767,5.5108,5.4586,5.4585,5.432,5.2496,5.0893,5.0124,4.923,4.7489,4.416,4.4411,4.4581,4.3973,4.3263,4.2856,4.199,3.8498,3.6765,3.5781,3.248,3.1073,3.0619,3.0416,3.0214,3.0214,3.0117,2.8335,2.5955,2.4849,2.3031,2.0516,1.9569,1.9462,1.9454,1.9454,1.7901,1.5522,1.4049,1.2384,1.0544,0.913,0.8908,0.8618,0.8416,0.8173,0.715,0.6958,0.6599,0.6241,0.5869,0.5861,0.5676,0.5861,0.6055,0.6247,0.5891,0.5902,0.6095,0.61,0.5921,0.5184,0.3508,0.2754,0.2555,0.0905,-0.1259,-0.2334,-0.3052,-0.2872,-0.2692,-0.3231,-0.3595,-0.3773,-0.413,-0.4307,-0.4307,-0.4128,-0.4307,-0.4666,-0.4845,-0.4845,-0.5559,-0.6451,-0.7881,-0.9308,-0.9843,-1.0555,-1.2337,-1.3768,-1.3768,-1.3945,-1.4122,-1.4299,8.2557,8.1485,8.0836,8.014,7.9336,7.8694,7.7348,7.5755,7.4033,7.3036,7.2452,7.1225,6.9384,6.7662,6.707,6.5888,6.3656,6.2457,6.0787,5.9072,5.7827,5.6315,5.5462,5.4812,5.4768,5.4163,5.2535,5.1138,5.0065,4.9007,4.7318,4.5378,4.4988,4.4394,4.3819,4.3313,4.2668,4.1502,3.8323,3.6561,3.536,3.2976,3.0858,3.0416,3.0214,3.0214,3.0202,2.9996,2.86,2.569,2.4937,2.3314,2.1045,1.9924,1.966,1.9651,1.9651,1.7886,1.571,1.4242,1.2582,1.073,0.95,0.906,0.8555,0.8704,0.8434,0.7776,0.7235,0.6858,0.6488,0.6114,0.5965,0.5971,0.5982,0.616,0.6172,0.601,0.6019,0.6392,0.6398,0.6218,0.5485,0.383,0.2554,0.2177,0.1266,-0.0898,-0.1796,-0.2334,-0.1975,-0.1975,-0.2512,-0.2872,-0.3052,-0.3409,-0.3769,-0.3769,-0.359,-0.3588,-0.3768,-0.3947,-0.4128,-0.5373,-0.6264,-0.7874,-0.9477,-1.0702,-1.176,-1.304,-1.3768,-1.3945,-1.4122,-1.4299,-1.4299,8.2405,8.1514,8.094,8.0386,7.9917,7.9702,7.8379,7.624,7.4445,7.2988,7.2105,7.1086,6.9917,6.831,6.7267,6.5972,6.3872,6.2643,6.0893,5.8993,5.7485,5.6315,5.542,5.4862,5.4515,5.3983,5.2296,5.0898,5.0065,4.8644,4.701,4.5841,4.5191,4.5106,4.4511,4.3362,4.2464,4.1092,3.8691,3.6336,3.5429,3.2699,3.0778,3.0619,3.0214,3.0416,3.057,2.9924,2.8118,2.6293,2.521,2.3256,2.1362,2.0466,2.0046,2.0038,1.9849,1.8286,1.589,1.4442,1.2791,1.0312,0.9466,0.919,0.8688,0.8461,0.8012,0.757,0.7352,0.6994,0.6998,0.6819,0.6646,0.6279,0.6276,0.6279,0.629,0.5957,0.6146,0.6703,0.6513,0.6326,0.5236,0.4148,0.2887,0.1984,0.072,-0.0359,-0.1077,-0.1796,-0.1796,-0.1616,-0.1975,-0.2693,-0.2872,-0.3052,-0.3231,-0.3231,-0.3052,-0.3231,-0.3411,-0.3231,-0.359,-0.4834,-0.6246,-0.8014,-0.9777,-1.1709,-1.2966,-1.3735,-1.4115,-1.4299,-1.4299,-1.4299,-1.4299,8.2253,8.1514,8.1078,8.0609,8.0323,8.0339,7.8792,7.6443,7.4222,7.2744,7.1568,7.1063,7.0145,6.8733,6.7809,6.5982,6.4015,6.2709,6.102,5.9387,5.7913,5.6866,5.5904,5.5496,5.5119,5.4143,5.2097,5.0677,5.0285,4.7878,4.6716,4.62,4.5977,4.5362,4.4461,4.3444,4.2464,4.1139,3.881,3.6711,3.5814,3.3006,3.0962,3.0945,3.0477,3.0331,3.0222,2.9779,2.8322,2.6298,2.4877,2.3523,2.2051,2.0826,2.0432,2.0235,1.9807,1.8702,1.6724,1.4174,1.233,0.9861,0.9611,0.914,0.8668,0.8224,0.7801,0.7549,0.7352,0.7173,0.7173,0.6994,0.6994,0.6637,0.6637,0.6815,0.6454,0.6293,0.6649,0.7008,0.6825,0.647,0.5396,0.4316,0.2518,0.144,0.0539,-0.018,-0.0539,-0.1257,-0.1976,-0.1796,-0.1616,-0.2335,-0.2694,-0.2874,-0.3053,-0.3053,-0.2874,-0.2872,-0.3053,-0.2874,-0.3231,-0.4299,-0.5887,-0.7983,-0.9726,-1.1483,-1.2777,-1.4095,-1.4285,-1.4278,-1.4299,-1.4299,-1.4299,8.2253,8.1514,8.1078,8.0609,8.0223,8.0352,7.8735,7.6065,7.3602,7.2216,7.1542,7.1214,7.0145,6.8858,6.8006,6.5951,6.3688,6.2928,6.1547,5.9355,5.8361,5.788,5.7277,5.6479,5.5705,5.4664,5.2599,5.1089,5.0596,4.7966,4.6923,4.6406,4.5943,4.5328,4.4363,4.3296,4.2464,4.1581,3.9221,3.7443,3.5995,3.3547,3.1893,3.0913,3.0526,3.0331,3.0088,2.9833,2.8183,2.6146,2.4918,2.36,2.2397,2.1022,2.0432,2.0629,2.0235,1.9151,1.7389,1.371,1.1411,1.0165,0.9924,0.9451,0.8783,0.8359,0.7971,0.7713,0.7531,0.7352,0.7173,0.7173,0.7173,0.6994,0.6994,0.6815,0.6633,0.6276,0.6454,0.6991,0.6994,0.6819,0.5923,0.4489,0.2335,0.1078,0.0359,-0.0,-0.0,-0.1077,-0.2156,-0.2156,-0.1976,-0.2335,-0.2874,-0.2874,-0.2874,-0.2874,-0.2874,-0.2874,-0.3053,-0.3052,-0.3409,-0.3943,-0.5687,-0.7746,-0.9499,-1.1095,-1.2559,-1.4035,-1.4068,-1.4082,-1.4278,-1.4299,-1.4299,8.1976,8.1514,8.1049,8.0265,7.9558,8.0018,7.8792,7.6069,7.3657,7.2263,7.1894,7.1214,7.0324,6.9039,6.7556,6.5608,6.3445,6.1919,6.0589,5.9593,5.8527,5.7705,5.734,5.6604,5.5951,5.4904,5.3157,5.1518,5.1255,4.8157,4.6819,4.6303,4.5721,4.4887,4.4329,4.3483,4.2856,4.2022,3.9623,3.7409,3.6134,3.3924,3.2211,3.1216,3.0754,3.0484,3.0215,2.9748,2.8288,2.6267,2.504,2.4146,2.2779,2.1219,2.1022,2.0826,2.0226,1.8702,1.6673,1.3853,1.2123,1.0875,1.0193,0.9551,0.8919,0.8497,0.8277,0.7896,0.771,0.7531,0.771,0.7352,0.7173,0.6812,0.6633,0.6633,0.6454,0.6097,0.6099,0.6637,0.6994,0.6451,0.5554,0.4485,0.2512,0.1256,0.0538,-0.0,-0.0,-0.0,-0.2694,-0.2694,-0.2694,-0.2694,-0.2874,-0.2515,-0.2515,-0.2694,-0.2694,-0.2874,-0.3053,-0.3231,-0.3406,-0.3938,-0.5654,-0.7686,-0.9435,-1.1025,-1.2667,-1.3604,-1.3779,-1.4035,-1.4462,-1.4469,-1.4476,8.1976,8.1514,8.0893,8.0078,7.9238,7.9943,7.8308,7.5035,7.3236,7.2472,7.2122,7.1214,7.012,6.9039,6.7188,6.5353,6.3439,6.2121,6.0765,5.9788,5.8549,5.8049,5.7705,5.6708,5.5883,5.4925,5.3149,5.1444,5.0206,4.7791,4.651,4.5789,4.5378,4.4988,4.4515,4.389,4.3263,4.2022,4.0111,3.8117,3.6575,3.4828,3.2917,3.183,3.116,3.0686,3.0215,2.9538,2.8485,2.666,2.5473,2.4546,2.2974,2.1799,2.1219,2.0826,2.0012,1.8474,1.6437,1.497,1.3234,1.1377,1.0465,0.964,0.8878,0.8461,0.8262,0.7889,0.7889,0.7889,0.7889,0.7531,0.7352,0.6991,0.6991,0.717,0.6812,0.6637,0.6279,0.6815,0.6815,0.6091,0.5186,0.3941,0.251,0.1613,-0.0,-0.0,-0.0,-0.0,-0.0,-0.2515,-0.2694,-0.2874,-0.2515,-0.1796,-0.1976,-0.2335,-0.2515,-0.2694,-0.3053,-0.3231,-0.3404,-0.4103,-0.5981,-0.783,-0.9548,-1.1123,-1.2182,-1.2897,-1.3083,-1.372,-1.4597,-1.4611,-1.4393,8.2312,8.136,8.0522,7.9733,7.9106,7.9495,7.6955,7.2613,7.2811,7.2621,7.2122,7.0834,6.9941,6.9014,6.6794,6.4954,6.3272,6.2121,6.1176,6.0202,5.8916,5.874,5.8345,5.7488,5.6029,5.4274,5.2603,5.0884,4.8657,4.701,4.5858,4.5361,4.519,4.5121,4.47,4.4093,4.3483,4.2652,4.0996,3.8989,3.7294,3.5897,3.3792,3.229,3.1401,3.0698,3.0215,2.9538,2.8485,2.7052,2.5636,2.4371,2.317,2.1603,2.1022,2.0432,1.9849,1.863,1.6787,1.5499,1.3715,1.1651,1.0235,0.9414,0.8819,0.8437,0.825,0.8067,0.8067,0.7889,0.7889,0.8067,0.8071,0.8067,0.8067,0.7889,0.7706,0.7349,0.6991,0.6994,0.6815,0.6267,0.5172,0.3926,0.2868,0.2328,0.1433,-0.0,-0.0,-0.0,-0.0,-0.2156,-0.2335,-0.2874,-0.2335,-0.1616,-0.1077,-0.1436,-0.2156,-0.2515,-0.2874,-0.3228,-0.3575,-0.4613,-0.6298,-0.8141,-0.9963,-1.096,-1.1652,-1.2198,-1.2815,-1.3627,-1.4513,-1.4277,-1.4055,8.2282,8.136,8.0522,7.9415,7.7858,7.6286,7.4203,7.2453,7.2516,7.2297,7.177,7.1037,6.9941,6.8652,6.6238,6.4553,6.3058,6.1542,6.0592,5.981,5.9023,5.8627,5.8231,5.7614,5.6212,5.4457,5.2655,5.0828,4.8909,4.7008,4.5652,4.519,4.5121,4.5121,4.4919,4.4515,4.4093,4.328,4.1833,3.9829,3.8163,3.6569,3.4461,3.2763,3.1807,3.1101,3.0415,2.9736,2.8879,2.7835,2.6221,2.4935,2.432,2.2182,2.0629,1.9832,1.9519,1.9101,1.6443,1.5563,1.4164,1.1936,1.0154,0.9729,0.9326,0.896,0.8429,0.825,0.8067,0.8067,0.7889,0.8067,0.8071,0.8067,0.8071,0.8067,0.771,0.771,0.7352,0.6991,0.6815,0.6094,0.4996,0.393,0.3049,0.2687,0.2328,0.1435,-0.0,-0.0,-0.0,-0.0,-0.1976,-0.2335,-0.2156,-0.1436,-0.0718,-0.0539,-0.1436,-0.2334,-0.269,-0.3221,-0.3744,-0.5115,-0.6942,-0.8727,-1.0314,-1.116,-1.1559,-1.2192,-1.2815,-1.3607,-1.4201,-1.396,-1.3905,8.1976,8.0864,7.9891,7.8346,7.6456,7.4545,7.321,7.2358,7.2368,7.2122,7.1568,7.0859,6.9761,6.7922,6.568,6.4009,6.2698,6.1176,6.0027,5.9613,5.8825,5.8627,5.8231,5.7393,5.5869,5.4116,5.2355,5.081,4.8577,4.6833,4.5464,4.5138,4.5121,4.5121,4.4919,4.4515,4.4515,4.389,4.2619,4.062,3.8896,3.7141,3.5266,3.3133,3.2351,3.1504,3.0827,3.0157,2.9481,2.8629,2.6816,2.5712,2.4709,2.2378,2.055,1.974,1.9639,1.8994,1.7154,1.5953,1.4349,1.2471,1.0505,0.9908,0.9514,0.9143,0.8786,0.8429,0.825,0.8246,0.8071,0.7892,0.7889,0.7889,0.7889,0.7889,0.7889,0.7889,0.7531,0.6991,0.6454,0.5741,0.4843,0.3947,0.3231,0.2871,0.269,0.2333,0.1436,-0.0,-0.0,-0.0,-0.0,-0.1617,-0.1436,-0.1436,-0.1077,-0.0897,-0.1257,-0.2153,-0.2687,-0.3213,-0.3911,-0.5605,-0.7738,-0.9342,-1.092,-1.1126,-1.1693,-1.2319,-1.2715,-1.3239,-1.3619,-1.3797,-1.3763,8.133,8.0049,7.8774,7.6955,7.4959,7.4112,7.321,7.2358,7.2219,7.1946,7.1391,7.0656,6.9195,6.7188,6.5329,6.3439,6.2314,6.0809,6.0027,5.9613,5.9023,5.8627,5.8231,5.7414,5.5668,5.3652,5.1871,5.0307,4.773,4.6131,4.5618,4.5173,4.519,4.519,4.5121,4.4717,4.4717,4.4498,4.3132,4.1312,3.9252,3.7722,3.606,3.3413,3.2423,3.1893,3.1264,3.0788,3.0499,2.925,2.7856,2.6543,2.433,2.2769,2.0907,2.0199,2.0121,1.9279,1.8033,1.6629,1.5299,1.3443,1.1677,1.0301,0.9518,0.9143,0.8786,0.8607,0.8429,0.8429,0.825,0.825,0.825,0.825,0.825,0.825,0.825,0.8071,0.771,0.7352,0.6994,0.6099,0.4664,0.3768,0.3411,0.3053,0.2335,0.2156,0.2335,0.1257,-0.0,-0.0,-0.0,-0.0,-0.1257,-0.1256,-0.1434,-0.1434,-0.1613,-0.196,-0.2655,-0.3362,-0.4077,-0.61,-0.8053,-0.9651,-1.1081,-1.1254,-1.1617,-1.2234,-1.2764,-1.2856,-1.3036,-1.3452,-1.3614,8.1175,7.9574,7.7666,7.5786,7.4391,7.3913,7.3142,7.2394,7.2271,7.177,7.1037,7.0681,6.9014,6.6658,6.5141,6.363,6.1951,6.0809,6.0419,5.9831,5.922,5.8825,5.8429,5.7614,5.5487,5.3547,5.1723,5.001,4.7182,4.6114,4.5875,4.5294,4.5243,4.5378,4.5121,4.4919,4.4902,4.4902,4.3405,4.1607,3.9485,3.7998,3.6319,3.3963,3.2768,3.2397,3.159,3.1226,3.1158,3.0695,2.8457,2.5896,2.2602,2.2201,2.1103,2.0164,2.0579,1.9924,1.8682,1.7088,1.5547,1.3531,1.159,1.0441,0.9505,0.8964,0.8607,0.8607,0.8607,0.8607,0.8607,0.8607,0.8607,0.8607,0.8607,0.8607,0.8607,0.825,0.8067,0.771,0.7356,0.6276,0.4841,0.3947,0.3769,0.2693,0.1257,0.0898,0.2335,0.2156,0.1077,-0.0,-0.0,-0.0,-0.0,-0.0537,-0.0536,-0.1423,-0.1776,-0.2293,-0.28,-0.3655,-0.4511,-0.6394,-0.8373,-0.9958,-1.0859,-1.081,-1.1351,-1.2124,-1.2637,-1.2561,-1.3125,-1.3546,-1.3498,8.0522,7.9095,7.6678,7.5055,7.423,7.386,7.3116,7.2341,7.2245,7.177,7.0885,7.0324,6.8652,6.589,6.4742,6.3249,6.1564,6.0809,6.0223,5.9831,5.9438,5.8825,5.8429,5.7813,5.5588,5.3652,5.1015,4.8721,4.6699,4.6423,4.6234,4.5533,4.5652,4.5498,4.5173,4.4919,4.4902,4.5087,4.3523,4.1665,3.9673,3.8111,3.6176,3.4084,3.3118,3.2572,3.2203,3.1836,3.1775,3.0827,2.8728,2.5647,2.315,2.1902,2.1171,2.0605,2.0592,2.0746,1.9311,1.7732,1.6022,1.4049,1.159,1.0121,0.9683,0.9143,0.8607,0.8607,0.8607,0.8607,0.8607,0.8607,0.8607,0.8607,0.8607,0.8607,0.8429,0.825,0.8246,0.825,0.7713,0.6815,0.4841,0.2331,-0.0,-0.0,-0.0,-0.0,0.1976,0.2513,0.1616,-0.0,-0.0,-0.0,-0.0,0.0179,0.0533,-0.0531,-0.1936,-0.2628,-0.3132,-0.394,-0.5089,-0.6986,-0.8505,-0.9908,-1.0485,-1.0744,-1.1242,-1.1989,-1.2313,-1.244,-1.3039,-1.3645,-1.361,7.9545,7.8261,7.6011,7.4662,7.4123,7.3661,7.3063,7.2411,7.2219,7.177,7.0503,6.9581,6.7531,6.5493,6.3797,6.2099,6.0982,6.0614,6.0027,5.9831,5.9613,5.9023,5.8429,5.7813,5.5809,5.3024,5.023,4.8573,4.6868,4.6817,4.656,4.6166,4.5704,4.5567,4.5073,4.4717,4.4717,4.4564,4.3272,4.132,3.9582,3.7829,3.5748,3.4337,3.3187,3.2881,3.2722,3.2366,3.2313,3.0802,2.8704,2.5593,2.3316,2.2032,2.1247,2.0682,2.0684,2.1039,2.0232,1.8358,1.7063,1.5265,1.2238,1.051,1.0064,0.9322,0.8786,0.8607,0.8607,0.8607,0.8607,0.8607,0.8607,0.8607,0.8607,0.8607,0.8429,0.825,0.8429,0.8607,0.7892,0.6994,0.538,0.251,-0.0,-0.0,-0.0,-0.0,0.1795,0.1794,0.1255,0.0896,-0.0,-0.0,0.0358,0.0536,0.0888,-0.0,-0.1395,-0.2609,-0.3805,-0.5285,-0.6603,-0.748,-0.8968,-1.0014,-1.0579,-1.0829,-1.1341,-1.1873,-1.2006,-1.2344,-1.3019,-1.3597,-1.3756,7.8935,7.6705,7.5225,7.4203,7.3833,7.3316,7.2769,7.242,7.2271,7.1391,6.9761,6.8627,6.6955,6.4765,6.3797,6.2336,6.0919,6.0528,6.0463,6.0223,5.9918,5.9263,5.8429,5.7414,5.5527,5.2993,5.0279,4.8473,4.7353,4.7159,4.7022,4.6525,4.6166,4.5909,4.5549,4.5158,4.4885,4.4531,4.3574,4.1993,3.9752,3.7977,3.572,3.4323,3.3013,3.2973,3.2934,3.2733,3.2537,3.1196,2.8748,2.569,2.3726,2.2179,2.1394,2.101,2.0998,2.118,2.0408,1.8744,1.7453,1.5818,1.2957,1.104,1.0431,0.95,0.8964,0.8786,0.8786,0.8786,0.8786,0.8786,0.8607,0.8607,0.8607,0.8607,0.8429,0.8429,0.8429,0.8429,0.8254,0.7896,0.7542,0.4305,-0.0,-0.0,-0.0,-0.0,-0.0,0.0897,0.1074,0.1074,0.0894,0.1425,0.1777,0.0715,0.0711,-0.0175,-0.1209,-0.2583,-0.4453,-0.7304,-0.8458,-0.8454,-0.9059,-1.0097,-1.0503,-1.0901,-1.1427,-1.1781,-1.1733,-1.2087,-1.2946,-1.3569,-1.3901]},{"header":{"parameterUnit":"m.s-1","parameterCategory":1,"la1":31.0,"la2":29.5877,"lo1":-88.7671,"lo2":-86.6584,"dy":0.0162,"dx":0.0185,"nx":115,"ny":88,"refTime":"2023-04-18T18:00:00:Z","depth":0,"parameterNumber":3,"parameterNumberName":"V-component_of_WINDS"},"data":[0.0,0.0,0.0,0.0,0.0,0.0,0.0,0.0,0.0,0.0,0.0,0.0,0.0,0.0,0.0,0.0,0.0,0.0,0.0,0.0,0.0,0.0,0.0,0.0,0.0,0.0,0.0,0.0,0.0,0.0,0.0,0.0,0.0,0.0,0.0,0.0,0.0,0.0,0.0,0.0,0.0,0.0,0.0,0.0,0.0,0.0,0.0,0.0,0.0,0.0,0.0,0.0,0.0,0.0,0.0,0.0,0.0,0.0,0.0,0.0,0.0,0.0,0.0,0.0,0.0,0.0,0.0,0.0,0.0,0.0,0.0,0.0,0.0,0.0,0.0,0.0,0.0,0.0,0.0,0.0,0.0,0.0,0.0,0.0,0.0,0.0,0.0,0.0,0.0,0.0,0.0,0.0,0.0,0.0,0.0,0.0,0.0,0.0,0.0,0.0,0.0,0.0,0.0,0.0,0.0,0.0,0.0,0.0,0.0,0.0,0.0,0.0,0.0,0.0,0.0,0.0,0.0,0.0,0.0,0.0,0.0,0.0,0.0,0.0,0.0,0.0,0.0,0.0,0.0,0.0,0.0,0.0,0.0,0.0,0.0,0.0,0.0,0.0,0.0,0.0,0.0,0.0,0.0,0.0,0.0,0.0,0.0,0.0,0.0,0.0,0.0,0.0,0.0,0.0,0.0,0.0,0.0,0.0,0.0,0.0,0.0,0.0,0.0,0.0,0.0,0.0,0.0,0.0,0.0,0.0,0.0,0.0,0.0,0.0,0.0,0.0,0.0,0.0,0.0,0.0,0.0,0.0,0.0,0.0,0.0,0.0,0.0,0.0,0.0,0.0,0.0,0.0,0.0,0.0,0.0,0.0,0.0,0.0,0.0,0.0,0.0,0.0,0.0,0.0,0.0,0.0,0.0,0.0,0.0,0.0,0.0,0.0,0.0,0.0,0.0,0.0,0.0,0.0,0.0,0.0,0.0,0.0,0.0,0.0,0.0,0.0,0.0,0.0,0.0,0.0,0.0,0.0,0.0,0.0,0.0,0.0,0.0,0.0,0.0,0.0,0.0,0.0,0.0,0.0,0.0,0.0,0.0,0.0,0.0,0.0,0.0,0.0,0.0,0.0,0.0,0.0,0.0,0.0,0.0,0.0,0.0,0.0,0.0,0.0,0.0,0.0,0.0,0.0,0.0,0.0,0.0,0.0,0.0,0.0,0.0,0.0,0.0,0.0,0.0,0.0,0.0,0.0,0.0,0.0,0.0,0.0,0.0,0.0,0.0,0.0,0.0,0.0,0.0,0.0,0.0,0.0,0.0,0.0,0.0,0.0,0.0,0.0,0.0,0.0,0.0,0.0,0.0,0.0,0.0,0.0,0.0,0.0,0.0,0.0,0.0,0.0,0.0,0.0,0.0,0.0,0.0,0.0,0.0,0.0,0.0,0.0,0.0,0.0,0.0,0.0,0.0,0.0,0.0,0.0,0.0,0.0,0.0,0.0,0.0,0.0,0.0,0.0,0.0,0.0,0.0,0.0,0.0,0.0,0.0,0.0,0.0,0.0,0.0,0.0,0.0,0.0,0.0,0.0,0.0,0.0,0.0,0.0,0.0,0.0,0.0,0.0,0.0,0.0,0.0,0.0,0.0,0.0,0.0,0.0,0.0,0.0,0.0,0.0,0.0,0.0,0.0,0.0,0.0,0.0,0.0,0.0,0.0,0.0,0.0,0.0,0.0,0.0,0.0,0.0,0.0,0.0,0.0,0.0,0.0,0.0,0.0,0.0,0.0,0.0,0.0,0.0,0.0,0.0,0.0,0.0,0.0,0.0,0.0,0.0,0.0,0.0,0.0,0.0,0.0,0.0,0.0,0.0,0.0,0.0,0.0,0.0,0.0,0.0,0.0,0.0,0.0,0.0,0.0,0.0,0.0,0.0,0.0,0.0,0.0,0.0,0.0,0.0,0.0,0.0,0.0,0.0,0.0,0.0,0.0,0.0,0.0,0.0,0.0,0.0,0.0,0.0,0.0,0.0,0.0,0.0,0.0,0.0,0.0,0.0,0.0,0.0,0.0,0.0,0.0,0.0,0.0,0.0,0.0,0.0,0.0,0.0,0.0,0.0,0.0,0.0,0.0,0.0,0.0,0.0,0.0,0.0,0.0,0.0,0.0,0.0,0.0,0.0,0.0,0.0,0.0,0.0,0.0,0.0,0.0,0.0,0.0,0.0,0.0,0.0,0.0,0.0,0.0,0.0,0.0,0.0,0.0,0.0,0.0,0.0,0.0,0.0,0.0,0.0,0.0,0.0,0.0,0.0,0.0,0.0,0.0,0.0,0.0,0.0,0.0,0.0,0.0,0.0,0.0,0.0,0.0,0.0,0.0,0.0,0.0,0.0,0.0,0.0,0.0,0.0,0.0,0.0,0.0,0.0,0.0,0.0,0.0,0.0,0.0,0.0,0.0,0.0,0.0,0.0,0.0,0.0,0.0,0.0,0.0,0.0,0.0,0.0,0.0,0.0,0.0,0.0,0.0,0.0,0.0,0.0,0.0,0.0,0.0,0.0,0.0,0.0,0.0,0.0,0.0,0.0,0.0,0.0,0.0,0.0,0.0,0.0,0.0,0.0,0.0,0.0,0.0,0.0,0.0,0.0,0.0,0.0,0.0,0.0,0.0,0.0,0.0,0.0,0.0,0.0,0.0,0.0,0.0,0.0,0.0,0.0,0.0,0.0,0.0,0.0,0.0,0.0,0.0,0.0,0.0,0.0,0.0,0.0,0.0,0.0,0.0,0.0,0.0,0.0,0.0,0.0,0.0,0.0,0.0,0.0,0.0,0.0,0.0,0.0,0.0,0.0,0.0,0.0,0.0,0.0,0.0,0.0,0.0,0.0,0.0,0.0,0.0,0.0,0.0,0.0,0.0,0.0,0.0,0.0,0.0,0.0,0.0,0.0,0.0,0.0,0.0,0.0,0.0,0.0,0.0,0.0,0.0,0.0,0.0,0.0,0.0,0.0,0.0,0.0,0.0,0.0,0.0,0.0,0.0,0.0,0.0,0.0,0.0,0.0,0.0,0.0,0.0,0.0,0.0,0.0,0.0,0.0,0.0,0.0,0.0,0.0,0.0,0.0,0.0,0.0,0.0,0.0,0.0,0.0,0.0,0.0,0.0,0.0,0.0,0.0,0.0,0.0,0.0,0.0,0.0,0.0,0.0,0.0,0.0,0.0,0.0,0.0,0.0,0.0,0.0,0.0,0.0,0.0,0.0,0.0,0.0,0.0,0.0,0.0,0.0,0.0,0.0,0.0,0.0,0.0,0.0,0.0,0.0,0.0,0.0,0.0,0.0,0.0,0.0,0.0,0.0,0.0,0.0,0.0,0.0,0.0,0.0,0.0,0.0,0.0,0.0,0.0,0.0,0.0,0.0,0.0,0.0,0.0,0.0,0.0,0.0,0.0,0.0,0.0,0.0,0.0,0.0,0.0,0.0,0.0,0.0,0.0,0.0,0.0,0.0,0.0,0.0,0.0,0.0,0.0,0.0,0.0,0.0,0.0,0.0,0.0,0.0,0.0,0.0,0.0,0.0,0.0,0.0,0.0,0.0,0.0,0.0,0.0,0.0,0.0,0.0,0.0,0.0,0.0,0.0,0.0,0.0,0.0,0.0,0.0,0.0,0.0,0.0,0.0,0.0,0.0,0.0,0.0,0.0,0.0,0.0,0.0,0.0,0.0,0.0,0.0,0.0,0.0,0.0,0.0,0.0,0.0,0.0,0.0,0.0,0.0,0.0,0.0,0.0,0.0,0.0,0.0,0.0,0.0,0.0,0.0,0.0,0.0,0.0,0.0,0.0,0.0,0.0,0.0,0.0,0.0,0.0,0.0,0.0,0.0,0.0,0.0,0.0,0.0,0.0,0.0,0.0,0.0,0.0,0.0,0.0,0.0,0.0,0.0,0.0,0.0,0.0,0.0,0.0,0.0,0.0,0.0,0.0,0.0,0.0,0.0,0.0,0.0,0.0,0.0,0.0,0.0,0.0,0.0,0.0,0.0,0.0,0.0,0.0,0.0,0.0,0.0,0.0,0.0,0.0,0.0,0.0,0.0,0.0,0.0,0.0,0.0,0.0,0.0,0.0,0.0,0.0,0.0,0.0,0.0,0.0,0.0,0.0,0.0,0.0,0.0,0.0,0.0,0.0,0.0,0.0,0.0,0.0,0.0,0.0,0.0,0.0,0.0,0.0,0.0,0.0,0.0,0.0,0.0,0.0,0.0,0.0,0.0,-4.821,0.0,0.0,0.0,0.0,0.0,0.0,0.0,0.0,0.0,0.0,0.0,0.0,0.0,0.0,0.0,0.0,0.0,0.0,0.0,0.0,0.0,0.0,0.0,0.0,0.0,0.0,0.0,0.0,0.0,0.0,0.0,0.0,0.0,0.0,0.0,0.0,0.0,0.0,0.0,0.0,0.0,0.0,0.0,0.0,0.0,0.0,0.0,0.0,0.0,0.0,0.0,0.0,0.0,0.0,0.0,0.0,0.0,0.0,0.0,0.0,0.0,0.0,0.0,0.0,0.0,0.0,0.0,0.0,0.0,0.0,0.0,0.0,0.0,0.0,0.0,0.0,0.0,0.0,0.0,0.0,0.0,0.0,0.0,0.0,0.0,0.0,0.0,0.0,0.0,0.0,0.0,0.0,0.0,0.0,0.0,0.0,0.0,0.0,0.0,0.0,0.0,0.0,0.0,0.0,0.0,0.0,0.0,0.0,0.0,0.0,-4.5718,-4.6638,-4.7417,-4.8179,-4.879,0.0,0.0,0.0,0.0,0.0,0.0,0.0,0.0,0.0,0.0,0.0,0.0,0.0,0.0,0.0,0.0,0.0,0.0,0.0,0.0,0.0,0.0,0.0,0.0,0.0,0.0,0.0,0.0,0.0,0.0,0.0,0.0,0.0,0.0,0.0,0.0,0.0,0.0,0.0,0.0,0.0,0.0,0.0,0.0,0.0,0.0,0.0,0.0,0.0,0.0,0.0,0.0,0.0,0.0,0.0,0.0,0.0,0.0,0.0,0.0,0.0,0.0,0.0,0.0,0.0,0.0,0.0,0.0,0.0,0.0,0.0,0.0,0.0,0.0,0.0,0.0,0.0,0.0,0.0,0.0,0.0,0.0,0.0,0.0,0.0,0.0,0.0,0.0,0.0,0.0,0.0,0.0,0.0,0.0,0.0,0.0,0.0,0.0,0.0,0.0,0.0,0.0,0.0,0.0,0.0,0.0,0.0,0.0,0.0,0.0,0.0,0.0,-4.8407,-4.9197,-4.9757,0.0,0.0,0.0,0.0,0.0,0.0,0.0,0.0,0.0,0.0,0.0,0.0,0.0,0.0,0.0,0.0,0.0,0.0,0.0,0.0,0.0,0.0,0.0,0.0,0.0,0.0,0.0,0.0,0.0,0.0,0.0,0.0,0.0,0.0,0.0,0.0,0.0,0.0,0.0,0.0,0.0,0.0,0.0,0.0,0.0,0.0,0.0,0.0,0.0,0.0,0.0,0.0,0.0,0.0,0.0,0.0,0.0,0.0,0.0,0.0,0.0,0.0,0.0,0.0,0.0,0.0,0.0,0.0,0.0,0.0,0.0,0.0,0.0,0.0,0.0,0.0,0.0,0.0,0.0,0.0,0.0,0.0,0.0,0.0,0.0,0.0,0.0,0.0,0.0,0.0,0.0,0.0,0.0,0.0,0.0,0.0,0.0,0.0,0.0,0.0,0.0,0.0,0.0,0.0,0.0,0.0,0.0,0.0,0.0,0.0,-4.7538,-4.7624,-4.9147,0.0,-5.2164,0.0,0.0,0.0,0.0,0.0,0.0,0.0,0.0,0.0,0.0,0.0,0.0,0.0,0.0,0.0,0.0,0.0,0.0,0.0,0.0,0.0,0.0,0.0,0.0,0.0,0.0,0.0,0.0,0.0,0.0,0.0,0.0,0.0,0.0,0.0,0.0,0.0,0.0,0.0,0.0,0.0,0.0,0.0,0.0,0.0,0.0,0.0,0.0,0.0,0.0,0.0,0.0,0.0,0.0,0.0,0.0,0.0,0.0,0.0,0.0,0.0,0.0,0.0,0.0,0.0,0.0,0.0,0.0,0.0,0.0,0.0,0.0,0.0,0.0,0.0,0.0,0.0,0.0,0.0,0.0,0.0,0.0,0.0,0.0,0.0,0.0,0.0,0.0,0.0,0.0,0.0,0.0,0.0,0.0,0.0,0.0,0.0,0.0,0.0,0.0,0.0,0.0,0.0,0.0,0.0,0.0,0.0,0.0,0.0,0.0,-4.9164,-4.8767,-5.0137,-5.159,0.0,0.0,0.0,0.0,0.0,0.0,0.0,0.0,0.0,0.0,0.0,0.0,0.0,0.0,0.0,0.0,0.0,0.0,0.0,0.0,0.0,0.0,0.0,0.0,0.0,0.0,0.0,0.0,0.0,0.0,0.0,0.0,0.0,0.0,0.0,0.0,0.0,0.0,0.0,0.0,0.0,0.0,0.0,0.0,0.0,0.0,0.0,0.0,0.0,0.0,0.0,0.0,0.0,0.0,0.0,0.0,0.0,0.0,0.0,0.0,0.0,0.0,0.0,0.0,0.0,0.0,0.0,0.0,0.0,0.0,0.0,0.0,0.0,0.0,0.0,0.0,0.0,0.0,0.0,0.0,0.0,0.0,0.0,0.0,0.0,0.0,0.0,0.0,0.0,0.0,0.0,0.0,0.0,0.0,0.0,0.0,0.0,0.0,0.0,0.0,0.0,0.0,0.0,0.0,0.0,0.0,0.0,0.0,0.0,0.0,-5.0488,-5.0891,-5.0806,-5.1682,-5.2798,-5.4127,0.0,0.0,0.0,0.0,0.0,0.0,0.0,0.0,0.0,0.0,0.0,0.0,0.0,0.0,0.0,0.0,0.0,0.0,0.0,0.0,0.0,0.0,0.0,0.0,0.0,0.0,0.0,0.0,0.0,0.0,0.0,0.0,0.0,0.0,0.0,0.0,0.0,0.0,0.0,0.0,0.0,0.0,0.0,0.0,0.0,0.0,0.0,0.0,0.0,0.0,0.0,0.0,0.0,0.0,0.0,0.0,0.0,0.0,0.0,0.0,0.0,0.0,0.0,0.0,0.0,0.0,0.0,0.0,0.0,0.0,0.0,0.0,0.0,0.0,0.0,0.0,0.0,0.0,0.0,0.0,0.0,0.0,0.0,0.0,0.0,0.0,0.0,0.0,0.0,0.0,0.0,0.0,0.0,0.0,0.0,0.0,0.0,0.0,0.0,0.0,0.0,0.0,0.0,0.0,0.0,0.0,0.0,0.0,-5.0863,-5.134,-5.2348,-5.3836,-5.4053,-5.4722,0.0,0.0,0.0,0.0,0.0,0.0,0.0,0.0,0.0,0.0,0.0,0.0,0.0,0.0,0.0,0.0,0.0,0.0,0.0,0.0,0.0,0.0,0.0,0.0,0.0,0.0,0.0,0.0,0.0,0.0,0.0,0.0,0.0,0.0,0.0,0.0,0.0,0.0,0.0,0.0,0.0,0.0,0.0,0.0,0.0,0.0,0.0,0.0,0.0,0.0,0.0,0.0,0.0,0.0,0.0,0.0,0.0,0.0,0.0,0.0,0.0,0.0,0.0,0.0,0.0,0.0,0.0,0.0,0.0,0.0,0.0,0.0,0.0,0.0,0.0,0.0,0.0,0.0,0.0,0.0,0.0,0.0,0.0,0.0,0.0,0.0,0.0,0.0,0.0,0.0,0.0,0.0,0.0,0.0,0.0,0.0,0.0,0.0,0.0,0.0,0.0,0.0,0.0,0.0,0.0,0.0,0.0,0.0,0.0,-5.2012,-5.3025,-5.4092,-5.5414,-5.5135,-5.5511,0.0,0.0,0.0,0.0,0.0,0.0,0.0,0.0,0.0,0.0,0.0,0.0,0.0,0.0,0.0,0.0,0.0,0.0,0.0,0.0,0.0,0.0,0.0,0.0,0.0,0.0,0.0,0.0,0.0,0.0,0.0,0.0,0.0,0.0,0.0,0.0,0.0,0.0,0.0,0.0,0.0,0.0,0.0,0.0,0.0,0.0,0.0,0.0,0.0,0.0,0.0,0.0,0.0,0.0,0.0,0.0,0.0,0.0,0.0,0.0,0.0,0.0,0.0,0.0,0.0,0.0,0.0,0.0,0.0,0.0,0.0,0.0,0.0,0.0,0.0,0.0,0.0,0.0,0.0,0.0,0.0,0.0,0.0,0.0,0.0,0.0,0.0,0.0,0.0,0.0,0.0,0.0,0.0,0.0,0.0,0.0,0.0,0.0,0.0,0.0,0.0,0.0,0.0,0.0,0.0,0.0,0.0,0.0,0.0,-5.3742,0.0,-5.5994,-5.6701,-5.6588,-5.6814,0.0,0.0,0.0,0.0,0.0,0.0,0.0,0.0,0.0,0.0,0.0,0.0,0.0,0.0,0.0,0.0,0.0,0.0,0.0,0.0,0.0,0.0,0.0,0.0,0.0,0.0,0.0,0.0,0.0,0.0,0.0,0.0,0.0,0.0,0.0,0.0,0.0,0.0,0.0,0.0,0.0,0.0,0.0,0.0,0.0,0.0,0.0,0.0,0.0,0.0,0.0,0.0,0.0,0.0,0.0,0.0,0.0,0.0,0.0,0.0,0.0,0.0,0.0,0.0,0.0,0.0,0.0,0.0,0.0,0.0,0.0,0.0,0.0,0.0,0.0,0.0,0.0,0.0,0.0,0.0,0.0,0.0,0.0,0.0,0.0,0.0,0.0,0.0,0.0,0.0,0.0,0.0,0.0,0.0,0.0,0.0,0.0,0.0,0.0,0.0,0.0,0.0,0.0,0.0,0.0,0.0,0.0,0.0,-5.4115,-5.6224,-5.7105,-5.7594,-5.7881,-5.8332,-5.8939,0.0,0.0,0.0,0.0,0.0,0.0,0.0,0.0,0.0,0.0,0.0,0.0,0.0,0.0,0.0,0.0,0.0,0.0,0.0,0.0,0.0,0.0,0.0,0.0,0.0,0.0,0.0,0.0,0.0,0.0,0.0,0.0,0.0,0.0,0.0,0.0,0.0,0.0,0.0,0.0,0.0,0.0,0.0,0.0,0.0,0.0,0.0,0.0,0.0,0.0,0.0,0.0,0.0,0.0,0.0,0.0,0.0,0.0,0.0,0.0,0.0,0.0,0.0,0.0,0.0,0.0,0.0,0.0,0.0,0.0,0.0,0.0,0.0,0.0,0.0,0.0,0.0,0.0,0.0,0.0,0.0,0.0,0.0,0.0,0.0,0.0,0.0,0.0,0.0,0.0,0.0,0.0,0.0,0.0,0.0,0.0,0.0,0.0,0.0,0.0,0.0,0.0,0.0,0.0,0.0,0.0,0.0,0.0,0.0,-5.6954,-5.7775,-5.8209,-5.8422,-5.8941,-5.9493,0.0,0.0,0.0,0.0,0.0,0.0,0.0,0.0,0.0,0.0,0.0,0.0,0.0,0.0,0.0,0.0,0.0,0.0,0.0,0.0,0.0,0.0,0.0,0.0,0.0,0.0,0.0,0.0,0.0,0.0,0.0,0.0,0.0,0.0,0.0,0.0,0.0,0.0,0.0,0.0,0.0,0.0,0.0,0.0,0.0,0.0,0.0,0.0,0.0,0.0,0.0,0.0,0.0,0.0,0.0,0.0,0.0,0.0,0.0,0.0,0.0,0.0,0.0,0.0,0.0,0.0,0.0,0.0,0.0,0.0,0.0,0.0,0.0,0.0,0.0,0.0,0.0,0.0,0.0,0.0,0.0,0.0,0.0,0.0,0.0,0.0,0.0,0.0,0.0,0.0,0.0,0.0,0.0,0.0,0.0,0.0,0.0,0.0,0.0,0.0,0.0,0.0,0.0,0.0,0.0,0.0,0.0,0.0,0.0,-5.8245,-5.8409,-5.8699,-5.9114,-5.9563,-5.9988,-6.0352,0.0,0.0,0.0,0.0,0.0,0.0,0.0,0.0,0.0,0.0,0.0,0.0,0.0,0.0,0.0,0.0,0.0,0.0,0.0,0.0,0.0,0.0,0.0,0.0,0.0,0.0,0.0,0.0,0.0,0.0,0.0,0.0,0.0,0.0,0.0,0.0,0.0,0.0,0.0,0.0,0.0,0.0,0.0,0.0,0.0,0.0,0.0,0.0,0.0,0.0,0.0,0.0,0.0,0.0,0.0,0.0,0.0,0.0,0.0,0.0,0.0,0.0,0.0,0.0,0.0,0.0,0.0,0.0,0.0,0.0,0.0,0.0,0.0,0.0,0.0,0.0,0.0,0.0,0.0,0.0,0.0,0.0,0.0,0.0,0.0,0.0,0.0,0.0,0.0,0.0,0.0,0.0,0.0,0.0,0.0,0.0,0.0,0.0,0.0,0.0,0.0,0.0,0.0,0.0,0.0,0.0,0.0,0.0,-5.9987,-5.931,-5.9218,-5.9837,-6.0171,-6.0431,0.0,0.0,0.0,0.0,0.0,0.0,0.0,0.0,0.0,0.0,0.0,0.0,0.0,0.0,0.0,0.0,0.0,0.0,0.0,0.0,0.0,0.0,0.0,0.0,0.0,0.0,0.0,0.0,0.0,0.0,0.0,0.0,0.0,0.0,0.0,0.0,0.0,0.0,0.0,0.0,0.0,0.0,0.0,0.0,0.0,0.0,0.0,0.0,0.0,0.0,0.0,0.0,0.0,0.0,0.0,0.0,0.0,0.0,0.0,0.0,0.0,0.0,0.0,0.0,0.0,0.0,0.0,0.0,0.0,0.0,0.0,0.0,0.0,0.0,0.0,0.0,0.0,0.0,0.0,0.0,0.0,0.0,0.0,0.0,0.0,0.0,0.0,0.0,0.0,0.0,0.0,0.0,0.0,0.0,0.0,0.0,0.0,0.0,0.0,0.0,0.0,0.0,0.0,0.0,0.0,0.0,0.0,0.0,0.0,-6.2214,-6.1953,-6.1348,-6.0427,-6.0748,-6.0914,0.0,0.0,0.0,0.0,0.0,0.0,0.0,0.0,0.0,0.0,0.0,0.0,0.0,0.0,0.0,0.0,0.0,0.0,0.0,0.0,0.0,0.0,0.0,0.0,0.0,0.0,0.0,0.0,0.0,0.0,0.0,0.0,0.0,0.0,0.0,0.0,0.0,0.0,0.0,0.0,0.0,0.0,0.0,0.0,0.0,0.0,0.0,0.0,0.0,0.0,0.0,0.0,0.0,0.0,0.0,0.0,0.0,0.0,0.0,0.0,0.0,0.0,0.0,0.0,0.0,0.0,0.0,0.0,0.0,0.0,0.0,0.0,0.0,0.0,0.0,0.0,0.0,0.0,0.0,0.0,0.0,0.0,0.0,0.0,0.0,0.0,0.0,0.0,0.0,0.0,0.0,0.0,0.0,0.0,0.0,0.0,0.0,0.0,0.0,0.0,0.0,0.0,0.0,0.0,0.0,0.0,0.0,0.0,-6.2307,-6.3314,-6.3407,-6.3058,-6.2143,-6.2266,-6.2354,0.0,0.0,0.0,0.0,0.0,0.0,0.0,0.0,0.0,0.0,0.0,0.0,0.0,0.0,0.0,0.0,0.0,0.0,0.0,0.0,0.0,0.0,0.0,0.0,0.0,0.0,0.0,0.0,0.0,0.0,0.0,0.0,0.0,0.0,0.0,0.0,0.0,0.0,0.0,0.0,0.0,0.0,0.0,0.0,0.0,0.0,0.0,0.0,0.0,0.0,0.0,0.0,0.0,0.0,0.0,0.0,0.0,0.0,0.0,0.0,0.0,0.0,0.0,0.0,0.0,0.0,0.0,0.0,0.0,0.0,0.0,0.0,0.0,0.0,0.0,0.0,0.0,0.0,0.0,0.0,0.0,0.0,0.0,0.0,0.0,0.0,0.0,0.0,0.0,0.0,0.0,0.0,0.0,0.0,0.0,0.0,0.0,0.0,0.0,0.0,0.0,0.0,0.0,0.0,0.0,0.0,0.0,0.0,-6.3777,-6.3781,-6.4277,-6.4579,-6.4472,-6.4122,-6.3991,0.0,0.0,0.0,0.0,0.0,0.0,0.0,0.0,0.0,0.0,0.0,0.0,0.0,0.0,0.0,0.0,0.0,0.0,0.0,0.0,0.0,0.0,0.0,0.0,0.0,0.0,0.0,0.0,0.0,0.0,0.0,0.0,0.0,0.0,0.0,0.0,0.0,0.0,0.0,0.0,0.0,0.0,0.0,0.0,0.0,0.0,0.0,0.0,0.0,0.0,0.0,0.0,0.0,0.0,0.0,0.0,0.0,0.0,0.0,0.0,0.0,0.0,0.0,0.0,0.0,0.0,0.0,0.0,0.0,0.0,0.0,0.0,0.0,0.0,0.0,0.0,0.0,0.0,0.0,0.0,0.0,0.0,0.0,0.0,0.0,0.0,0.0,0.0,0.0,0.0,0.0,0.0,0.0,0.0,0.0,0.0,0.0,0.0,0.0,0.0,0.0,0.0,0.0,0.0,0.0,0.0,0.0,0.0,-6.5645,-6.5584,-6.6221,-6.6379,-6.5894,-6.4591,-6.3991,0.0,0.0,0.0,0.0,0.0,0.0,0.0,0.0,0.0,0.0,0.0,0.0,0.0,0.0,0.0,0.0,0.0,0.0,0.0,0.0,0.0,0.0,0.0,0.0,0.0,0.0,0.0,0.0,0.0,0.0,0.0,0.0,0.0,0.0,0.0,0.0,0.0,0.0,0.0,0.0,0.0,0.0,0.0,0.0,0.0,0.0,0.0,0.0,-6.2952,0.0,0.0,0.0,0.0,0.0,0.0,0.0,0.0,0.0,0.0,0.0,0.0,0.0,0.0,0.0,0.0,0.0,0.0,0.0,0.0,0.0,0.0,0.0,0.0,0.0,0.0,0.0,0.0,0.0,0.0,0.0,0.0,0.0,0.0,0.0,0.0,0.0,0.0,0.0,0.0,0.0,0.0,0.0,0.0,0.0,0.0,0.0,0.0,0.0,0.0,0.0,0.0,0.0,0.0,0.0,0.0,0.0,0.0,0.0,-6.6532,-6.6875,-6.7611,-6.7878,-6.7631,-6.6837,-6.6102,0.0,0.0,0.0,0.0,0.0,0.0,0.0,0.0,0.0,0.0,0.0,0.0,0.0,0.0,0.0,0.0,0.0,0.0,0.0,0.0,0.0,0.0,0.0,0.0,0.0,0.0,0.0,0.0,0.0,0.0,0.0,0.0,0.0,0.0,0.0,0.0,0.0,0.0,0.0,0.0,0.0,0.0,0.0,0.0,0.0,0.0,0.0,0.0,0.0,0.0,0.0,0.0,0.0,0.0,0.0,0.0,0.0,0.0,0.0,0.0,0.0,0.0,0.0,0.0,0.0,0.0,0.0,0.0,0.0,0.0,0.0,0.0,0.0,0.0,0.0,0.0,0.0,0.0,0.0,0.0,0.0,0.0,0.0,0.0,0.0,0.0,0.0,0.0,0.0,0.0,0.0,0.0,0.0,0.0,0.0,0.0,0.0,0.0,0.0,0.0,0.0,0.0,0.0,0.0,0.0,0.0,0.0,-6.6109,-6.7227,-6.8061,-6.8722,-6.91,-6.9176,-6.9176,-6.8561,-6.7221,0.0,0.0,0.0,0.0,0.0,0.0,0.0,0.0,0.0,0.0,0.0,0.0,0.0,0.0,0.0,0.0,0.0,0.0,0.0,0.0,0.0,0.0,0.0,0.0,0.0,0.0,0.0,0.0,0.0,0.0,0.0,0.0,0.0,0.0,0.0,0.0,0.0,0.0,-6.4107,-6.3998,0.0,0.0,0.0,0.0,0.0,0.0,0.0,0.0,-6.3907,0.0,0.0,0.0,0.0,0.0,0.0,0.0,0.0,0.0,0.0,0.0,0.0,0.0,0.0,0.0,0.0,0.0,0.0,0.0,0.0,0.0,0.0,0.0,0.0,0.0,0.0,0.0,0.0,0.0,0.0,0.0,0.0,0.0,0.0,0.0,0.0,0.0,0.0,0.0,0.0,0.0,0.0,0.0,0.0,0.0,0.0,0.0,0.0,0.0,0.0,0.0,0.0,0.0,0.0,0.0,0.0,-6.6919,-6.7955,-6.8788,-6.9322,-6.9548,-6.9417,-6.8992,-6.8956,-6.8909,-6.8814,0.0,0.0,0.0,0.0,0.0,0.0,0.0,0.0,0.0,0.0,0.0,0.0,0.0,0.0,0.0,0.0,0.0,0.0,0.0,0.0,0.0,0.0,0.0,0.0,0.0,0.0,0.0,0.0,0.0,0.0,0.0,0.0,0.0,0.0,0.0,0.0,0.0,0.0,0.0,-6.4101,-6.4037,0.0,0.0,0.0,0.0,0.0,0.0,0.0,0.0,-6.5865,0.0,0.0,0.0,0.0,0.0,0.0,0.0,0.0,0.0,0.0,0.0,0.0,0.0,0.0,0.0,0.0,0.0,0.0,0.0,0.0,0.0,0.0,0.0,0.0,0.0,0.0,0.0,0.0,0.0,0.0,0.0,0.0,0.0,0.0,0.0,0.0,0.0,0.0,0.0,0.0,0.0,0.0,0.0,0.0,0.0,0.0,0.0,0.0,0.0,0.0,0.0,0.0,0.0,0.0,0.0,-6.7566,-6.8751,-6.9664,-7.044,-7.057,-7.0482,-7.0247,-7.0247,-7.0309,0.0,0.0,0.0,0.0,0.0,0.0,0.0,0.0,0.0,0.0,0.0,0.0,0.0,0.0,0.0,0.0,0.0,0.0,0.0,0.0,0.0,0.0,0.0,0.0,0.0,0.0,0.0,0.0,0.0,0.0,0.0,0.0,0.0,0.0,0.0,0.0,0.0,0.0,0.0,0.0,-6.5892,-6.6117,-6.605,0.0,0.0,0.0,0.0,0.0,0.0,-6.7641,-6.7479,0.0,0.0,0.0,0.0,0.0,0.0,0.0,0.0,0.0,0.0,0.0,0.0,0.0,0.0,0.0,0.0,0.0,0.0,0.0,0.0,0.0,0.0,0.0,0.0,0.0,0.0,0.0,0.0,0.0,0.0,0.0,0.0,0.0,0.0,0.0,0.0,0.0,0.0,0.0,0.0,0.0,0.0,0.0,0.0,0.0,0.0,0.0,0.0,0.0,0.0,0.0,0.0,0.0,0.0,0.0,-6.7959,-6.9138,-7.0237,-7.1175,-7.1276,-7.1404,-7.1494,-7.1494,-7.1494,0.0,0.0,0.0,0.0,0.0,0.0,0.0,0.0,0.0,0.0,0.0,0.0,0.0,0.0,0.0,0.0,0.0,0.0,0.0,0.0,0.0,0.0,0.0,0.0,0.0,0.0,0.0,0.0,0.0,0.0,0.0,0.0,0.0,0.0,0.0,0.0,0.0,0.0,0.0,0.0,0.0,-6.8037,-6.8176,-6.8054,0.0,0.0,0.0,0.0,-6.866,-6.8683,0.0,0.0,0.0,0.0,0.0,0.0,0.0,0.0,0.0,0.0,0.0,0.0,0.0,0.0,0.0,0.0,0.0,0.0,0.0,0.0,0.0,0.0,0.0,0.0,0.0,0.0,0.0,0.0,0.0,0.0,0.0,0.0,0.0,0.0,0.0,0.0,0.0,0.0,0.0,0.0,0.0,0.0,0.0,0.0,0.0,0.0,0.0,0.0,0.0,0.0,0.0,0.0,0.0,0.0,0.0,0.0,-6.8572,-6.953,-7.0368,-7.0979,-7.1304,-7.1494,-7.1494,-7.1494,-7.1494,0.0,0.0,0.0,0.0,0.0,0.0,0.0,0.0,0.0,0.0,0.0,0.0,0.0,0.0,0.0,0.0,0.0,0.0,0.0,0.0,0.0,0.0,0.0,0.0,0.0,0.0,0.0,0.0,0.0,0.0,0.0,0.0,0.0,0.0,0.0,0.0,0.0,0.0,0.0,0.0,0.0,-6.8214,-6.9039,-6.8981,-6.8862,0.0,0.0,-6.9033,-6.9866,-6.9363,0.0,0.0,0.0,0.0,0.0,0.0,0.0,0.0,0.0,0.0,0.0,0.0,0.0,0.0,0.0,0.0,0.0,0.0,0.0,0.0,0.0,0.0,0.0,0.0,0.0,0.0,0.0,0.0,0.0,0.0,0.0,0.0,0.0,0.0,0.0,0.0,0.0,0.0,0.0,0.0,0.0,0.0,0.0,0.0,0.0,0.0,0.0,0.0,0.0,0.0,0.0,0.0,0.0,0.0,0.0,-6.7253,-6.8752,-7.0025,-7.0847,-7.1146,-7.1368,-7.1494,-7.1494,-7.1593,-7.1656,0.0,0.0,0.0,0.0,0.0,0.0,0.0,0.0,0.0,0.0,0.0,0.0,0.0,0.0,0.0,0.0,0.0,0.0,0.0,0.0,0.0,0.0,0.0,0.0,0.0,0.0,0.0,0.0,0.0,0.0,0.0,0.0,0.0,0.0,0.0,0.0,0.0,0.0,0.0,0.0,0.0,0.0,-6.994,-6.9876,0.0,0.0,0.0,-7.0505,-7.0738,0.0,0.0,0.0,0.0,0.0,0.0,0.0,0.0,0.0,0.0,0.0,0.0,0.0,0.0,0.0,0.0,0.0,0.0,0.0,0.0,0.0,0.0,0.0,0.0,0.0,0.0,0.0,0.0,0.0,0.0,0.0,0.0,0.0,0.0,0.0,0.0,0.0,0.0,0.0,0.0,0.0,0.0,0.0,0.0,0.0,0.0,0.0,0.0,0.0,0.0,0.0,0.0,0.0,0.0,0.0,0.0,0.0,-6.8863,-7.0234,-7.1045,-7.1211,-7.1404,-7.1494,-7.1494,-7.1656,0.0,0.0,0.0,0.0,0.0,0.0,0.0,0.0,0.0,0.0,0.0,0.0,0.0,0.0,0.0,0.0,0.0,0.0,0.0,0.0,0.0,0.0,0.0,0.0,0.0,0.0,0.0,-6.7456,0.0,0.0,0.0,0.0,0.0,0.0,0.0,0.0,0.0,0.0,0.0,0.0,0.0,0.0,-7.0614,-7.0784,-7.0784,-7.0937,0.0,0.0,-7.1801,-7.1397,-7.2871,-7.3607,0.0,0.0,0.0,0.0,0.0,0.0,0.0,0.0,0.0,0.0,0.0,0.0,0.0,0.0,0.0,0.0,0.0,0.0,0.0,0.0,0.0,0.0,0.0,0.0,0.0,0.0,0.0,0.0,0.0,0.0,0.0,0.0,0.0,0.0,0.0,0.0,0.0,0.0,0.0,0.0,0.0,0.0,0.0,0.0,0.0,0.0,0.0,0.0,0.0,0.0,0.0,0.0,0.0,0.0,-6.7869,-6.8746,-7.02,-7.1015,-7.1045,-7.1304,-7.1494,-7.1494,-7.1494,-7.1531,0.0,0.0,0.0,0.0,0.0,0.0,0.0,0.0,0.0,0.0,0.0,0.0,0.0,0.0,0.0,0.0,0.0,0.0,0.0,0.0,0.0,0.0,0.0,0.0,0.0,0.0,0.0,0.0,0.0,0.0,0.0,0.0,0.0,0.0,0.0,0.0,0.0,0.0,0.0,0.0,0.0,-7.0745,-7.1572,-7.1704,-7.1719,0.0,-7.2443,-7.2633,-7.1807,-7.3107,-7.349,-7.1518,0.0,0.0,0.0,0.0,0.0,0.0,0.0,0.0,0.0,0.0,0.0,0.0,0.0,0.0,0.0,0.0,0.0,0.0,0.0,0.0,0.0,0.0,0.0,0.0,0.0,0.0,0.0,0.0,0.0,0.0,0.0,0.0,0.0,0.0,0.0,0.0,0.0,0.0,0.0,0.0,0.0,0.0,0.0,0.0,0.0,0.0,0.0,0.0,0.0,0.0,0.0,0.0,0.0,-6.8246,-6.8822,-7.0628,-7.1601,-7.177,-7.2371,-7.2755,-7.2886,-7.2444,-7.2318,0.0,0.0,0.0,0.0,0.0,0.0,0.0,0.0,0.0,0.0,0.0,0.0,0.0,0.0,0.0,0.0,0.0,0.0,0.0,0.0,0.0,0.0,0.0,0.0,0.0,0.0,0.0,0.0,-7.0376,-7.0433,-7.0426,0.0,0.0,0.0,0.0,0.0,0.0,0.0,0.0,0.0,0.0,-7.1587,-7.2419,-7.2523,0.0,0.0,-7.3682,-7.4023,-7.2535,-7.3723,-7.4168,-7.219,-7.2119,0.0,0.0,0.0,0.0,0.0,0.0,0.0,0.0,0.0,0.0,0.0,0.0,0.0,0.0,0.0,0.0,0.0,0.0,0.0,0.0,0.0,0.0,0.0,0.0,0.0,0.0,0.0,0.0,0.0,0.0,0.0,0.0,0.0,0.0,0.0,0.0,0.0,0.0,0.0,0.0,0.0,0.0,0.0,0.0,0.0,0.0,0.0,0.0,0.0,0.0,0.0,0.0,-6.8802,-6.9526,-7.1055,-7.2107,-7.2494,-7.3033,-7.3492,-7.3627,-7.3116,-7.3023,0.0,0.0,0.0,0.0,0.0,0.0,0.0,0.0,0.0,0.0,0.0,0.0,0.0,0.0,0.0,0.0,0.0,0.0,0.0,0.0,0.0,0.0,0.0,0.0,0.0,0.0,0.0,0.0,-7.1885,-7.194,-7.193,0.0,0.0,0.0,0.0,0.0,0.0,0.0,0.0,0.0,0.0,-7.2432,-7.326,-7.3557,-7.3605,-7.334,-7.4688,-7.512,-7.3297,-7.4414,-7.4827,-7.2958,0.0,0.0,0.0,0.0,0.0,0.0,0.0,0.0,0.0,0.0,0.0,0.0,0.0,0.0,0.0,0.0,0.0,0.0,0.0,0.0,0.0,0.0,0.0,0.0,0.0,0.0,0.0,0.0,0.0,0.0,-4.7658,0.0,0.0,0.0,0.0,0.0,0.0,0.0,0.0,0.0,0.0,0.0,0.0,0.0,0.0,0.0,0.0,0.0,0.0,0.0,0.0,0.0,0.0,-6.9401,-7.0828,-7.1552,-7.2326,-7.3042,-7.3288,-7.346,-7.346,-7.3389,-7.3456,-7.3658,0.0,0.0,0.0,0.0,0.0,0.0,0.0,0.0,0.0,0.0,0.0,0.0,0.0,0.0,0.0,0.0,0.0,0.0,0.0,0.0,0.0,0.0,0.0,0.0,0.0,0.0,-7.1897,-7.1955,-7.2065,0.0,0.0,0.0,0.0,0.0,0.0,0.0,0.0,0.0,0.0,-7.3002,-7.3299,-7.411,-7.4839,-7.5077,-7.4168,-7.541,-7.5791,-7.4066,-7.5089,-7.5424,0.0,0.0,0.0,0.0,0.0,0.0,0.0,0.0,0.0,0.0,0.0,0.0,0.0,0.0,0.0,0.0,0.0,0.0,0.0,0.0,0.0,0.0,0.0,0.0,0.0,0.0,0.0,-4.7892,-4.912,0.0,0.0,0.0,0.0,0.0,0.0,0.0,0.0,0.0,0.0,0.0,-5.8991,-5.9101,0.0,0.0,0.0,0.0,0.0,0.0,0.0,0.0,0.0,0.0,0.0,0.0,-7.0279,-7.0434,-7.2332,-7.3475,-7.3902,-7.4369,-7.4655,-7.4761,-7.4398,-7.41,-7.3892,0.0,0.0,0.0,0.0,0.0,0.0,0.0,0.0,0.0,0.0,0.0,0.0,0.0,0.0,0.0,0.0,0.0,0.0,0.0,0.0,0.0,0.0,0.0,0.0,0.0,-7.3559,0.0,0.0,0.0,0.0,0.0,0.0,0.0,0.0,0.0,0.0,0.0,-7.4612,-7.5424,-7.5541,-7.5891,-7.6676,-7.6976,-7.7019,0.0,0.0,0.0,0.0,0.0,0.0,0.0,0.0,0.0,0.0,0.0,0.0,0.0,0.0,-6.989,-6.9834,-6.8816,-6.7883,-6.7615,0.0,0.0,0.0,0.0,0.0,0.0,0.0,0.0,0.0,0.0,0.0,0.0,0.0,0.0,-4.8947,0.0,-5.053,0.0,0.0,0.0,0.0,0.0,0.0,0.0,0.0,-5.8224,-5.9444,-5.9568,-6.0015,-6.0215,0.0,-6.1606,-6.2512,0.0,0.0,0.0,0.0,0.0,0.0,0.0,0.0,-7.1081,-7.1237,-7.3074,-7.4226,-7.4583,-7.5012,-7.5297,-7.5406,-7.5154,-7.4716,-7.4157,-7.5043,-7.5235,0.0,0.0,0.0,0.0,0.0,0.0,0.0,0.0,0.0,0.0,0.0,0.0,0.0,0.0,0.0,0.0,0.0,0.0,0.0,0.0,0.0,0.0,0.0,-7.4427,0.0,0.0,0.0,0.0,0.0,0.0,0.0,0.0,0.0,-7.4792,-7.5259,-7.6008,-7.7088,-7.7243,-7.7537,-7.83,0.0,0.0,0.0,0.0,0.0,0.0,0.0,-7.6255,-7.4819,-7.4593,-7.4552,-7.4316,-7.3815,-7.3352,-7.3017,0.0,0.0,-7.07,-6.9635,-6.8699,-6.8362,-6.8297,-6.8188,-6.7877,-6.7697,-6.774,0.0,0.0,0.0,0.0,0.0,0.0,0.0,0.0,-4.8744,-4.9889,0.0,-5.1247,0.0,0.0,0.0,0.0,0.0,-5.5049,0.0,0.0,-5.9758,-6.0075,-5.9398,-6.0595,-6.0946,-6.0814,-6.3163,-6.4475,-6.4784,-6.4511,0.0,0.0,0.0,0.0,0.0,0.0,-7.1768,-7.3102,-7.3668,-7.4367,-7.5153,-7.5189,-7.5225,-7.5225,-7.5585,-7.5438,-7.4752,-7.576,-7.6,-7.5227,-7.5899,0.0,0.0,0.0,0.0,0.0,0.0,0.0,0.0,0.0,0.0,0.0,0.0,0.0,0.0,0.0,0.0,0.0,0.0,0.0,0.0,-7.4444,0.0,0.0,0.0,0.0,0.0,0.0,0.0,0.0,0.0,0.0,-7.593,-7.5828,-7.6342,-7.7891,0.0,0.0,0.0,0.0,-7.9932,-7.9147,-7.9516,-7.9635,-7.8738,-7.8468,-7.8338,-7.8199,0.0,0.0,-7.715,-7.7109,-7.691,-7.6178,-7.4785,-7.3225,-7.0791,-7.0362,-7.0124,-6.9332,-6.918,-6.8803,-6.805,-6.7939,-6.8057,-4.3359,0.0,0.0,0.0,0.0,-4.4256,-4.5815,-4.7963,-4.9107,-5.0403,-5.1792,-5.2476,0.0,0.0,0.0,0.0,0.0,0.0,-5.6698,-5.8492,-6.0648,-6.1463,-6.1283,-6.2348,-6.2491,-6.2052,-6.3808,-6.471,-6.488,-6.6246,-6.7131,-6.7468,0.0,0.0,0.0,0.0,-7.2078,-7.2429,-7.3533,-7.4496,-7.5189,-7.5225,-7.5262,-7.5442,-7.5657,-7.576,-7.561,-7.6591,-7.7031,-7.681,-7.7478,0.0,0.0,0.0,0.0,0.0,0.0,0.0,0.0,0.0,0.0,0.0,0.0,0.0,0.0,0.0,0.0,0.0,0.0,0.0,-7.7909,-7.7531,-7.7497,0.0,0.0,0.0,0.0,0.0,0.0,0.0,0.0,0.0,-7.8981,-7.9058,-7.9253,0.0,0.0,-8.0683,-8.0849,-8.1035,-8.1088,-8.0782,-8.0924,0.0,-8.0384,-8.0254,-8.0126,-7.9851,-7.9389,-7.8773,-7.7861,-7.7313,-7.6657,-7.5685,-7.4666,-7.3568,-7.2167,-7.1368,-7.0948,-7.0753,-7.0223,-6.9731,-6.9538,-6.9389,-6.9353,-4.4336,-4.3808,-4.3464,-4.3859,-4.503,-4.5712,-4.7313,-4.9513,-5.0578,-5.1771,-5.2907,-5.3487,-5.3618,-5.3231,-5.3168,0.0,0.0,0.0,-5.793,-5.9714,-6.1645,-6.2258,-6.1822,-6.3003,-6.3373,-6.3232,-6.4842,-6.5969,-6.6763,-6.8397,-6.9257,-6.9523,0.0,0.0,-6.9815,-7.2313,-7.351,-7.3473,-7.4808,-7.5707,-7.6117,-7.5831,-7.5835,-7.6087,-7.5907,-7.5904,-7.6003,-7.6993,-7.7487,-7.7473,-7.8146,-7.8549,0.0,0.0,0.0,0.0,0.0,0.0,0.0,0.0,0.0,0.0,0.0,-7.7901,-7.7862,0.0,0.0,0.0,-7.9194,-7.9375,-7.9559,-7.9182,0.0,0.0,0.0,0.0,0.0,0.0,0.0,-7.989,-7.9756,-7.995,-8.0777,-8.0916,-8.0916,-8.0894,-8.1298,-8.174,-8.1993,0.0,-8.2122,-8.2393,-8.2405,-8.2284,-8.2109,-8.2047,-8.1837,-8.1291,-8.0761,-8.0113,-7.9203,-7.8591,-7.7871,-7.6884,-7.6198,-7.5512,-7.4598,-7.3604,-7.2656,-7.2053,-7.1481,-7.1102,-7.1213,-7.11,-7.1064,-4.5117,-4.5019,-4.4284,-4.5027,-4.6838,-4.7682,-4.9299,-5.1178,-5.2815,-5.3557,-5.3636,-5.4377,-5.4386,-5.3948,-5.3695,0.0,-5.7092,-5.8202,-5.9529,-6.132,-6.2523,-6.254,-6.1493,-6.3003,-6.4005,-6.446,-6.6228,-6.8042,-6.974,-7.0568,-7.1322,-7.2049,-7.1419,-7.1209,-7.1548,-7.4067,-7.5442,-7.5527,-7.6745,-7.7433,-7.7473,-7.683,-7.6659,-7.6948,-7.6231,-7.5977,-7.6112,-7.6911,-7.7476,-7.751,-7.809,-7.8549,-7.8655,0.0,0.0,0.0,0.0,0.0,0.0,0.0,0.0,0.0,0.0,0.0,0.0,0.0,0.0,0.0,-7.9624,0.0,-7.9867,-7.9834,0.0,0.0,0.0,-7.9821,-7.9867,-7.9636,-7.9848,-8.0698,0.0,0.0,-8.1484,-8.16,-8.1577,-8.1577,-8.1654,-8.194,-8.2559,-8.2725,-8.3034,-8.3606,-8.374,-8.3719,-8.368,-8.3664,-8.333,-8.2676,-8.2237,-8.1681,-8.0805,-8.043,-7.9971,-7.8785,-7.8538,-7.8063,-7.7392,-7.6186,-7.5199,-7.3459,-7.2851,-7.2736,-7.2584,-7.2509,-7.2471,-4.617,-4.6457,-4.6336,-4.636,-4.668,-4.8211,-4.9853,-5.1278,-5.3227,-5.4353,-5.4952,-5.5496,-5.566,-5.5391,-5.528,-5.6228,-5.8133,-5.8851,-6.0432,-6.2617,-6.315,-6.38,-6.4477,-6.5127,-6.5849,-6.6647,-6.8084,-6.9335,-7.015,-7.1425,-7.2208,-7.2534,-7.3117,-7.3043,-7.2412,-7.4001,-7.5016,-7.5527,-7.6348,-7.7015,-7.7473,-7.733,-7.7372,-7.7558,-7.6876,-7.6625,-7.6906,-7.6886,-7.7112,-7.751,-7.7863,-7.8294,-7.8655,-7.8602,0.0,0.0,0.0,0.0,0.0,0.0,0.0,0.0,0.0,-7.9625,-7.9643,0.0,-8.0135,0.0,-8.1403,-8.1594,-8.1602,-8.107,0.0,0.0,-8.105,-8.0875,-8.1519,-8.136,-8.1289,-8.1519,-8.1342,-8.1271,-8.1453,-8.1453,-8.1427,-8.1374,-8.2006,-8.2444,-8.2497,-8.3143,-8.3568,-8.374,-8.3757,-8.395,-8.4535,-8.4417,-8.4237,-8.4253,-8.3292,-8.2263,-8.1611,-8.127,-8.0497,-7.8963,-7.8495,-7.8106,-7.7326,-7.6821,-7.6595,-7.5971,-7.4544,-7.3073,-7.2546,-7.2509,-7.2509,-4.7007,-4.7334,-4.7592,-4.7862,-4.8272,-4.9661,-5.1103,-5.2651,-5.4463,-5.5505,-5.588,-5.6148,-5.6056,-5.5583,-5.5701,-5.6836,-5.8893,-5.9515,-6.12,-6.3531,-6.3862,-6.4546,-6.5498,-6.588,-6.6744,-6.8029,-6.8977,-7.0123,-7.1513,-7.2382,-7.2943,-7.3536,-7.4228,-7.4484,-7.4424,-7.5489,-7.6365,-7.6992,-7.7762,-7.8235,-7.8619,-7.8298,-7.8195,-7.8456,-7.7702,-7.7523,-7.7909,-7.7764,-7.7804,-7.8242,-7.859,-7.8721,-7.8693,-7.8938,-7.8975,0.0,0.0,0.0,0.0,0.0,0.0,0.0,0.0,0.0,0.0,0.0,-8.1026,-8.1765,-8.2084,-8.2241,-8.226,-8.1837,-8.1777,-8.2261,-8.1792,-8.1661,-8.213,-8.1959,-8.1815,-8.1738,-8.1608,-8.1633,-8.1955,-8.2033,-8.2122,-8.2428,-8.3228,-8.3586,-8.3191,-8.347,-8.401,-8.4643,-8.4805,-8.4927,-8.5427,-8.5301,-8.5078,-8.4873,-8.4131,-8.3257,-8.2528,-8.2149,-8.1606,-8.0566,-7.9903,-7.9583,-7.9252,-7.8803,-7.8455,-7.7937,-7.7002,-7.5733,-7.4691,-7.4426,-7.4426,-4.7742,-4.7955,-4.8392,-4.938,-5.0717,-5.1572,-5.2732,-5.4414,-5.6033,-5.6844,-5.6865,-5.665,-5.6208,-5.5573,-5.5957,-5.7525,-5.9764,-6.0393,-6.1997,-6.4445,-6.4514,-6.5024,-6.5859,-6.6148,-6.7353,-6.9263,-6.9692,-7.0961,-7.3143,-7.3343,-7.3874,-7.4573,-7.5071,-7.5687,-7.6485,-7.7456,-7.8357,-7.9069,-7.9586,-7.9977,-8.013,-7.9262,-7.9017,-7.9356,-7.8637,-7.8494,-7.9049,-7.883,-7.892,-7.929,-7.9502,-7.9427,-7.9029,-7.946,-7.9589,0.0,-7.9424,0.0,0.0,0.0,0.0,0.0,0.0,0.0,0.0,-8.1451,-8.166,-8.1974,-8.2171,-8.2305,-8.2328,-8.2292,-8.23,-8.2304,-8.2227,-8.214,-8.2131,-8.1929,-8.1796,-8.1737,-8.1701,-8.1968,-8.2625,-8.2896,-8.3218,-8.3718,-8.4309,-8.4551,-8.4146,-8.4087,-8.4674,-8.603,-8.6159,-8.594,-8.5983,-8.5906,-8.5604,-8.5137,-8.4662,-8.4209,-8.337,-8.3104,-8.2792,-8.2285,-8.1382,-8.1007,-8.1754,-8.0978,-8.0142,-7.9489,-7.9273,-7.8681,-7.7191,-7.6708,-7.701,-4.8076,-4.8882,-4.888,-5.0061,-5.2037,-5.2876,-5.3865,-5.4774,-5.6589,-5.7679,-5.8249,-5.8631,-5.8345,-5.767,-5.8517,-5.9899,-6.1323,-6.188,-6.3736,-6.6361,-6.5409,-6.6102,-6.8153,-6.8034,-6.8789,-7.0663,-7.181,-7.275,-7.3701,-7.467,-7.5039,-7.4639,-7.6274,-7.7086,-7.7009,0.0,0.0,0.0,-7.9822,-7.9899,-7.9977,-7.9757,-7.9762,-7.9956,-7.9303,0.0,-7.9849,-7.9239,-7.9224,-7.9949,-7.957,0.0,0.0,0.0,0.0,0.0,0.0,0.0,0.0,0.0,0.0,0.0,-8.1085,-8.1263,-8.1375,-8.1698,-8.1934,-8.1987,-8.221,-8.2293,-8.2299,-8.2295,-8.2304,-8.2304,-8.2188,-8.2128,-8.2103,-8.1912,-8.1796,-8.1775,-8.2289,-8.2636,-8.2844,-8.3308,-8.3718,-8.3933,-8.3924,-8.4203,-8.4802,-8.5351,-8.5869,-8.612,-8.6094,-8.606,-8.6031,-8.535,-8.5197,-8.5458,-8.4786,-8.4133,-8.406,-8.3866,-8.3003,-8.1672,-8.0969,-8.0885,-8.0865,-8.0518,-8.0405,-8.0218,-8.018,-7.9515,-7.7492,-7.701,-7.701,-4.9343,-4.9702,-4.9999,-5.1424,0.0,-5.3822,-5.4905,-5.6334,-5.7461,-5.813,-5.873,-5.9136,-5.8981,-5.8661,-5.9385,-6.0747,-6.2673,-6.3162,-6.4804,-6.7393,-6.6922,-6.7724,-6.9427,-6.9628,-7.061,-7.2349,-7.3447,-7.4366,-7.5058,-7.5698,-7.5903,-7.5907,-7.7176,-7.7816,-7.8029,-7.8897,-7.9585,-7.9899,-7.9899,-7.9899,-7.9899,-7.9899,-7.9977,-8.0207,-7.9952,0.0,0.0,0.0,0.0,0.0,0.0,0.0,0.0,-8.1119,0.0,-8.1492,-8.1687,-8.1588,-8.1246,-8.1494,-8.142,-8.0926,-8.1186,-8.1426,-8.1569,-8.1843,-8.2038,-8.2112,-8.2218,-8.2293,-8.2293,-8.232,-8.2297,-8.2304,-8.2217,-8.214,-8.2059,-8.1951,-8.1834,-8.1812,-8.2405,-8.3009,-8.3411,-8.4134,-8.4739,-8.5109,-8.5159,-8.5246,-8.5671,-8.5668,-8.5729,-8.6017,-8.6094,-8.606,-8.6026,-8.5651,-8.5347,-8.5873,-8.5468,-8.5091,-8.5125,-8.5052,-8.4595,-8.3483,-8.2555,-8.1886,-8.2036,-8.1603,-8.0981,-8.0593,-8.0731,-8.033,-7.8473,-7.8069,-7.8031,-5.0466,-5.0705,-5.1232,-5.2542,-5.4659,-5.469,-5.6116,-5.8176,0.0,0.0,0.0,-5.949,-5.9561,-5.9373,-6.0042,-6.1593,-6.375,-6.4414,-6.5965,-6.8248,-6.8555,-6.913,-7.0249,-7.1131,-7.2338,-7.3628,-7.4767,-7.5726,-7.6523,-7.6627,-7.6937,-7.7379,-7.8148,-7.8837,-7.9443,-8.001,-8.0249,-8.0292,-8.0042,-7.9899,-7.9899,-7.9899,-8.0012,-8.013,-8.0354,-8.0876,-8.1709,-8.1296,-8.1403,-8.2177,-8.2124,-8.1903,-8.1659,-8.2162,-8.2308,-8.2134,-8.246,-8.239,-8.1786,-8.2183,-8.215,-8.142,-8.1801,-8.2023,-8.1951,-8.2139,-8.2374,-8.2621,-8.2702,-8.2762,-8.2768,-8.2606,-8.255,-8.2539,-8.2344,-8.2164,-8.2036,-8.1968,-8.1873,-8.1871,-8.2599,-8.3343,-8.4002,-8.4933,-8.5759,-8.6377,-8.6428,-8.6556,-8.6394,-8.5784,-8.5543,-8.6043,-8.6159,-8.6126,-8.6094,-8.6094,-8.6094,-8.6094,-8.6094,-8.6094,-8.606,-8.6094,-8.6022,-8.5389,-8.4059,-8.3176,-8.3307,-8.233,-8.1381,-8.0556,-8.0931,-8.0969,-7.9616,-7.9165,-7.9053,-5.0829,-5.1715,-5.2069,-5.3387,-5.5235,-5.5983,-5.7526,-5.9334,-5.9011,-5.9553,-6.0708,-6.0992,-6.0779,-6.0412,-6.2338,-6.3569,-6.4498,-6.5992,-6.7794,-6.9516,-6.9482,-6.9873,-7.0857,-7.23,-7.3175,-7.374,-7.5308,-7.6655,-7.7566,-7.791,-7.8013,-7.8319,-7.9766,-8.0889,-8.1489,-8.1603,-8.1738,-8.1862,-8.0577,-7.9899,-7.9899,-7.9899,-7.9899,-7.9977,-8.0171,-8.0622,-8.1506,-8.1622,-8.2128,-8.3132,-8.2556,-8.2557,-8.3356,-8.2869,-8.3007,-8.3903,-8.3733,-8.3621,-8.3669,-8.3515,-8.3362,-8.3247,-8.3567,-8.3518,-8.298,-8.3169,-8.3625,-8.4337,-8.4341,-8.4492,-8.4472,-8.3833,-8.3413,-8.3359,-8.2695,-8.2226,-8.2221,-8.2156,-8.2066,-8.195,-8.3173,-8.401,-8.4273,-8.5462,-8.6377,-8.6571,-8.6583,-8.65,-8.6443,-8.6307,-8.6238,-8.6285,-8.6254,-8.6191,-8.6126,-8.6094,-8.6094,-8.6094,-8.6094,-8.606,-8.6065,-8.606,-8.5762,-8.4747,-8.3754,-8.2904,-8.2558,-8.1472,-8.0828,-8.0467,-8.058,-8.0403,-7.9547,-7.9359,-7.9263,-5.2402,-5.3113,-5.4015,-5.5291,-5.7019,-5.857,-5.9854,-6.0597,-6.0839,-6.0932,-6.0814,-6.1448,-6.149,-6.1431,-6.2683,-6.4428,-6.6173,-6.7125,-6.8808,-7.0842,-7.1088,-7.1298,-7.1963,-7.3509,-7.4403,-7.4861,-7.6594,-7.802,-7.9002,-7.928,-7.969,-8.0304,-8.1273,-8.2013,-8.2537,-8.2241,-8.2139,-8.2183,-8.1505,-8.1148,-8.1148,-8.1148,-8.1227,-8.1305,-8.1425,-8.1703,-8.2267,-8.2398,-8.2739,-8.3355,-8.3077,-8.3116,-8.3747,-8.3447,-8.3622,-8.4367,-8.4833,-8.5029,-8.4859,-8.4509,-8.4125,-8.3757,-8.3966,-8.4238,-8.4494,-8.4325,-8.4376,-8.4766,-8.481,-8.4798,-8.4854,-8.4515,-8.4326,-8.4319,-8.3903,-8.3436,-8.3018,-8.3243,-8.3237,-8.2859,-8.399,-8.4932,-8.4863,-8.5938,-8.6636,-8.661,-8.6583,-8.6556,-8.65,-8.65,-8.6472,-8.6384,-8.6323,-8.6184,-8.6159,-8.6126,-8.6094,-8.6094,-8.6094,-8.606,-8.6065,-8.6099,-8.5873,-8.5312,-8.4439,-8.3447,-8.2618,-8.1937,-8.1094,-7.994,-8.0203,-8.015,-7.9623,-7.9406,-7.9359,-5.3528,-5.4245,-5.5474,-5.6972,-5.8543,-6.1006,-6.1801,-6.1534,-6.2577,-6.2399,-6.153,-6.2031,-6.2332,-6.2588,-6.3392,-6.5018,-6.7268,-6.8256,-6.9748,-7.1523,-7.2239,-7.2486,-7.2764,-7.4414,-7.5443,-7.5938,-7.7577,-7.9222,-8.0308,-8.0242,-8.09,-8.2069,-8.2404,-8.2801,-8.328,-8.2949,-8.2754,-8.2754,-8.2754,-8.2576,-8.2219,-8.2183,-8.2299,-8.2421,-8.2499,-8.2641,-8.2957,-8.2952,-8.319,-8.3653,-8.3616,-8.3788,-8.4029,-8.4029,-8.4207,-8.4707,-8.5667,-8.6138,-8.5935,-8.5654,-8.5158,-8.4425,-8.4572,-8.5053,-8.5796,-8.5611,-8.5351,-8.5361,-8.5473,-8.5456,-8.5423,-8.526,-8.519,-8.5171,-8.4995,-8.4529,-8.3955,-8.4327,-8.4426,-8.3826,-8.4767,-8.5557,-8.5646,-8.6195,-8.6649,-8.6648,-8.661,-8.6636,-8.6636,-8.6636,-8.6583,-8.65,-8.6345,-8.6246,-8.6215,-8.6223,-8.6191,-8.6126,-8.6197,-8.6197,-8.6197,-8.6126,-8.6126,-8.5973,-8.5262,-8.4322,-8.3295,-8.2669,-8.1723,-8.0348,-8.0377,-8.0406,-7.9642,-7.95,-7.9546,-5.4082,-5.4677,-5.5635,-5.716,-5.9181,-6.1754,-6.2584,-6.2167,-6.3397,-6.3719,-6.3361,-6.3271,-6.3627,-6.4221,-6.5182,-6.6251,-6.7237,-6.9482,-7.059,-7.0888,-7.2149,-7.2743,-7.2795,-7.4684,-7.5707,-7.5938,-7.761,-7.9628,-8.129,-8.0895,-8.1288,-8.2642,-8.3166,-8.3521,-8.3777,-8.416,-8.436,-8.4396,-8.4396,-8.3682,-8.229,-8.2183,-8.2219,-8.2183,-8.2493,-8.2602,-8.2855,-8.2883,-8.3447,-8.4376,-8.4413,-8.4435,-8.4666,-8.4685,-8.4979,-8.561,-8.6146,-8.6576,-8.7183,-8.7175,-8.6819,-8.6138,-8.6249,-8.6489,-8.669,-8.6933,-8.7097,-8.7096,-8.712,-8.7017,-8.7095,-8.6455,-8.6041,-8.6012,-8.5468,-8.4844,-8.476,-8.4727,-8.4653,-8.4498,-8.5136,-8.5574,-8.5638,-8.6234,-8.6649,-8.6713,-8.6701,-8.6713,-8.6751,-8.6713,-8.6687,-8.6662,-8.6571,-8.6461,-8.6315,-8.6345,-8.6345,-8.6254,-8.6285,-8.6323,-8.6323,-8.6254,-8.6223,-8.6146,-8.5549,-8.4729,-8.4202,-8.3637,-8.2491,-8.1444,-8.1051,-8.0813,-7.9993,-7.9728,-7.9728,-5.5091,-5.565,-5.749,-5.9363,-6.1296,-6.3244,-6.3567,-6.3045,-6.4831,-6.5272,-6.477,-6.5052,-6.5016,-6.4718,-6.6121,-6.7541,-6.908,-7.0692,-7.1804,-7.2427,-7.3174,-7.3461,-7.3754,-7.5039,-7.6131,-7.7236,-7.8563,-8.026,-8.2033,-8.2657,-8.3182,-8.3705,-8.4011,-8.4172,-8.4136,-8.4456,-8.461,-8.461,-8.461,-8.4503,-8.4324,-8.386,-8.3692,-8.3772,-8.3808,-8.3929,-8.4277,-8.4308,-8.4595,-8.5232,-8.5254,-8.535,-8.5524,-8.5638,-8.5934,-8.6604,-8.7666,-8.8462,-8.8829,-8.8863,-8.8353,-8.7156,-8.732,-8.7498,-8.7641,-8.7454,-8.7515,-8.7975,-8.769,-8.7393,-8.7368,-8.7063,-8.6879,-8.6858,-8.6598,-8.6211,-8.5659,-8.5512,-8.539,-8.54,-8.5559,-8.5913,-8.6234,-8.6553,-8.6737,-8.6751,-8.6776,-8.6761,-8.6761,-8.6737,-8.6687,-8.6662,-8.6662,-8.6583,-8.6414,-8.6414,-8.6375,-8.6285,-8.6323,-8.6384,-8.6384,-8.6323,-8.6254,-8.6285,-8.5844,-8.5253,-8.4583,-8.3711,-8.2722,-8.2185,-8.1568,-8.1064,-8.0098,-7.9898,-7.9816,-5.585,-5.6767,-5.9154,-6.0928,-6.2315,-6.3978,-6.4406,-6.4103,-6.5746,-6.6253,-6.587,-6.6554,-6.649,-6.6164,-6.7129,-6.867,-7.0621,-7.1702,-7.2767,-7.4021,-7.4223,-7.4584,-7.4985,-7.5846,-7.7036,-7.8405,-7.943,-8.0892,-8.267,-8.3948,-8.4398,-8.4239,-8.4471,-8.4452,-8.4255,-8.4681,-8.4931,-8.4967,-8.5109,-8.5538,-8.593,-8.5324,-8.5013,-8.5141,-8.4881,-8.4901,-8.5331,-8.5258,-8.5484,-8.605,-8.6073,-8.617,-8.6383,-8.6574,-8.6975,-8.7705,-8.9061,-8.9917,-8.987,-8.9867,-8.9234,-8.7901,-8.7888,-8.7985,-8.7889,-8.7546,-8.7571,-8.8043,-8.7711,-8.7377,-8.7393,-8.7401,-8.7407,-8.742,-8.7451,-8.7186,-8.6557,-8.636,-8.6306,-8.628,-8.6277,-8.634,-8.6747,-8.6838,-8.6809,-8.6824,-8.6848,-8.6793,-8.677,-8.6785,-8.6761,-8.6713,-8.6737,-8.6687,-8.65,-8.6556,-8.6461,-8.6404,-8.6404,-8.65,-8.6443,-8.6384,-8.6315,-8.6375,-8.6315,-8.6138,-8.5606,-8.4494,-8.3407,-8.2874,-8.211,-8.107,-8.0186,-8.0026,-7.9988,-5.658,-5.7841,-6.059,-6.1585,-6.1341,-6.3699,-6.4556,-6.4512,-6.6001,-6.665,-6.6792,-6.7349,-6.776,-6.8214,-6.8392,-6.9269,-7.1076,-7.2526,-7.3699,-7.448,-7.5054,-7.5764,-7.6426,-7.7397,-7.8345,-7.9333,-8.0266,-8.1391,-8.277,-8.3948,-8.4331,-8.4065,-8.4437,-8.4452,-8.4242,-8.5169,-8.5752,-8.5787,-8.6323,-8.6787,-8.6751,-8.6144,-8.5752,-8.5835,-8.5131,-8.4979,-8.519,-8.5294,-8.5809,-8.6747,-8.6747,-8.6869,-8.7086,-8.7417,-8.8027,-8.8956,-9.0143,-9.0493,-8.9952,-8.9906,-8.9305,-8.8045,-8.7913,-8.7791,-8.7578,-8.7323,-8.7351,-8.7448,-8.7536,-8.7429,-8.7377,-8.7393,-8.742,-8.7401,-8.7387,-8.7366,-8.7382,-8.7088,-8.7214,-8.716,-8.7055,-8.6941,-8.6924,-8.6902,-8.6899,-8.6916,-8.6877,-8.6899,-8.6941,-8.692,-8.6877,-8.6854,-8.6854,-8.6832,-8.6662,-8.6687,-8.6713,-8.6597,-8.6571,-8.6662,-8.6583,-8.65,-8.6528,-8.65,-8.6472,-8.6433,-8.6451,-8.5902,-8.4927,-8.3777,-8.2072,-8.0959,-8.0961,-8.0304,-8.0228,-5.7306,-5.9521,-6.1155,-6.2255,-6.3145,-6.4178,-6.4875,-6.5477,-6.6694,-6.7385,-6.7638,-6.8306,-6.8943,-6.978,-7.0378,-7.1376,-7.2749,-7.4196,-7.5036,-7.5352,-7.5693,-7.6366,-7.7436,-7.8002,-7.9198,-8.0734,-8.1393,-8.2309,-8.3665,-8.4505,-8.4893,-8.4797,-8.5116,-8.5378,-8.5513,-8.5948,-8.6368,-8.6537,-8.6787,-8.7143,-8.7572,-8.6894,-8.6715,-8.7143,-8.5585,-8.5117,-8.6061,-8.6025,-8.6444,-8.7576,-8.7638,-8.77,-8.7823,-8.8354,-8.9062,-8.9844,-9.0488,-9.08,-9.0567,-9.0273,-8.9694,-8.872,-8.8306,-8.8322,-8.849,-8.7907,-8.7651,-8.8494,-8.8362,-8.7983,-8.7458,-8.7377,-8.742,-8.7397,-8.7401,-8.7405,-8.7303,-8.6901,-8.6644,-8.7125,-8.7206,-8.7076,-8.7037,-8.7001,-8.6962,-8.7001,-8.6962,-8.6962,-8.6943,-8.6902,-8.6899,-8.6854,-8.6832,-8.6832,-8.6832,-8.6832,-8.6832,-8.6761,-8.6713,-8.6713,-8.6687,-8.6636,-8.6636,-8.661,-8.6583,-8.6544,-8.6559,-8.6191,-8.536,-8.393,-8.2187,-8.1918,-8.2225,-8.1345,-8.1116,-5.8418,-6.0432,-6.1874,-6.292,-6.4104,-6.4677,-6.5489,-6.6259,-6.7312,-6.7941,-6.8407,-6.897,-6.9907,-7.0987,-7.2271,-7.3541,-7.4575,-7.5476,-7.6121,-7.65,-7.6344,-7.7056,-7.8378,-7.8794,-8.0243,-8.2386,-8.2932,-8.3641,-8.448,-8.4979,-8.527,-8.5446,-8.5964,-8.6126,-8.6294,-8.6802,-8.7116,-8.7322,-8.7536,-8.7964,-8.8321,-8.7679,-8.7669,-8.8052,-8.6619,-8.603,-8.6902,-8.7156,-8.7684,-8.8366,-8.8493,-8.8468,-8.8533,-8.9081,-8.9665,-9.0345,-9.0719,-9.0915,-9.0875,-9.0461,-8.9861,-8.9163,-8.8561,-8.8439,-8.8762,-8.7814,-8.7935,-8.8586,-8.8884,-8.8311,-8.7894,-8.775,-8.7674,-8.7465,-8.7397,-8.7401,-8.7366,-8.6836,-8.6828,-8.7191,-8.7259,-8.7176,-8.7144,-8.7111,-8.7055,-8.7037,-8.6998,-8.698,-8.6962,-8.6943,-8.6941,-8.6899,-8.686,-8.6881,-8.6902,-8.6943,-8.692,-8.6816,-8.677,-8.6809,-8.6824,-8.6737,-8.6737,-8.6751,-8.6751,-8.6713,-8.6546,-8.618,-8.5221,-8.3934,-8.3142,-8.2722,-8.2607,-8.2225,-8.1996,-5.9886,-6.0613,-6.2434,-6.3498,-6.4178,-6.5075,-6.5936,-6.6949,-6.7712,-6.8507,-6.9183,-6.9345,-7.0334,-7.2078,-7.3567,-7.512,-7.6385,-7.6293,-7.6753,-7.7714,-7.7396,-7.8245,-7.9905,-8.0149,-8.1609,-8.4152,-8.4735,-8.4957,-8.5288,-8.5405,-8.5675,-8.6263,-8.6651,-8.6744,-8.6364,-8.7493,-8.8107,-8.8214,-8.8749,-8.9178,-8.9213,-8.85,-8.8446,-8.8915,-8.8274,-8.7829,-8.7669,-8.8793,-8.9313,-8.9284,-8.9236,-8.9317,-8.9249,-8.9452,-8.9887,-9.047,-9.0798,-9.0877,-9.0839,-9.0394,-8.987,-8.9279,-8.8515,-8.8012,-8.7811,-8.741,-8.739,-8.7897,-8.8377,-8.8623,-8.8623,-8.8607,-8.8296,-8.7596,-8.7486,-8.7407,-8.7368,-8.7368,-8.7392,-8.7382,-8.7386,-8.7365,-8.723,-8.7176,-8.716,-8.7089,-8.7089,-8.7089,-8.7072,-8.7037,-8.7019,-8.7001,-8.7001,-8.6982,-8.7019,-8.7037,-8.6982,-8.6923,-8.6881,-8.6899,-8.6832,-8.6809,-8.6832,-8.6809,-8.6809,-8.6809,-8.6571,-8.6208,-8.5698,-8.4643,-8.4016,-8.3486,-8.3293,-8.306,-8.2754,-6.0068,-6.0613,-6.2434,-6.4069,-6.4993,-6.5422,-6.6237,-6.7861,-6.8164,-6.8935,-6.9741,-6.9878,-7.12,-7.3141,-7.4209,-7.5635,-7.7677,-7.7592,-7.7856,-7.8612,-7.8935,-7.9879,-8.1251,-8.1871,-8.315,-8.4869,-8.5537,-8.5762,-8.6071,-8.635,-8.6714,-8.715,-8.7449,-8.7712,-8.7976,-8.8489,-8.8719,-8.8963,-8.9178,-8.932,-8.932,-8.907,-8.9234,-8.9789,-8.9972,-9.0003,-8.9821,-8.9702,-8.9787,-9.0127,-8.957,-8.9295,-8.934,-8.9503,-8.9887,-9.0508,-9.0717,-9.0759,-9.0723,-9.0461,-9.0122,-8.9704,-8.8917,-8.865,-8.8684,-8.7814,-8.7819,-8.8703,-8.9287,-8.9404,-8.9417,-8.9442,-8.9047,-8.8296,-8.7768,-8.7386,-8.7393,-8.7414,-8.7405,-8.7421,-8.7392,-8.7321,-8.7281,-8.7286,-8.722,-8.7176,-8.7152,-8.7167,-8.7137,-8.7144,-8.7072,-8.7072,-8.7072,-8.7072,-8.7072,-8.7089,-8.7055,-8.7019,-8.6982,-8.6961,-8.6899,-8.6899,-8.692,-8.692,-8.6899,-8.6816,-8.6582,-8.6157,-8.5612,-8.5312,-8.4656,-8.4391,-8.4306,-8.3888,-8.3316,-6.0432,-6.1178,-6.3004,-6.4513,-6.5689,-6.6043,-6.6934,-6.822,-6.8436,-6.918,-6.998,-7.0472,-7.1902,-7.3957,-7.4885,-7.6404,-7.8325,-7.8738,-7.9183,-7.9342,-7.9613,-8.0532,-8.2238,-8.3764,-8.48,-8.5597,-8.6172,-8.6612,-8.7135,-8.7526,-8.7882,-8.8212,-8.8575,-8.8764,-8.897,-8.8987,-8.911,-8.932,-8.932,-8.932,-8.932,-8.932,-8.9677,-9.0429,-9.0866,-9.1217,-9.1491,-9.1148,-9.0876,-9.087,-9.0317,-8.9943,-8.9786,-8.9743,-8.9982,-9.0465,-9.0638,-9.0719,-9.0762,-9.0455,-9.0112,-8.9704,-8.8939,-8.8434,-8.8607,-8.7814,-8.8296,-8.9079,-8.9897,-9.0287,-9.0262,-8.9963,-8.9598,-8.9135,-8.8014,-8.7438,-8.7369,-8.7354,-8.7381,-8.7366,-8.7343,-8.7336,-8.7308,-8.733,-8.7298,-8.7248,-8.7195,-8.7209,-8.722,-8.7191,-8.7176,-8.7121,-8.7121,-8.7121,-8.7121,-8.7121,-8.7137,-8.7105,-8.7072,-8.704,-8.702,-8.7021,-8.7001,-8.6982,-8.6982,-8.6943,-8.6743,-8.6017,-8.5449,-8.5298,-8.4978,-8.4537,-8.408,-8.3841,-8.35,-6.1021,-6.2171,-6.4125,-6.5257,-6.5788,-6.6915,-6.7806,-6.8297,-6.8747,-6.932,-7.0144,-7.1096,-7.2568,-7.4479,-7.5793,-7.7297,-7.8849,-7.9566,-8.0072,-8.0217,-8.0107,-8.0682,-8.2937,-8.5199,-8.6164,-8.6259,-8.6888,-8.7576,-8.8134,-8.8623,-8.9018,-8.9314,-8.9809,-8.9937,-8.929,-8.9269,-8.932,-8.932,-8.932,-8.932,-8.932,-8.932,-8.9845,-9.0943,-9.1133,-9.162,-9.2535,-9.2662,-9.2431,-9.1752,-9.1372,-9.1019,-9.0555,-9.0169,-9.0319,-9.0589,-9.0638,-9.0759,-9.0761,-9.0461,-9.0006,-8.9461,-8.8778,-8.807,-8.7811,-8.8172,-8.8515,-8.9104,-9.0209,-9.1002,-9.086,-9.0314,-8.9781,-8.9504,-8.8111,-8.737,-8.732,-8.7312,-8.733,-8.733,-8.7347,-8.7387,-8.7343,-8.733,-8.7283,-8.7146,-8.7142,-8.722,-8.7079,-8.7053,-8.7195,-8.722,-8.7195,-8.7181,-8.7181,-8.7181,-8.7181,-8.7152,-8.7121,-8.7072,-8.7058,-8.7094,-8.7055,-8.7055,-8.6843,-8.6864,-8.6534,-8.5706,-8.5175,-8.486,-8.4489,-8.4071,-8.3773,-8.3495,-8.3495,-6.1531,-6.269,-6.4656,-6.5795,-6.6256,-6.729,-6.8061,-6.893,-6.9239,-6.9651,-7.0308,-7.1419,-7.3238,-7.5201,-7.6616,-7.8123,-7.9592,-8.0313,-8.078,-8.0971,-8.1319,-8.277,-8.4906,-8.6414,-8.7094,-8.7046,-8.761,-8.8008,-8.8283,-8.9282,-8.9811,-9.0075,-9.0258,-9.0195,-9.0053,-8.9519,-8.932,-8.932,-8.932,-8.932,-8.932,-8.932,-8.9929,-9.0943,-9.1097,-9.173,-9.2818,-9.3082,-9.2774,-9.2056,-9.2308,-9.1846,-9.0939,-9.0884,-9.0867,-9.0627,-9.0635,-9.0719,-9.0799,-9.0499,-9.0132,-8.9978,-8.9038,-8.8572,-8.8996,-8.8632,-8.9168,-9.0053,-9.095,-9.1144,-9.1002,-9.0326,-8.9404,-8.8092,-8.7532,-8.732,-8.732,-8.732,-8.7331,-8.736,-8.7369,-8.7362,-8.7392,-8.734,-8.7141,-8.6744,-8.6823,-8.6961,-8.6607,-8.6896,-8.7066,-8.722,-8.727,-8.7259,-8.7286,-8.7286,-8.7234,-8.7209,-8.7142,-8.7113,-8.7082,-8.7105,-8.7072,-8.7055,-8.6454,-8.6319,-8.5776,-8.5033,-8.4688,-8.4352,-8.3518,-8.2918,-8.3154,-8.3072,-8.3144,-6.2796,-6.4115,-6.5753,-6.6513,-6.7156,-6.7843,-6.8514,-6.9059,-6.9318,-6.9816,-7.0472,-7.1902,-7.3795,-7.5711,-7.692,-7.8597,-8.0411,-8.0486,-8.0719,-8.1278,-8.2419,-8.3962,-8.5701,-8.6777,-8.7408,-8.7728,-8.8078,-8.8425,-8.8858,-9.005,-9.0534,-9.0717,-9.1033,-9.0962,-9.0462,-9.007,-8.9606,-8.9392,-8.932,-8.932,-8.932,-8.9543,-9.0141,-9.098,-9.1324,-9.1946,-9.2885,-9.3146,-9.295,-9.2692,-9.2822,-9.2533,-9.1482,-9.1444,-9.1304,-9.0708,-9.0631,-9.0717,-9.0875,-9.0697,-9.0372,-8.9927,-8.9115,-8.8787,-8.8723,-8.8733,-8.9621,-9.0287,-9.1144,-9.1573,-9.1431,-9.0587,-8.9093,-8.7651,-8.7222,-8.7286,-8.7259,-8.7247,-8.7259,-8.7331,-8.7351,-8.736,-8.7386,-8.7397,-8.6953,-8.6468,-8.6431,-8.6159,-8.576,-8.6362,-8.683,-8.6891,-8.7136,-8.7231,-8.7259,-8.7298,-8.7169,-8.7105,-8.6819,-8.6831,-8.6841,-8.6864,-8.6755,-8.6549,-8.6065,-8.5601,-8.5095,-8.4537,-8.403,-8.3409,-8.2455,-8.2176,-8.249,-8.2644,-8.2682,-6.4411,-6.5704,-6.6807,-6.7571,-6.7936,-6.8699,-6.9117,-6.911,-6.9485,-6.998,-7.0771,-7.2513,-7.4507,-7.6415,-7.7616,-7.9006,-8.088,-8.0507,-8.0816,-8.1777,-8.3186,-8.4661,-8.561,-8.7062,-8.7844,-8.8196,-8.8328,-8.8923,-8.9712,-9.0881,-9.1325,-9.1439,-9.2246,-9.1978,-9.1105,-9.0605,-9.0105,-8.9606,-8.9392,-8.932,-8.9371,-8.9845,-9.0429,-9.102,-9.1875,-9.2336,-9.2885,-9.3082,-9.3173,-9.3173,-9.3332,-9.2942,-9.2228,-9.1926,-9.1467,-9.0822,-9.0593,-9.0681,-9.0797,-9.0763,-9.0363,-8.9333,-8.9133,-8.877,-8.8006,-8.8623,-8.9567,-9.0209,-9.1417,-9.1821,-9.1522,-9.0482,-8.8911,-8.7495,-8.717,-8.7209,-8.7209,-8.7209,-8.7222,-8.7298,-8.7331,-8.7341,-8.7377,-8.7347,-8.7068,-8.6287,-8.619,-8.5839,-8.5439,-8.5554,-8.5983,-8.6278,-8.6668,-8.7125,-8.7231,-8.7309,-8.7142,-8.6974,-8.6442,-8.6299,-8.6334,-8.6304,-8.621,-8.5961,-8.5443,-8.5096,-8.4825,-8.4195,-8.3372,-8.2791,-8.1985,-8.1932,-8.2061,-8.2023,-8.2061,-6.4745,-6.5909,-6.7224,-6.7892,-6.7986,-6.8699,-6.9142,-6.9213,-6.982,-7.0445,-7.1392,-7.2988,-7.5356,-7.7877,-7.8446,-7.9926,-8.1365,-8.1217,-8.171,-8.2818,-8.3609,-8.4868,-8.6103,-8.7666,-8.8528,-8.8797,-8.9181,-8.9831,-9.0652,-9.1224,-9.178,-9.2329,-9.2578,-9.2639,-9.2175,-9.1069,-9.0462,-9.0141,-8.9641,-8.932,-8.9371,-8.9929,-9.0588,-9.1209,-9.2196,-9.2751,-9.2988,-9.3146,-9.3211,-9.3389,-9.3726,-9.3524,-9.2519,-9.2535,-9.2002,-9.0975,-9.0593,-9.0531,-9.0278,-8.9864,-8.9146,-8.8662,-8.8147,-8.7719,-8.8218,-8.8445,-8.945,-9.0429,-9.1183,-9.1105,-9.0418,-8.882,-8.7884,-8.7378,-8.7209,-8.7209,-8.7209,-8.7209,-8.7234,-8.7281,-8.7302,-8.7312,-8.7386,-8.7401,-8.7014,-8.6287,-8.5854,-8.5595,-8.52,-8.4824,-8.5097,-8.5448,-8.621,-8.6629,-8.6629,-8.6657,-8.649,-8.6233,-8.578,-8.5403,-8.5478,-8.5549,-8.5338,-8.5127,-8.4782,-8.4494,-8.4184,-8.3126,-8.2161,-8.181,-8.1668,-8.1693,-8.1747,-8.1593,-8.1593,-6.5534,-6.6455,-6.7357,-6.7949,-6.8522,-6.8875,-6.9014,-6.9145,-6.9881,-7.0608,-7.1714,-7.3174,-7.5597,-7.8329,-7.8774,-7.9776,-8.1365,-8.1471,-8.1938,-8.3119,-8.3954,-8.5042,-8.6633,-8.8337,-8.9432,-8.9316,-8.9902,-9.0538,-9.1093,-9.1736,-9.2302,-9.2718,-9.3109,-9.3084,-9.271,-9.1604,-9.089,-9.0391,-8.9749,-8.932,-8.9371,-9.0222,-9.1133,-9.1839,-9.2684,-9.2988,-9.2988,-9.3054,-9.3146,-9.3364,-9.3914,-9.3698,-9.2582,-9.2726,-9.2193,-9.0975,-9.0593,-9.0417,-9.0009,-8.9663,-8.9146,-8.8279,-8.7817,-8.7719,-8.7928,-8.8172,-8.906,-9.0078,-9.0404,-9.0131,-8.9339,-8.8638,-8.778,-8.7312,-8.7234,-8.7222,-8.7209,-8.7209,-8.7234,-8.7281,-8.7302,-8.7369,-8.7393,-8.7401,-8.6627,-8.5819,-8.5387,-8.5014,-8.383,-8.357,-8.4089,-8.4607,-8.5585,-8.6063,-8.5985,-8.5898,-8.5671,-8.5286,-8.4741,-8.4377,-8.4193,-8.4303,-8.4388,-8.412,-8.3909,-8.366,-8.3229,-8.2104,-8.1633,-8.1953,-8.1996,-8.1655,-8.1439,-8.1362,-8.1362,-6.6385,-6.7062,-6.739,-6.8365,-6.9359,-6.9326,-6.9136,-6.9305,-6.9802,-7.0825,-7.1902,-7.3387,-7.6049,-7.8161,-7.8656,-7.9947,-8.1136,-8.1555,-8.211,-8.3182,-8.4112,-8.514,-8.6633,-8.8436,-8.9784,-8.9534,-9.0673,-9.1276,-9.184,-9.233,-9.2753,-9.2989,-9.3569,-9.3547,-9.2924,-9.2211,-9.1568,-9.1069,-9.0141,-8.9606,-8.9672,-9.0574,-9.1583,-9.2616,-9.2922,-9.2988,-9.2988,-9.3054,-9.3119,-9.3301,-9.3781,-9.3272,-9.2658,-9.2565,-9.2351,-9.0784,-9.0631,-9.0263,-8.9816,-8.9632,-8.9262,-8.8157,-8.8049,-8.7778,-8.7461,-8.7767,-8.8539,-8.9168,-8.9547,-8.9365,-8.8701,-8.8272,-8.7921,-8.7493,-8.7298,-8.7286,-8.7222,-8.7209,-8.7247,-8.7281,-8.7302,-8.7321,-8.7386,-8.7368,-8.6325,-8.5383,-8.499,-8.4351,-8.3215,-8.2623,-8.322,-8.3738,-8.459,-8.5302,-8.5341,-8.5682,-8.5419,-8.4518,-8.3922,-8.3597,-8.3219,-8.319,-8.3314,-8.3209,-8.3018,-8.2903,-8.2682,-8.1988,-8.1826,-8.225,-8.2034,-8.1431,-8.1208,-8.1124,-8.117,-6.6348,-6.6749,-6.8335,-6.9455,-6.9866,-6.986,-6.9617,-6.9798,-7.0013,-7.1069,-7.2596,-7.4463,-7.6742,-7.8855,-7.9809,-8.0516,-8.1152,-8.1628,-8.2387,-8.3281,-8.4398,-8.5482,-8.6601,-8.8403,-8.9532,-9.0455,-9.1463,-9.2348,-9.2912,-9.2995,-9.3065,-9.3623,-9.3888,-9.3725,-9.3531,-9.2996,-9.2425,-9.1961,-9.0962,-9.0319,-9.0466,-9.0915,-9.173,-9.2818,-9.2988,-9.2988,-9.2988,-9.2988,-9.3146,-9.3499,-9.3332,-9.2942,-9.2543,-9.2779,-9.2117,-9.1052,-9.0593,-9.0186,-8.9311,-8.9054,-8.8428,-8.7536,-8.7292,-8.7293,-8.7172,-8.7245,-8.7877,-8.8428,-8.8767,-8.8703,-8.8584,-8.7999,-8.7571,-8.7337,-8.7298,-8.7286,-8.7222,-8.7234,-8.7286,-8.7309,-8.7292,-8.7312,-8.7347,-8.718,-8.6357,-8.5429,-8.4797,-8.4159,-8.3163,-8.2669,-8.2674,-8.3114,-8.3594,-8.4228,-8.4696,-8.5234,-8.5283,-8.4011,-8.3312,-8.3026,-8.2663,-8.2323,-8.2255,-8.2442,-8.2569,-8.2611,-8.2238,-8.1717,-8.1607,-8.1744,-8.1436,-8.1093,-8.1124,-8.1154,-8.1093,-6.6587,-6.733,-6.8115,-6.8928,-6.9534,-6.9521,-6.9471,-6.98,-7.0437,-7.1635,-7.3071,-7.4734,-7.6934,-7.9006,-7.9604,-8.029,-8.1262,-8.1808,-8.2654,-8.351,-8.462,-8.5757,-8.6755,-8.8556,-8.9699,-9.0741,-9.1899,-9.2997,-9.3649,-9.3269,-9.3377,-9.3721,-9.3699,-9.3626,-9.3633,-9.2957,-9.2672,-9.2316,-9.1586,-9.0995,-9.1031,-9.138,-9.2091,-9.2616,-9.2922,-9.2988,-9.2988,-9.2988,-9.3211,-9.3447,-9.3182,-9.2791,-9.2554,-9.22,-9.1892,-9.0861,-9.0593,-9.011,-8.9074,-8.8776,-8.8284,-8.723,-8.702,-8.7021,-8.7037,-8.7167,-8.7277,-8.7688,-8.835,-8.8339,-8.796,-8.7493,-8.7376,-8.7298,-8.7259,-8.7208,-8.7183,-8.7196,-8.7196,-8.7208,-8.7331,-8.733,-8.7276,-8.6912,-8.6311,-8.5545,-8.4684,-8.3882,-8.3022,-8.2708,-8.2385,-8.2619,-8.302,-8.3399,-8.3867,-8.4278,-8.461,-8.3516,-8.2857,-8.2533,-8.2377,-8.2156,-8.2065,-8.2182,-8.2264,-8.2375,-8.2047,-8.1585,-8.1414,-8.1291,-8.1244,-8.1154,-8.1184,-8.1184,-8.1124,-6.6767,-6.8011,-6.8145,-6.8649,-6.9245,-6.9429,-6.9619,-7.0021,-7.1042,-7.2409,-7.3795,-7.5072,-7.721,-7.9153,-8.005,-8.0478,-8.1612,-8.2161,-8.2944,-8.3959,-8.4971,-8.5954,-8.7128,-8.8808,-9.0051,-9.0589,-9.185,-9.3009,-9.3526,-9.3413,-9.3481,-9.3616,-9.3427,-9.331,-9.3355,-9.315,-9.2702,-9.2509,-9.2121,-9.1742,-9.1695,-9.1874,-9.2266,-9.2684,-9.2922,-9.2988,-9.2988,-9.2988,-9.3301,-9.3455,-9.3144,-9.2655,-9.2461,-9.1909,-9.1281,-9.0746,-9.0631,-8.9918,-8.9195,-8.8815,-8.8257,-8.7135,-8.702,-8.7021,-8.6941,-8.6839,-8.6732,-8.687,-8.7103,-8.7298,-8.674,-8.6713,-8.6674,-8.6674,-8.6635,-8.6701,-8.6598,-8.6637,-8.6806,-8.6908,-8.7185,-8.7243,-8.7143,-8.6698,-8.6059,-8.5227,-8.4375,-8.3496,-8.2755,-8.2491,-8.225,-8.2279,-8.2513,-8.2786,-8.3048,-8.3126,-8.3254,-8.2752,-8.2428,-8.226,-8.2182,-8.2104,-8.2104,-8.2052,-8.2065,-8.2147,-8.1815,-8.1591,-8.1465,-8.1347,-8.1234,-8.1184,-8.1154,-8.1154,-8.1093,-6.7627,-6.8572,-6.9409,-7.0086,-7.0507,-7.036,-7.0612,-7.1115,-7.1902,-7.321,-7.4828,-7.6151,-7.8125,-8.0103,-8.1179,-8.1622,-8.2173,-8.2754,-8.3498,-8.4439,-8.5583,-8.6371,-8.6996,-8.8257,-8.9632,-9.0422,-9.1481,-9.26,-9.3222,-9.3347,-9.3155,-9.3342,-9.3652,-9.3684,-9.3274,-9.3377,-9.3669,-9.3399,-9.2905,-9.2432,-9.2285,-9.2097,-9.2409,-9.2751,-9.2988,-9.2988,-9.2988,-9.3054,-9.3364,-9.3803,-9.2727,-9.2393,-9.2588,-9.1544,-9.0899,-9.0631,-9.0482,-9.0071,-8.9074,-8.8815,-8.8295,-8.7287,-8.702,-8.7021,-8.6786,-8.6316,-8.586,-8.4932,-8.5166,-8.5389,-8.5402,-8.5153,-8.5075,-8.5192,-8.5376,-8.5286,-8.5234,-8.5897,-8.6104,-8.626,-8.6373,-8.6813,-8.6969,-8.6385,-8.5793,-8.4901,-8.4062,-8.3151,-8.2528,-8.2304,-8.221,-8.224,-8.2299,-8.2572,-8.2601,-8.263,-8.2502,-8.2155,-8.2128,-8.2116,-8.2116,-8.2116,-8.2116,-8.2104,-8.2078,-8.1968,-8.1757,-8.1591,-8.1426,-8.1308,-8.1205,-8.1154,-8.1124,-8.1093,-8.1093,-6.8353,-6.9561,-6.9815,-7.0189,-7.061,-7.0677,-7.0794,-7.1483,-7.2801,-7.4083,-7.5408,-7.7173,-7.9231,-8.1033,-8.18,-8.2101,-8.2464,-8.3077,-8.3567,-8.4667,-8.5713,-8.6568,-8.7215,-8.8224,-8.928,-9.0321,-9.1203,-9.2031,-9.2847,-9.3588,-9.3656,-9.3236,-9.3509,-9.3509,-9.3191,-9.3404,-9.3497,-9.3476,-9.3279,-9.308,-9.2884,-9.2647,-9.2647,-9.2855,-9.2922,-9.2988,-9.2988,-9.2988,-9.3165,-9.3351,-9.2366,-9.1976,-9.2017,-9.1319,-9.0631,-9.0631,-9.0631,-8.9995,-8.8997,-8.8861,-8.8145,-8.7381,-8.6943,-8.6807,-8.6436,-8.5987,-8.5455,-8.4699,-8.4621,-8.4571,-8.4611,-8.4701,-8.4701,-8.4662,-8.4428,-8.4494,-8.452,-8.4883,-8.5273,-8.5441,-8.5558,-8.587,-8.6089,-8.5613,-8.5019,-8.4302,-8.3554,-8.28,-8.2417,-8.2273,-8.2187,-8.2195,-8.2296,-8.2474,-8.2387,-8.2377,-8.2367,-8.2151,-8.2162,-8.2162,-8.2167,-8.2155,-8.2128,-8.2065,-8.2012,-8.1881,-8.1738,-8.1613,-8.1499,-8.1335,-8.1214,-8.1154,-8.1124,-8.1093,-8.1093,-6.9039,-7.0273,-7.0093,-7.0364,-7.081,-7.0926,-7.13,-7.1789,-7.3946,-7.5128,-7.635,-7.8369,-8.0369,-8.1571,-8.2067,-8.255,-8.2987,-8.3516,-8.4174,-8.5117,-8.613,-8.7117,-8.7765,-8.8642,-8.9513,-9.0404,-9.1385,-9.2288,-9.3285,-9.4068,-9.4216,-9.3105,-9.3634,-9.3467,-9.3236,-9.331,-9.3497,-9.3761,-9.3519,-9.3332,-9.3212,-9.3007,-9.2869,-9.2855,-9.2922,-9.2988,-9.2988,-9.2691,-9.2679,-9.2806,-9.1935,-9.1521,-9.1597,-9.1086,-9.0589,-9.0551,-9.0551,-8.9994,-8.9167,-8.8699,-8.8118,-8.7452,-8.6865,-8.6574,-8.5583,-8.5446,-8.4881,-8.3836,-8.3735,-8.3842,-8.3987,-8.3935,-8.3819,-8.3792,-8.3819,-8.3961,-8.4065,-8.4247,-8.4403,-8.4507,-8.4585,-8.4676,-8.4763,-8.4576,-8.4134,-8.3633,-8.3003,-8.2412,-8.2271,-8.2248,-8.2254,-8.2221,-8.2241,-8.2343,-8.2296,-8.224,-8.2192,-8.2192,-8.2201,-8.2192,-8.2172,-8.2162,-8.2162,-8.2077,-8.1973,-8.1848,-8.1698,-8.1635,-8.1546,-8.1335,-8.1184,-8.1184,-8.1154,-8.1124,-8.1093,-6.9581,-7.0834,-7.027,-7.0591,-7.1435,-7.1795,-7.2445,-7.3156,-7.5008,-7.6628,-7.8036,-8.0153,-8.1238,-8.1717,-8.2456,-8.3204,-8.4092,-8.4792,-8.5615,-8.6759,-8.7782,-8.7972,-8.8328,-8.9008,-8.9813,-9.0589,-9.1453,-9.2732,-9.4158,-9.5152,-9.4389,-9.3039,-9.3792,-9.3599,-9.3438,-9.3416,-9.3626,-9.3765,-9.3675,-9.3412,-9.3331,-9.3122,-9.2899,-9.2922,-9.2988,-9.2988,-9.2951,-9.2319,-9.2107,-9.2636,-9.1466,-9.0966,-9.1157,-9.0808,-9.0546,-9.0508,-9.0508,-8.9918,-8.9094,-8.8668,-8.813,-8.739,-8.6747,-8.6205,-8.4961,-8.4592,-8.3756,-8.2643,-8.2692,-8.2528,-8.244,-8.2273,-8.2715,-8.2793,-8.2948,-8.2896,-8.3052,-8.3338,-8.3455,-8.3545,-8.3623,-8.3675,-8.3687,-8.3545,-8.3594,-8.3135,-8.2881,-8.23,-8.2324,-8.2271,-8.2281,-8.2281,-8.2227,-8.2254,-8.2248,-8.2195,-8.2218,-8.2218,-8.2226,-8.2187,-8.2179,-8.2171,-8.2201,-8.1972,-8.187,-8.177,-8.16,-8.1291,-8.1105,-8.1186,-8.1184,-8.1154,-8.1124,-8.1093,-8.1093,-6.9761,-7.0859,-7.0983,-7.1433,-7.1958,-7.2079,-7.2771,-7.3947,-7.5425,-7.7588,-7.9731,-8.1058,-8.1862,-8.2499,-8.2698,-8.3685,-8.4761,-8.5044,-8.6162,-8.705,-8.7679,-8.7972,-8.8262,-8.8656,-8.8961,-9.0288,-9.15,-9.2775,-9.4158,-9.547,-9.4805,-9.3987,-9.4215,-9.4038,-9.3846,-9.3522,-9.3719,-9.3945,-9.3988,-9.4045,-9.3513,-9.3634,-9.3337,-9.2855,-9.2988,-9.2922,-9.2707,-9.2096,-9.1969,-9.1695,-9.0905,-9.0739,-9.0722,-9.0448,-9.0422,-9.0383,-9.0465,-8.9877,-8.8983,-8.8675,-8.8218,-8.7126,-8.6436,-8.5641,-8.4437,-8.4028,-8.3209,-8.2387,-8.1975,-8.2007,-8.2046,-8.2061,-8.2153,-8.2065,-8.2026,-8.2065,-8.222,-8.2598,-8.2701,-8.2854,-8.2752,-8.2688,-8.2647,-8.2591,-8.2684,-8.2671,-8.2458,-8.2304,-8.2297,-8.2324,-8.2324,-8.2289,-8.2281,-8.226,-8.2254,-8.2248,-8.2241,-8.2241,-8.2248,-8.2241,-8.2234,-8.2241,-8.2226,-8.1967,-8.1636,-8.1364,-8.1092,-8.0757,-8.0723,-8.0992,-8.1085,-8.1093,-8.1093,-8.1093,-8.1093,-6.9941,-7.0859,-7.1417,-7.1946,-7.2323,-7.2656,-7.3474,-7.4467,-7.6191,-7.8351,-8.0893,-8.1389,-8.213,-8.3011,-8.3365,-8.4075,-8.5338,-8.5916,-8.6742,-8.7632,-8.8333,-8.8407,-8.8603,-8.8813,-8.9507,-9.0556,-9.1614,-9.2852,-9.4572,-9.5507,-9.5255,-9.4724,-9.4268,-9.4045,-9.374,-9.3699,-9.3719,-9.4052,-9.4277,-9.4402,-9.391,-9.3857,-9.3894,-9.3159,-9.3107,-9.2662,-9.2328,-9.165,-9.1212,-9.0962,-9.047,-9.0145,-9.0115,-9.0205,-9.0295,-9.034,-9.0274,-8.9911,-8.9148,-8.8244,-8.7731,-8.6549,-8.6027,-8.5175,-8.4242,-8.3502,-8.2915,-8.2154,-8.1975,-8.1991,-8.1991,-8.2007,-8.2007,-8.2036,-8.2036,-8.2022,-8.2012,-8.2259,-8.2192,-8.2162,-8.2139,-8.2207,-8.2323,-8.2348,-8.2422,-8.2487,-8.242,-8.2304,-8.2303,-8.2295,-8.232,-8.2324,-8.2289,-8.231,-8.2299,-8.2293,-8.2287,-8.2287,-8.2293,-8.2254,-8.2287,-8.2293,-8.2241,-8.2036,-8.1624,-8.1053,-8.0666,-8.0434,-8.0674,-8.097,-8.1016,-8.0977,-8.1093,-8.1093,-8.1093,-6.9941,-7.0859,-7.1417,-7.1946,-7.2551,-7.3629,-7.4391,-7.5076,-7.7222,-7.9156,-8.0864,-8.1204,-8.213,-8.3161,-8.3607,-8.4793,-8.6069,-8.7012,-8.7899,-8.8831,-8.944,-8.9984,-8.9907,-8.9949,-9.0018,-9.1428,-9.2497,-9.3606,-9.5158,-9.5681,-9.5675,-9.5146,-9.4198,-9.3454,-9.3008,-9.338,-9.3719,-9.3943,-9.4107,-9.445,-9.4385,-9.4081,-9.3953,-9.3745,-9.3256,-9.2662,-9.1919,-9.114,-9.0764,-9.0437,-8.9851,-8.964,-8.9828,-9.0159,-9.0295,-9.025,-9.034,-9.0096,-8.9458,-8.7803,-8.6674,-8.5885,-8.5441,-8.4591,-8.3563,-8.3018,-8.2781,-8.1981,-8.1959,-8.1975,-8.1991,-8.1991,-8.1991,-8.2007,-8.2007,-8.2022,-8.1998,-8.2026,-8.2012,-8.1968,-8.2007,-8.2061,-8.213,-8.2221,-8.231,-8.2337,-8.2304,-8.2304,-8.2304,-8.2297,-8.2315,-8.2315,-8.232,-8.231,-8.2293,-8.2293,-8.2293,-8.2293,-8.2293,-8.2293,-8.2287,-8.2248,-8.2195,-8.2093,-8.1325,-8.0448,-8.026,-8.0213,-8.0431,-8.0623,-8.0816,-8.0893,-8.0977,-8.1093,-8.1093,-7.0324,-7.0859,-7.1391,-7.2271,-7.3222,-7.3645,-7.4445,-7.6069,-7.83,-7.9905,-8.0551,-8.1204,-8.1976,-8.3011,-8.4172,-8.5502,-8.6926,-8.802,-8.8987,-8.961,-9.0124,-9.0143,-9.0005,-9.0147,-9.0416,-9.1375,-9.2537,-9.3905,-9.4894,-9.5542,-9.5465,-9.4935,-9.3741,-9.306,-9.2938,-9.325,-9.3497,-9.3832,-9.4489,-9.4968,-9.475,-9.4485,-9.4216,-9.3974,-9.3263,-9.2447,-9.1631,-9.088,-9.0404,-9.0117,-8.9533,-8.9333,-8.9692,-9.0113,-9.0159,-9.0205,-9.0301,-8.9911,-8.8879,-8.7464,-8.6261,-8.5483,-8.4544,-8.3832,-8.3116,-8.2572,-8.2201,-8.2003,-8.1943,-8.1959,-8.1943,-8.1975,-8.1991,-8.1983,-8.1998,-8.1998,-8.2012,-8.2039,-8.2078,-8.2036,-8.2007,-8.1973,-8.1999,-8.2143,-8.2227,-8.2217,-8.2186,-8.2265,-8.2304,-8.2304,-8.2299,-8.2299,-8.2299,-8.2299,-8.2293,-8.2305,-8.2305,-8.2299,-8.2299,-8.2293,-8.2287,-8.2241,-8.2117,-8.1976,-8.0857,-7.9826,-7.9717,-7.971,-7.9979,-8.0222,-8.0192,-8.0623,-8.0984,-8.1023,-8.1061,-7.0324,-7.0859,-7.1568,-7.242,-7.3568,-7.3899,-7.5292,-7.7362,-7.9226,-8.0136,-8.0452,-8.1204,-8.21,-8.3011,-8.4466,-8.5943,-8.7317,-8.8307,-8.9246,-8.9903,-9.0157,-9.0247,-9.0143,-9.0313,-9.1192,-9.1864,-9.2992,-9.4258,-9.4923,-9.5332,-9.4834,-9.3882,-9.3039,-9.2751,-9.2806,-9.306,-9.331,-9.3832,-9.4495,-9.4938,-9.4664,-9.4405,-9.4261,-9.3768,-9.3128,-9.238,-9.1631,-9.0907,-9.0342,-9.0001,-8.9573,-8.9265,-8.9642,-8.9935,-9.0113,-9.0205,-9.0269,-8.9799,-8.8685,-8.7121,-8.598,-8.4984,-8.3723,-8.2997,-8.2728,-8.2222,-8.2046,-8.1926,-8.1926,-8.1926,-8.1926,-8.1959,-8.1975,-8.1968,-8.1968,-8.1952,-8.1983,-8.2036,-8.2065,-8.2022,-8.2022,-8.1961,-8.1867,-8.2054,-8.2149,-8.2132,-8.207,-8.2187,-8.2304,-8.2304,-8.2304,-8.2305,-8.2299,-8.2293,-8.2305,-8.2324,-8.232,-8.231,-8.2305,-8.2299,-8.2287,-8.2241,-8.2078,-8.1694,-8.0481,-7.9498,-7.9192,-7.9144,-7.9146,-7.9191,-7.924,-7.9845,-8.0722,-8.0799,-8.06,-6.9991,-7.1037,-7.1868,-7.2742,-7.3768,-7.4781,-7.6619,-7.8897,-7.9459,-7.9949,-8.0452,-8.1485,-8.2253,-8.2981,-8.4728,-8.6196,-8.7487,-8.8307,-8.9012,-8.9674,-9.0291,-9.0452,-9.0707,-9.1114,-9.1881,-9.3065,-9.3929,-9.4206,-9.4981,-9.4805,-9.4022,-9.3004,-9.2653,-9.2512,-9.2673,-9.2964,-9.325,-9.3591,-9.4285,-9.4711,-9.4677,-9.4129,-9.4117,-9.3776,-9.3171,-9.2417,-9.1631,-9.0907,-9.0342,-8.9884,-8.9405,-8.9393,-8.9591,-8.9982,-9.0159,-9.0295,-9.0465,-8.9567,-8.842,-8.6791,-8.539,-8.4237,-8.3358,-8.2629,-8.2184,-8.1989,-8.1929,-8.1908,-8.1908,-8.1926,-8.1926,-8.1908,-8.1947,-8.1908,-8.1908,-8.1926,-8.1904,-8.1937,-8.1968,-8.2007,-8.2022,-8.1909,-8.1633,-8.1742,-8.2137,-8.2076,-8.2097,-8.2226,-8.2304,-8.2304,-8.2304,-8.2315,-8.231,-8.2293,-8.231,-8.2289,-8.2297,-8.2292,-8.2315,-8.2305,-8.2293,-8.2163,-8.1875,-8.1236,-8.0026,-7.9113,-7.8314,-7.7983,-7.7962,-7.8116,-7.869,-7.9306,-8.0261,-7.9946,-7.9708,-6.9966,-7.1037,-7.1868,-7.309,-7.4859,-7.6955,-7.8536,-7.9415,-7.9833,-8.0294,-8.0766,-8.136,-8.2253,-8.3281,-8.5163,-8.6448,-8.7593,-8.8712,-8.941,-8.9936,-9.0454,-9.0711,-9.0966,-9.1312,-9.2181,-9.2912,-9.3542,-9.4103,-9.4456,-9.4283,-9.3601,-9.2653,-9.2512,-9.2512,-9.2611,-9.2806,-9.2964,-9.3345,-9.3959,-9.4403,-9.4457,-9.4038,-9.4041,-9.3819,-9.3033,-9.2283,-9.1565,-9.0843,-9.0217,-8.9645,-8.9235,-8.9157,-8.9205,-8.9801,-9.025,-9.0389,-8.9897,-8.8909,-8.765,-8.6065,-8.4643,-8.3605,-8.2699,-8.22,-8.1853,-8.1815,-8.1911,-8.1929,-8.1908,-8.1908,-8.1926,-8.1908,-8.1947,-8.1908,-8.1947,-8.1908,-8.1943,-8.1943,-8.1975,-8.1968,-8.2022,-8.2,-8.1683,-8.182,-8.217,-8.2065,-8.2076,-8.2214,-8.2304,-8.2304,-8.2304,-8.2304,-8.232,-8.231,-8.2315,-8.2292,-8.2301,-8.2303,-8.2292,-8.2271,-8.2182,-8.1968,-8.1672,-8.0736,-7.9345,-7.8108,-7.7047,-7.6968,-7.7344,-7.8077,-7.869,-7.9191,-7.9523,-7.9169,-7.8861,-7.0324,-7.1542,-7.2568,-7.4347,-7.6456,-7.8212,-7.9198,-7.966,-8.002,-8.0452,-8.0893,-8.1514,-8.2405,-8.3877,-8.5595,-8.69,-8.7899,-8.9012,-8.9837,-9.0066,-9.0583,-9.0711,-9.0966,-9.1404,-9.207,-9.2795,-9.3486,-9.4069,-9.4319,-9.3933,-9.3215,-9.2547,-9.2512,-9.2512,-9.2611,-9.2806,-9.2806,-9.306,-9.352,-9.398,-9.3903,-9.3688,-9.37,-9.3564,-9.2639,-9.2146,-9.1468,-9.0786,-9.0063,-8.9436,-8.9099,-8.8936,-8.9098,-8.9752,-8.9908,-8.9969,-8.9511,-8.8412,-8.7235,-8.6073,-8.4612,-8.3448,-8.2576,-8.2178,-8.191,-8.1834,-8.1873,-8.1911,-8.1929,-8.189,-8.1947,-8.1964,-8.1926,-8.1926,-8.1926,-8.1926,-8.1926,-8.1926,-8.1959,-8.1968,-8.2012,-8.2104,-8.2123,-8.2171,-8.2241,-8.2215,-8.2182,-8.2232,-8.2292,-8.2304,-8.2304,-8.2304,-8.2304,-8.2328,-8.2292,-8.2292,-8.2258,-8.2261,-8.2295,-8.2237,-8.2065,-8.1773,-8.1429,-8.0156,-7.8565,-7.7486,-7.649,-7.6736,-7.7087,-7.778,-7.8073,-7.8065,-7.8237,-7.8246,-7.8054,-7.1011,-7.2394,-7.378,-7.5954,-7.8303,-7.8783,-7.9198,-7.966,-8.0207,-8.0609,-8.1049,-8.1639,-8.283,-8.4466,-8.5912,-8.7317,-8.8172,-8.931,-8.9837,-9.0066,-9.0454,-9.0711,-9.0966,-9.1437,-9.2191,-9.2928,-9.3577,-9.4117,-9.4182,-9.4062,-9.3531,-9.2618,-9.2653,-9.2653,-9.2512,-9.2708,-9.2708,-9.277,-9.3026,-9.3336,-9.3035,-9.2781,-9.2727,-9.2427,-9.2199,-9.1971,-9.1444,-9.0698,-8.9847,-8.9358,-8.9025,-8.8895,-8.9243,-8.9654,-8.9665,-8.9266,-8.8924,-8.7871,-8.6699,-8.5547,-8.4604,-8.3693,-8.3089,-8.2405,-8.1949,-8.1834,-8.1873,-8.1892,-8.1911,-8.1911,-8.1929,-8.1929,-8.1929,-8.1929,-8.1929,-8.1929,-8.1929,-8.1947,-8.1943,-8.1975,-8.2007,-8.2078,-8.2133,-8.2179,-8.2234,-8.2287,-8.231,-8.2315,-8.231,-8.2295,-8.2304,-8.2304,-8.2304,-8.2304,-8.2295,-8.2256,-8.2175,-8.2175,-8.2132,-8.1656,-8.1089,-8.1063,-8.1187,-7.9728,-7.8258,-7.7211,-7.6427,-7.6441,-7.6585,-7.724,-7.7313,-7.6822,-7.6871,-7.7275,-7.7207,-7.1189,-7.2916,-7.5001,-7.712,-7.8735,-7.8916,-7.9472,-8.0049,-8.0265,-8.0766,-8.136,-8.1669,-8.2981,-8.4935,-8.6054,-8.7178,-8.8475,-8.931,-8.9575,-8.9968,-9.0325,-9.0583,-9.0839,-9.1312,-9.2346,-9.3215,-9.3793,-9.4054,-9.4632,-9.4549,-9.4057,-9.3384,-9.3278,-9.3039,-9.2512,-9.2611,-9.2575,-9.2575,-9.2554,-9.2905,-9.3021,-9.2879,-9.2794,-9.2684,-9.2533,-9.2126,-9.1745,-9.1333,-9.0489,-8.978,-8.9572,-8.9574,-8.9817,-8.9877,-8.9619,-8.9114,-8.8257,-8.7166,-8.6042,-8.4939,-8.3884,-8.3085,-8.2471,-8.2073,-8.1833,-8.1854,-8.1892,-8.1892,-8.1892,-8.1892,-8.1892,-8.1892,-8.1892,-8.1892,-8.1892,-8.1892,-8.1892,-8.1929,-8.1908,-8.1943,-8.2014,-8.2026,-8.2084,-8.2171,-8.2218,-8.226,-8.2295,-8.23,-8.231,-8.2315,-8.2297,-8.2304,-8.2304,-8.2304,-8.2304,-8.2068,-8.1873,-8.155,-8.1387,-8.0827,-8.0185,-7.9721,-7.9442,-7.9038,-7.8028,-7.6936,-7.6064,-7.5716,-7.5953,-7.6546,-7.6542,-7.6079,-7.638,-7.6823,-7.6553,-7.1868,-7.3435,-7.6011,-7.7722,-7.8565,-7.8859,-7.9443,-7.9992,-8.0236,-8.0766,-8.1544,-8.1976,-8.3281,-8.5483,-8.6307,-8.7455,-8.8744,-8.931,-8.9706,-8.9968,-9.0228,-9.0583,-9.0839,-9.1186,-9.2058,-9.2928,-9.3958,-9.4597,-9.5219,-9.5181,-9.4794,-9.3876,-9.3601,-9.3285,-9.2618,-9.2611,-9.2575,-9.2442,-9.2282,-9.2494,-9.2899,-9.2579,-9.243,-9.239,-9.2242,-9.1981,-9.1573,-9.1163,-9.0357,-8.9529,-8.9076,-8.9442,-8.9516,-8.9507,-8.9041,-8.8372,-8.7452,-8.6412,-8.5342,-8.4327,-8.3397,-8.284,-8.2471,-8.2428,-8.1812,-8.1834,-8.1892,-8.1892,-8.1892,-8.1892,-8.1892,-8.1892,-8.1892,-8.1892,-8.1892,-8.1892,-8.1911,-8.1929,-8.189,-8.1929,-8.1981,-8.2022,-8.2084,-8.2154,-8.2226,-8.2265,-8.2304,-8.2304,-8.232,-8.2266,-8.2289,-8.2265,-8.2226,-8.2265,-8.2304,-8.1914,-8.1443,-8.1092,-8.0641,-8.0269,-7.9704,-7.8456,-7.7646,-7.789,-7.766,-7.6549,-7.5802,-7.5252,-7.5219,-7.5697,-7.5605,-7.5347,-7.588,-7.6408,-7.6216,-7.289,-7.4267,-7.6678,-7.7993,-7.8451,-7.8992,-7.9386,-7.9718,-8.0207,-8.0766,-8.1823,-8.2557,-8.4142,-8.5738,-8.7008,-8.8275,-8.9145,-8.9443,-8.9837,-8.9968,-9.0066,-9.0454,-9.0839,-9.1186,-9.197,-9.3244,-9.4468,-9.5331,-9.6094,-9.5988,-9.5462,-9.4132,-9.3706,-9.3425,-9.2927,-9.2708,-9.2708,-9.2392,-9.2271,-9.2264,-9.213,-9.1893,-9.1926,-9.1838,-9.1803,-9.1581,-9.1139,-9.0769,-9.0,-8.9455,-8.9001,-8.9254,-8.9352,-8.9194,-8.8501,-8.7832,-8.6989,-8.5979,-8.5089,-8.4553,-8.3868,-8.338,-8.3127,-8.2615,-8.1962,-8.1814,-8.1873,-8.1892,-8.1892,-8.1892,-8.1892,-8.1892,-8.1892,-8.1892,-8.1892,-8.1892,-8.1911,-8.1929,-8.1911,-8.1892,-8.1964,-8.2007,-8.2089,-8.2149,-8.2226,-8.2265,-8.2304,-8.2304,-8.2285,-8.2207,-8.2178,-8.2143,-8.2109,-8.2148,-8.2108,-8.1912,-8.1401,-8.0351,-7.991,-7.9684,-7.9205,-7.8024,-7.7414,-7.7687,-7.7215,-7.6062,-7.5276,-7.4688,-7.477,-7.4964,-7.4745,-7.4769,-7.5764,-7.6139,-7.6071,-7.3608,-7.6039,-7.7558,-7.8536,-7.8831,-7.9312,-7.9762,-8.0078,-8.0265,-8.1049,-8.2405,-8.3251,-8.4552,-8.6338,-8.7008,-8.8203,-8.9472,-8.9737,-8.9639,-8.9706,-9.0098,-9.0391,-9.0839,-9.1437,-9.2413,-9.3665,-9.5061,-9.6169,-9.6552,-9.669,-9.6409,-9.5391,-9.4654,-9.4127,-9.339,-9.3103,-9.254,-9.2321,-9.187,-9.1615,-9.2525,-9.2254,-9.1854,-9.1801,-9.1948,-9.1838,-9.1728,-9.1799,-9.1247,-9.06,-8.9808,-8.9592,-8.9324,-8.8956,-8.8264,-8.7513,-8.6632,-8.5743,-8.5006,-8.4549,-8.3907,-8.3316,-8.2979,-8.2467,-8.1995,-8.1794,-8.1854,-8.1873,-8.1873,-8.1873,-8.1873,-8.1873,-8.1892,-8.1892,-8.1892,-8.1892,-8.1911,-8.1911,-8.1911,-8.1911,-8.1968,-8.2003,-8.2076,-8.2153,-8.2226,-8.2265,-8.2304,-8.2304,-8.2265,-8.2182,-8.2024,-8.2024,-8.1987,-8.1628,-8.1426,-8.1911,-8.1481,-8.0234,-7.917,-7.8903,-7.8428,-7.7626,-7.7233,-7.7195,-7.6536,-7.5421,-7.4734,-7.4045,-7.4243,-7.4385,-7.4076,-7.4217,-7.5341,-7.5985,-7.5925]}]]